     2.10           OBSERVATION DATA    G (GPS)             RINEX VERSION / TYPE
teqc 2005Sep1 20060522 13:35:24UTC                          PGM / RUN BY / DATE
MSXP|IAx86-PII|bcc32 5.0|MSWin95->XP|486/DX+                COMMENT
JPS2RIN 1.40 RUN BY 22-MAY-06 15:12                         COMMENT
build Feb 6 2004 (c) Javad Navigation Systems               COMMENT
Use -p (profile) switch to override ANTENNA TYPE and DELTA  COMMENT
and other fields                                            COMMENT
TAB0508a.jps                                                COMMENT
SE TPS 00000000                                             COMMENT
TAB0508a_3541                                               MARKER NAME
OBSERVER AGENCY                                             OBSERVER / AGENCY
MT311233541 TPS LEGACY 2.3 Apr,28,2004 p4                   REC # / TYPE / VERS
TAB0508a -Unknown-                                          ANT # / TYPE
   539762.1364 -1388816.4241  6180920.9633                  APPROX POSITION XYZ
        0.0000        0.0000        0.0000                  ANTENNA: DELTA H/E/N
     1     1                                                WAVELENGTH FACT L1/2
     7    C1    P1    P2    L1    L2    D1    D2            # / TYPES OF OBSERV
    30.0000                                                 INTERVAL
Forced Modulo Decimation to 30 seconds                      COMMENT
teqc windowed: start @ 2006 May 8 13:28:00.000              COMMENT
  2006     5     8    13    28    0.0000000     GPS         TIME OF FIRST OBS
                                                            END OF HEADER
 06  5  8 13 28  0.0000000  0 10G 2G 4G 5G 6G10G13G23G24G25G30
  20494807.968    20494808.0104   20494807.4094  107700941.355 8  83922827.40346
      -163.079        -127.053
  21772473.711    21772473.9784   21772475.4164  114415124.565 7  89154654.99145
     -2652.767       -2067.089
  24519284.918    24519283.3704   24519289.3204  128849716.546 5 100402393.59141
     -3700.242       -2883.342
  22708740.029    22708740.4694   22708742.7164  119335251.533 6  92988511.11843
      2551.870        1988.463
  23701849.845    23701849.0614   23701852.5654  124554062.420 5  97055127.36241
      3827.628        2982.594
  21859443.145    21859443.6744   21859443.9294  114872149.455 8  89510780.43744
      1397.031        1088.579
  22089777.203    22089777.0394   22089775.5414  116082560.824 7  90453960.03345
     -1104.007        -860.271
  24417700.999    24417700.9694   24417705.7604  128315888.171 5  99986415.37441
     -3668.008       -2858.158
  23571635.969    23571635.9644   23571636.9314  123869783.332 6  96521924.10543
     -1733.632       -1350.891
  22558030.629    22558031.1794   22558032.8864  118543254.456 7  92371377.72643
     -2403.982       -1873.234
 06  5  8 13 28 30.0000000  0 10G 2G 4G 5G 6G10G13G23G24G25G30
  20495800.396    20495800.4824   20495799.9054  107706156.879 8  83926891.47446
      -184.894        -144.067
  21787658.229    21787658.5174   21787659.9004  114494917.266 7  89216830.92345
     -2666.922       -2078.094
  24540426.580    24540423.6664   24540429.2924  128960809.358 5 100488959.41041
     -3706.499       -2888.122
  22694209.372    22694209.4244   22694211.6934  119258890.047 6  92929008.64943
      2538.460        1978.010
  23680018.499    23680017.2964   23680020.9744  124439337.138 5  96965731.09041
      3820.423        2976.935
  21851528.805    21851528.9004   21851529.4484  114830557.856 8  89478371.41144
      1375.664        1071.944
  22096140.408    22096140.3554   22096138.8684  116115999.963 7  90480016.53145
     -1125.391        -876.919
  24438655.673    24438654.7054   24438658.1144  128425997.421 5 100072214.69241
     -3672.454       -2861.617
  23581578.323    23581579.3634   23581581.0604  123922039.464 6  96562643.13343
     -1750.339       -1363.924
  22571803.695    22571804.4114   22571805.1674  118615629.724 6  92427773.88543
     -2421.540       -1886.882
 06  5  8 13 29  0.0000000  0 10G 2G 4G 5G 6G10G13G23G24G25G30
  20496912.630    20496912.3984   20496911.9104  107712000.367 8  83931444.82546
      -205.180        -159.859
  21802918.338    21802919.0244   21802920.6384  114575111.746 7  89279320.07945
     -2679.755       -2088.120
  24561599.241    24561600.4144   24561602.4654  129072074.613 5 100575659.31141
     -3711.688       -2892.123
  22679750.894    22679750.8274   22679753.2634  119182911.425 6  92869804.50543
      2526.436        1968.688
  23658224.583    23658223.5604   23658226.1434  124324808.956 5  96876488.45341
      3814.277        2972.160
  21843731.715    21843732.0844   21843732.5494  114789584.942 7  89446444.46344
      1355.604        1056.324
  22102622.025    22102621.5324   22102620.1084  116150058.739 7  90506555.78145
     -1145.353        -892.470
  24459629.969    24459631.4164   24459631.7534  128536223.127 6 100158104.95441
     -3676.007       -2864.483
  23591614.444    23591614.3454   23591615.6634  123974773.443 6  96603734.51943
     -1765.435       -1375.639
  22585671.804    22585672.3454   22585673.9064  118688507.473 6  92484561.75943
     -2437.523       -1899.365
 06  5  8 13 29 30.0000000  0 10G 2G 4G 5G 6G10G13G23G24G25G30
  20498141.010    20498140.8644   20498140.1994  107718455.965 8  83936475.24946
      -225.891        -176.006
  21818252.204    21818252.3464   21818253.9604  114655689.366 7  89342107.77145
     -2692.893       -2098.348
  24582802.097    24582801.6604   24582805.5884  129183494.163 5 100662479.65441
     -3716.881       -2896.220
  22665363.004    22665363.8894   22665366.1284  119107302.001 6  92810888.06043
      2513.594        1958.668
  23636466.364    23636465.6104   23636467.9804  124210464.032 5  96787388.61941
      3808.054        2967.311
  21836050.150    21836050.3764   21836050.8634  114749216.160 7  89414988.21045
      1334.918        1040.233
  22109217.761    22109217.7294   22109216.0174  116184719.936 7  90533564.52145
     -1166.104        -908.673
  24480623.595    24480621.8314   24480627.0234  128646547.081 5 100244071.58141
     -3679.543       -2867.195
  23601736.436    23601737.1854   23601739.2864  124027967.661 6  96645184.53843
     -1781.419       -1388.141
  22599631.950    22599632.9374   22599634.0234  118761868.553 6  92541726.01943
     -2453.923       -1912.153
 06  5  8 13 30  0.0000000  0 10G 2G 4G 5G 6G10G13G23G24G25G30
  20499484.900    20499484.9794   20499484.2874  107725519.412 8  83941979.32346
      -245.611        -191.394
  21833657.285    21833657.4374   21833659.3224  114736644.082 7  89405189.29445
     -2704.845       -2107.662
  24604032.607    24604031.6034   24604035.9134  129295061.079 5 100749415.01441
     -3721.322       -2899.798
  22651045.245    22651045.3314   22651047.3104  119032059.773 6  92752257.73943
      2501.939        1949.553
  23614740.814    23614741.1144   23614742.5284  124096300.801 5  96698430.27841
      3802.312        2962.818
  21828482.671    21828483.0574   21828483.3424  114709449.141 7  89384000.88945
      1315.371        1024.953
  22115927.048    22115926.6084   22115925.7784  116219977.896 7  90561038.20345
     -1185.276        -923.590
  24501635.797    24501634.8494   24501638.5914  128756963.461 5 100330110.20142
     -3682.333       -2869.364
  23611945.641    23611946.4494   23611947.8474  124081616.141 6  96686988.53643
     -1795.901       -1399.432
  22613683.408    22613683.2974   22613685.0994  118835707.044 6  92599262.38043
     -2469.179       -1924.014
 06  5  8 13 30 30.0000000  0 10G 2G 4G 5G 6G10G13G23G24G25G30
  20500943.639    20500943.4444   20500942.9584  107733183.809 8  83947951.51446
      -266.281        -207.484
  21849132.353    21849132.8834   21849134.3954  114817967.329 7  89468558.04645
     -2717.758       -2117.730
  24625289.703    24625290.1884   24625290.3684  129406764.880 5 100836456.54641
     -3726.220       -2903.507
  22636795.961    22636796.4714   22636797.9974  118957180.528 6  92693910.30343
      2489.191        1939.650
  23593050.696    23593049.6274   23593051.6444  123982314.935 5  96609609.84341
      3795.886        2957.865
  21821029.145    21821029.3654   21821029.5294  114670278.758 8  89353478.44945
      1294.724        1008.880
  22122748.857    22122748.5394   22122746.9084  116255825.346 7  90588971.24345
     -1205.733        -939.521
  24522662.962    24522662.6974   24522666.5054  128867463.563 6 100416214.17942
     -3685.630       -2871.945
  23622240.099    23622240.3524   23622242.0634  124135710.748 6  96729140.13943
     -1811.383       -1411.464
  22627823.851    22627823.6594   22627824.6644  118910013.387 6  92657163.21443
     -2485.367       -1936.687
 06  5  8 13 31  0.0000000  0 10G 2G 4G 5G 6G10G13G23G24G25G30
  20502519.756    20502519.6214   20502519.0714  107741465.983 8  83954405.09246
      -286.815        -223.483
  21864681.167    21864681.0604   21864682.5184  114899673.453 7  89532225.13344
     -2730.333       -2127.525
  24646574.020    24646575.4624   24646579.6214  129518620.384 5 100923616.30841
     -3731.476       -2907.639
  22622619.929    22622619.5614   22622622.2084  118882683.115 6  92635860.37443
      2476.256        1929.557
  23571397.676    23571395.9964   23571399.3314  123868526.728 5  96520943.58041
      3789.027        2952.540
  21813692.147    21813692.3644   21813692.4084  114631723.645 7  89323435.57245
      1274.528         993.157
  22129685.899    22129685.3284   22129683.6614  116292277.328 7  90617375.22245
     -1225.641        -955.043
  24543709.062    24543710.4104   24543712.8444  128978062.475 5 100502395.12941
     -3688.695       -2874.323
  23632621.238    23632622.2084   23632623.2644  124190266.362 6  96771650.98643
     -1826.778       -1423.506
  22642055.569    22642054.9264   22642056.8684  118984802.256 6  92715440.31443
     -2501.569       -1949.262
 06  5  8 13 31 30.0000000  0  9G 2G 4G 6G10G13G23G24G25G30
  20504212.713    20504212.5974   20504212.0404  107750362.285 8  83961337.22446
      -307.637        -239.726
  21880300.817    21880301.1864   21880302.4274  114981757.054 7  89596186.32344
     -2743.086       -2137.478
  22608516.196    22608515.9634   22608518.3824  118808566.001 6  92578106.74243
      2463.427        1919.535
  23549781.361    23549781.9524   23549782.1844  123754935.242 5  96432430.97541
      3782.549        2947.446
  21806472.070    21806472.2364   21806472.4824  114593781.094 7  89293869.97245
      1253.725         976.916
  22136736.427    22136736.1144   22136734.3684  116329329.290 7  90646246.91045
     -1245.776        -970.756
  24564773.298    24564772.9764   24564775.2684  129088754.683 5 100588648.72741
     -3691.749       -2876.681
  23643089.080    23643090.6284   23643092.0854  124245277.586 6  96814516.86943
     -1841.974       -1435.301
  22656376.998    22656377.8244   22656380.1994  119060067.202 6  92774088.35443
     -2517.371       -1961.554
 06  5  8 13 32  0.0000000  0  9G 2G 4G 6G10G13G23G24G25G30
  20506024.745    20506024.7414   20506024.0394  107759884.972 8  83968757.56746
      -328.237        -255.770
  21895994.930    21895994.8154   21895996.1724  115064228.246 7  89660449.63644
     -2755.812       -2147.376
  22594487.160    22594487.0114   22594489.4144  118734843.869 6  92520660.91543
      2450.443        1909.425
  23528205.750    23528205.2464   23528207.6274  123641554.702 5  96344082.58741
      3775.477        2941.928
  21799370.759    21799370.9734   21799371.3534  114556464.722 8  89264792.22445
      1233.057         960.815
  22143903.546    22143903.2924   22143901.4594  116366991.809 7  90675594.26145
     -1265.953        -986.449
  24585856.924    24585856.8684   24585861.4864  129199550.557 6 100674983.10442
     -3695.147       -2879.322
  23653645.651    23653647.2734   23653649.5704  124300754.890 6  96857745.91443
     -1857.287       -1447.246
  22670791.611    22670792.4674   22670795.0014  119135817.721 6  92833114.68943
     -2533.446       -1974.126
 06  5  8 13 32 30.0000000  0  9G 2G 4G 6G10G13G23G24G25G30
  20507956.228    20507956.2194   20507955.5464  107770034.067 8  83976665.74946
      -349.459        -272.291
  21911761.907    21911761.8624   21911763.5294  115147085.757 7  89725013.89944
     -2769.146       -2157.767
  22580533.505    22580533.6594   22580536.0344  118661519.608 6  92463525.12843
      2436.984        1898.955
  23506670.676    23506669.8124   23506674.4014  123528388.372 5  96255900.84341
      3767.762        2935.929
  21792389.104    21792389.4814   21792390.0984  114519777.553 8  89236204.86745
      1211.669         944.168
  22151186.167    22151186.2314   22151184.9314  116405264.773 7  90705417.35445
     -1286.487       -1002.426
  24606960.571    24606959.4204   24606962.8324  129310449.486 5 100761397.84242
     -3699.174       -2882.427
  23664292.298    23664292.6094   23664294.5364  124356697.480 6  96901337.50943
     -1872.983       -1459.425
  22685299.378    22685299.6434   22685301.6884  119212052.488 6  92892518.41543
     -2549.864       -1986.917
 06  5  8 13 33  0.0000000  0  9G 2G 4G 6G10G13G23G24G25G30
  20510008.351    20510007.9714   20510007.4974  107780817.245 8  83985068.32146
      -370.124        -288.400
  21927603.420    21927603.7134   21927605.7074  115230334.520 7  89789883.07744
     -2781.433       -2167.349
  22566657.890    22566658.3424   22566660.9534  118588602.369 7  92406706.49243
      2423.719        1888.627
  23485178.906    23485178.7264   23485179.9534  123415446.648 5  96167894.24742
      3761.027        2930.662
  21785529.280    21785529.2444   21785530.0454  114483727.609 8  89208114.01745
      1191.051         928.111
  22158586.584    22158586.5874   22158584.7464  116444153.701 7  90735720.35245
     -1306.520       -1018.082
  24628083.804    24628083.3504   24628087.4594  129421456.465 5 100847896.72041
     -3701.865       -2884.689
  23675027.332    23675027.9564   23675029.6404  124413110.477 6  96945295.66543
     -1888.162       -1471.277
  22699898.639    22699899.8744   22699900.9294  119288775.763 6  92952302.74943
     -2565.525       -1999.120
 06  5  8 13 33 30.0000000  0  9G 2G 4G 6G10G13G23G24G25G30
  20512181.183    20512181.0944   20512180.3434  107792237.253 8  83993967.19646
      -391.963        -305.431
  21943519.729    21943520.1104   21943521.8334  115313975.805 7  89855058.12144
     -2795.261       -2178.131
  22552860.906    22552861.0274   22552863.0664  118516097.787 6  92350209.43143
      2409.102        1877.253
  23463731.195    23463728.9584   23463732.8754  123302735.051 5  96080067.12741
      3752.509        2923.998
  21778790.787    21778791.1824   21778791.9244  114448319.436 7  89180523.25245
      1168.800         910.779
  22166104.445    22166104.2394   22166102.8154  116483660.353 7  90766504.68445
     -1328.020       -1034.810
  24649229.377    24649229.5604   24649233.9734  129532572.687 5 100934480.79741
     -3706.345       -2888.046
  23685851.657    23685852.5084   23685854.4894  124469995.309 6  96989621.48043
     -1904.859       -1484.291
  22714592.179    22714593.0834   22714595.8504  119365988.155 6  93012468.24743
     -2582.730       -2012.539
 06  5  8 13 34  0.0000000  0  9G 2G 4G 6G10G13G23G24G25G30
  20514475.822    20514475.5694   20514474.8264  107804295.028 8  84003362.95546
      -413.145        -321.876
  21959510.621    21959510.9654   21959512.5984  115398008.960 7  89920538.47144
     -2808.416       -2188.369
  22539143.123    22539143.5254   22539145.0614  118444009.452 6  92294036.72043
      2395.277        1866.488
  23442327.359    23442326.4014   23442328.9804  123190257.650 5  95992422.48741
      3744.424        2917.739
  21772175.825    21772176.2424   21772177.1014  114413556.186 7  89153435.05945
      1147.328         894.046
  22173739.814    22173739.7994   22173738.6454  116523784.839 7  90797770.35344
     -1348.544       -1050.805
  24670394.649    24670394.6604   24670398.4504  129643797.767 6 101021149.65741
     -3710.302       -2891.089
  23696767.139    23696766.8284   23696768.7024  124527351.791 6  97034314.81143
     -1920.575       -1496.563
  22729376.995    22729378.0074   22729380.6984  119443688.799 6  93073014.19743
     -2598.865       -2025.055
 06  5  8 13 34 30.0000000  0  9G 2G 4G 6G10G13G23G24G25G30
  20516895.220    20516894.8144   20516893.9814  107817008.214 8  84013269.40446
      -435.142        -339.055
  21975579.543    21975579.6164   21975581.1654  115482449.714 7  89986336.56844
     -2822.062       -2198.992
  22525507.614    22525508.2884   22525510.6994  118372357.303 6  92238203.94043
      2380.583        1855.034
  23420971.336    23420970.6894   23420973.1934  123078034.543 6  95904975.84742
      3735.814        2911.062
  21765687.094    21765687.4854   21765687.9794  114379456.755 7  89126864.08345
      1124.969         876.605
  22181496.102    22181496.0694   22181495.1274  116564544.074 7  90829530.79045
     -1369.790       -1067.361
  24691583.880    24691583.1384   24691587.8914  129755147.634 5 101107915.70442
     -3714.528       -2894.384
  23707773.957    23707774.3174   23707776.3984  124585195.711 6  97079387.97543
     -1936.839       -1509.210
  22744259.643    22744260.7164   22744262.0664  119521892.484 6  93133952.16143
     -2615.670       -2038.218
 06  5  8 13 35  0.0000000  0  9G 2G 4G 6G10G13G23G24G25G30
  20519436.999    20519436.8884   20519436.1124  107830367.024 8  84023678.84146
      -456.249        -355.505
  21991723.656    21991723.7324   21991725.3934  115567286.553 7  90052443.18544
     -2834.735       -2208.885
  22511954.866    22511954.9614   22511957.1764  118301134.338 6  92182705.58643
      2366.706        1844.179
  23399663.596    23399663.0014   23399665.8004  122966059.550 5  95817722.66542
      3728.171        2905.112
  21759323.045    21759323.1374   21759324.1394  114346013.021 7  89100803.90245
      1103.567         859.906
  22189371.363    22189371.0204   22189369.7904  116605927.183 7  90861777.40945
     -1390.095       -1083.174
  24712794.629    24712795.8024   24712800.1844  129866611.462 5 101194770.55241
     -3717.497       -2896.768
  23718871.776    23718872.0854   23718875.3014  124643516.092 6  97124832.40943
     -1952.147       -1521.156
  22759235.155    22759235.9224   22759237.8774  119600588.009 6  93195273.41243
     -2631.468       -2050.522
 06  5  8 13 35 30.0000000  0  9G 2G 4G 6G10G13G23G24G25G30
  20522101.951    20522101.8574   20522101.1934  107844371.356 8  84034591.18446
      -477.976        -372.448
  22007942.321    22007942.5604   22007944.2904  115652517.412 7  90118856.83544
     -2848.016       -2219.220
  22498483.187    22498483.5104   22498485.8884  118230342.416 6  92127543.04643
      2352.240        1832.911
  23378402.882    23378402.0314   23378404.4774  122854334.963 5  95730664.56342
      3719.635        2898.407
  21753084.120    21753084.3194   21753084.9474  114313226.832 7  89075256.26845
      1081.405         842.651
  22197364.552    22197364.2754   22197363.4524  116647932.302 7  90894508.64244
     -1410.948       -1099.433
  24734026.786    24734027.1274   24734029.5274  129978187.221 5 101281712.63041
     -3721.477       -2899.940
  23730060.191    23730060.8314   23730062.4674  124702311.020 6  97170646.60143
     -1968.033       -1533.527
  22774303.363    22774303.7394   22774305.6234  119679771.948 6  93256975.27643
     -2647.909       -2063.317
 06  5  8 13 36  0.0000000  0  9G 2G 4G 6G10G13G23G24G25G30
  20524887.316    20524887.1374   20524886.2604  107859007.188 8  84045995.69146
      -498.560        -388.474
  22024232.990    22024232.9044   22024235.1984  115738126.142 7  90185564.95944
     -2859.981       -2228.544
  22485092.213    22485092.1934   22485094.2204  118159969.873 6  92072707.31843
      2338.576        1822.265
  23357187.831    23357186.8874   23357191.0084  122742849.925 6  95643793.38142
      3712.300        2892.699
  21746967.548    21746968.0774   21746968.8494  114281084.988 8  89050210.57845
      1060.525         826.380
  22205473.232    22205473.0794   22205471.7804  116690544.065 7  90927712.55445
     -1430.586       -1114.737
  24755277.059    24755277.2384   24755282.4024  130089858.808 5 101368729.37641
     -3723.800       -2901.708
  23741335.949    23741336.7674   23741338.5034  124761564.574 6  97216818.16443
     -1982.808       -1545.017
  22789462.420    22789461.3944   22789462.9184  119759428.051 6  93319044.97343
     -2662.981       -2075.037
 06  5  8 13 36 30.0000000  0  9G 2G 4G 6G10G13G23G24G25G30
  20527793.109    20527792.9424   20527792.0144  107874277.177 8  84057894.34646
      -519.620        -404.885
  22040595.713    22040596.1594   22040597.7964  115824113.826 7  90252568.37244
     -2872.694       -2238.442
  22471781.249    22471781.4384   22471783.8574  118090021.975 7  92018202.48043
      2324.440        1811.262
  23336019.644    23336018.1904   23336021.9224  122631609.619 5  95557112.82042
      3703.709        2886.004
  21740974.960    21740975.0574   21740975.7724  114249592.558 7  89025671.14345
      1038.855         809.503
  22213697.931    22213697.7564   22213696.8504  116733764.279 7  90961390.55244
     -1450.844       -1130.500
  24776546.347    24776546.8034   24776550.8544  130201627.910 5 101455822.19641
     -3727.337       -2904.386
  23752699.540    23752699.8484   23752702.1114  124821278.024 6  97263348.09443
     -1998.159       -1557.018
  22804709.715    22804710.2154   22804711.9794  119839556.454 6  93381482.60143
     -2678.760       -2087.352
 06  5  8 13 37  0.0000000  0  9G 2G 4G 6G10G13G23G24G25G30
  20530820.248    20530820.1244   20530819.3374  107890185.330 8  84070290.34246
      -541.305        -421.798
  22057031.274    22057031.8874   22057033.2524  115910482.292 7  90319868.40844
     -2885.743       -2248.638
  22458553.136    22458553.0214   22458554.8514  118020504.973 6  91964033.37143
      2309.644        1799.734
  23314898.768    23314897.9834   23314900.2844  122520620.534 5  95470627.87642
      3694.978        2879.180
  21735106.425    21735107.0164   21735107.7104  114218754.437 8  89001641.53545
      1016.551         792.121
  22222039.056    22222039.0874   22222037.1254  116777595.525 7  90995544.66645
     -1471.706       -1146.795
  24797833.774    24797832.9054   24797837.5284  130313497.086 5 101542992.94841
     -3731.128       -2907.377
  23764150.212    23764150.3164   23764152.8054  124881453.721 6  97310238.22343
     -2013.936       -1569.301
  22820048.308    22820048.0444   22820049.2934  119920158.923 6  93444289.62343
     -2695.035       -2100.024
 06  5  8 13 37 30.0000000  0  9G 2G 4G 6G10G13G23G24G25G30
  20533968.805    20533968.5714   20533967.7324  107906730.490 8  84083182.67246
      -561.652        -437.652
  22073538.407    22073538.9784   22073540.8074  115997229.332 7  90387463.50844
     -2897.379       -2257.696
  22445406.895    22445406.7964   22445408.7834  117951420.578 6  91910201.31143
      2296.101        1789.177
  23293826.176    23293826.8714   23293829.1414  122409885.113 5  95384340.53142
      3687.264        2873.156
  21729362.885    21729363.2894   21729363.5624  114188571.053 8  88978121.89745
       995.733         775.901
  22230496.232    22230495.5324   22230494.2304  116822035.529 7  91030173.07144
     -1490.882       -1161.765
  24819141.322    24819140.6804   24819143.5814  130425463.801 5 101630239.70741
     -3733.262       -2909.107
  23775688.748    23775689.2684   23775690.8474  124942089.294 6  97357486.69643
     -2028.266       -1580.489
  22835476.892    22835476.1984   22835477.6534  120001232.669 6  93507463.91442
     -2709.873       -2111.603
 06  5  8 13 38  0.0000000  0  8G 2G 4G 6G10G13G23G25G30
  20537235.524    20537235.4734   20537234.5464  107923898.074 8  84096560.00446
      -583.404        -454.599
  22090115.304    22090115.2674   22090116.9554  116084338.583 7  90455340.82544
     -2910.458       -2267.885
  22432340.554    22432340.5244   22432341.9084  117882756.847 7  91856697.06143
      2281.084        1777.487
  23272800.546    23272800.0794   23272802.7394  122299391.769 6  95298241.75542
      3678.377        2866.263
  21723741.226    21723741.7254   21723742.1784  114159030.067 8  88955103.03145
       973.262         758.383
  22239065.957    22239065.2424   22239063.9934  116867068.094 7  91065262.87944
     -1511.684       -1177.929
  23787311.571    23787312.2024   23787314.1124  125003168.609 6  97405080.91042
     -2043.963       -1592.665
  22850990.823    22850990.4214   22850991.3144  120082760.526 6  93570992.07843
     -2725.787       -2123.996
 06  5  8 13 38 30.0000000  0  8G 2G 4G 6G10G13G23G25G30
  20540623.437    20540623.3884   20540622.6794  107941701.632 8  84110432.83046
      -604.441        -470.984
  22106762.228    22106762.7654   22106764.7434  116171821.879 7  90523509.65744
     -2922.758       -2277.473
  22419357.107    22419357.1534   22419359.4144  117814529.967 6  91803533.27643
      2266.552        1766.150
  23251823.033    23251822.4664   23251825.9914  122189157.558 5  95212344.92842
      3669.717        2859.595
  21718244.546    21718245.2094   21718245.8264  114130146.348 7  88932596.16445
       951.462         741.411
  22247750.340    22247750.2804   22247749.2404  116912707.954 7  91100826.49745
     -1531.784       -1193.608
  23799021.825    23799022.2844   23799024.0934  125064703.828 6  97453030.39543
     -2059.171       -1604.544
  22866593.709    22866593.7524   22866594.9824  120164753.617 6  93634882.60242
     -2741.217       -2136.036
 06  5  8 13 39  0.0000000  0  8G 2G 4G 6G10G13G23G25G30
  20544131.918    20544131.9854   20544131.3134  107960138.833 8  84124799.31246
      -625.619        -487.504
  22123481.052    22123481.3074   22123482.6234  116259675.517 7  90591967.09644
     -2934.998       -2287.040
  22406457.431    22406456.8244   22406459.4224  117746740.126 6  91750710.00644
      2251.887        1754.711
  23230895.994    23230895.3154   23230899.1384  122079183.168 6  95126650.62542
      3661.080        2852.797
  21712873.509    21712874.0724   21712874.4604  114101919.744 8  88910601.49145
       929.493         724.272
  22256549.800    22256550.0334   22256548.8614  116958949.924 7  91136859.03045
     -1551.909       -1209.300
  23810818.662    23810817.6244   23810819.7744  125126691.325 6  97501332.31243
     -2074.256       -1616.329
  22882283.817    22882284.1944   22882285.6204  120247208.200 6  93699132.92842
     -2756.616       -2148.012
 06  5  8 13 39 30.0000000  0  8G 2G 4G 6G10G13G23G25G30
  20547761.345    20547761.1164   20547760.4734  107979209.848 8  84139659.77946
      -646.828        -504.018
  22140268.817    22140269.0264   22140270.3844  116347897.359 7  90660711.47844
     -2947.332       -2296.619
  22393640.897    22393640.9734   22393642.9914  117679389.761 7  91698229.26143
      2237.225        1743.307
  23210018.261    23210018.1354   23210021.0174  121969471.409 6  95041161.00442
      3652.103        2845.780
  21707627.697    21707627.7384   21707628.2684  114074350.682 7  88889119.01845
       907.560         707.199
  22265464.193    22265463.6414   22265462.6604  117005793.338 7  91173360.44944
     -1571.883       -1224.841
  23822699.378    23822699.7794   23822701.2824  125189129.184 6  97549985.15143
     -2089.199       -1627.938
  22898060.791    22898061.7814   22898063.3144  120330120.532 6  93763739.62342
     -2771.889       -2159.909
 06  5  8 13 40  0.0000000  0  8G 2G 4G 6G10G13G23G25G30
  20551508.493    20551508.5024   20551507.7834  107998902.442 8  84155004.72746
      -667.522        -520.136
  22157123.922    22157124.2964   22157125.8004  116436473.278 7  90729731.66644
     -2959.106       -2305.789
  22380906.238    22380906.2134   22380907.8604  117612468.933 7  91646083.17744
      2222.740        1732.025
  23189189.505    23189188.8894   23189191.4324  121860013.159 5  94955868.99342
      3643.731        2839.240
  21702504.722    21702504.7364   21702505.2494  114047429.012 8  88868141.08145
       885.928         690.346
  22274490.477    22274489.7024   22274488.7974  117053223.673 7  91210318.86644
     -1591.547       -1240.175
  23834664.580    23834664.4304   23834665.5454  125252003.723 6  97598978.28743
     -2103.854       -1639.344
  22913923.768    22913924.7074   22913926.0134  120413476.857 6  93828692.31642
     -2786.607       -2171.337
 06  5  8 13 40 30.0000000  0  8G 2G 4G 6G10G13G23G25G30
  20555375.198    20555375.3354   20555374.8154  108019222.624 8  84170838.55846
      -688.269        -536.308
  22174047.948    22174047.9804   22174049.4684  116525407.956 7  90799031.29444
     -2970.978       -2315.052
  22368254.651    22368254.9774   22368257.4634  117545986.813 7  91594278.95044
      2208.095        1720.572
  23168410.063    23168408.7384   23168411.9524  121750817.407 6  94870781.44842
      3634.912        2832.405
  21697505.994    21697506.4104   21697506.9644  114021162.504 7  88847673.61545
       864.081         673.315
  22283628.638    22283628.1634   22283626.8644  117101248.278 7  91247741.11844
     -1611.249       -1255.515
  23846712.553    23846712.9984   23846714.6374  125315319.845 6  97648315.51243
     -2118.580       -1650.842
  22929872.119    22929871.7304   22929872.5944  120497282.194 6  93893995.24642
     -2801.624       -2183.079
 06  5  8 13 41  0.0000000  0  8G 2G 4G 6G10G13G23G25G30
  20559362.073    20559362.0114   20559361.3964  108040173.052 8  84187163.61446
      -709.031        -552.507
  22191039.476    22191040.1074   22191042.0794  116614702.628 7  90868611.49344
     -2982.729       -2324.209
  22355687.748    22355688.5234   22355690.6984  117479948.258 6  91542820.38143
      2193.629        1709.303
  23147681.665    23147680.2784   23147683.9044  121641889.954 6  94785902.92042
      3626.240        2825.614
  21692633.428    21692633.5854   21692634.0384  113995554.945 8  88827719.49445
       842.258         656.285
  22292880.161    22292880.0054   22292878.8784  117149865.883 7  91285624.76344
     -1630.799       -1270.731
  23858846.127    23858845.9944   23858847.9864  125379078.345 6  97697997.43243
     -2132.977       -1662.086
  22945904.611    22945904.3224   22945906.1864  120581535.575 6  93959647.01042
     -2816.043       -2194.334
 06  5  8 13 41 30.0000000  0  8G 2G 4G 6G10G13G23G25G30
  20563468.133    20563468.0624   20563467.4814  108061749.804 8  84203976.51446
      -730.063        -568.861
  22208099.550    22208099.7734   22208101.5664  116704352.617 7  90938468.71444
     -2994.594       -2333.420
  22343206.227    22343206.0084   22343207.3854  117414352.706 7  91491706.95444
      2178.761        1697.755
  23127004.048    23127003.7814   23127007.0434  121533230.316 5  94701232.82142
      3617.161        2818.629
  21687885.287    21687886.0214   21687886.2654  113970605.377 8  88808278.34845
       820.289         639.200
  22302243.722    22302243.8304   22302242.3184  117199073.699 7  91323968.59144
     -1650.391       -1286.005
  23871062.265    23871061.9984   23871063.5544  125443274.671 6  97748020.52842
     -2147.435       -1673.290
  22962021.104    22962022.5324   22962023.5244  120666231.509 6  94025643.58842
     -2830.883       -2205.839
 06  5  8 13 42  0.0000000  0  8G 2G 4G 6G10G13G23G25G30
  20567693.216    20567693.4114   20567692.7664  108083954.140 8  84221278.64346
      -751.122        -585.277
  22225226.670    22225227.1134   22225228.4394  116794356.104 7  91008601.39444
     -3006.560       -2342.771
  22330808.010    22330808.6264   22330810.2204  117349203.012 7  91440940.94444
      2163.692        1686.002
  23106379.801    23106378.2404   23106380.3684  121424842.720 6  94616774.86642
      3607.798        2811.315
  21683263.136    21683263.7244   21683263.8934  113946314.990 7  88789350.76045
       798.128         621.910
  22311720.226    22311719.9844   22311718.4994  117248870.029 7  91362770.80044
     -1670.100       -1301.363
  23883361.320    23883361.7904   23883362.9974  125507907.563 6  97798383.78042
     -2162.058       -1684.732
  22978222.910    22978223.4604   22978224.7704  120751369.428 6  94091985.13542
     -2845.746       -2217.510
 06  5  8 13 42 30.0000000  0  8G 2G 4G 6G10G13G23G25G30
  20572038.093    20572038.1154   20572037.3694  108106786.211 8  84239070.02346
      -771.522        -601.189
  22242420.906    22242421.3554   22242423.1244  116884711.794 7  91079008.36044
     -3017.720       -2351.458
  22318495.866    22318495.8364   22318498.1814  117284502.172 6  91390524.68444
      2149.137        1674.641
  23085806.590    23085805.3894   23085807.0884  121316730.339 6  94532531.35742
      3599.022        2804.442
  21678766.726    21678766.9964   21678767.4084  113922685.740 8  88770938.33245
       776.628         605.132
  22321308.166    22321307.5814   22321306.5104  117299254.375 7  91402031.17744
     -1689.254       -1316.363
  23895743.371    23895743.1264   23895745.7304  125572976.062 6  97849086.46142
     -2176.234       -1695.776
  22994507.624    22994508.5264   22994509.2904  120836946.720 6  94158669.06042
     -2860.095       -2228.663
 06  5  8 13 43  0.0000000  0  8G 2G 4G 6G10G13G23G25G30
  20576501.492    20576501.3484   20576500.6484  108130241.142 8  84257346.63646
      -792.581        -617.604
  22259680.980    22259681.2744   22259683.0504  116975414.178 7  91149685.51644
     -3029.498       -2360.648
  22306269.400    22306269.1174   22306271.6064  117220248.469 7  91340456.84244
      2133.880        1662.777
  23065285.906    23065284.6274   23065286.2214  121208893.054 5  94448502.64642
      3589.660        2797.165
  21674395.920    21674395.9644   21674396.2594  113899714.819 8  88753038.81745
       754.354         587.792
  22331007.153    22331006.9074   22331006.2854  117350220.112 7  91441744.03644
     -1708.791       -1331.455
  23908207.764    23908207.6564   23908209.1424  125638474.352 6  97900124.04942
     -2190.924       -1707.215
  23010874.460    23010874.5714   23010876.0934  120922956.453 6  94225689.85642
     -2874.558       -2239.900
 06  5  8 13 43 30.0000000  0  8G 2G 4G 6G10G13G23G25G30
  20581083.162    20581082.8104   20581082.0504  108154316.780 8  84276106.99246
      -813.066        -633.555
  22277006.464    22277006.6674   22277008.1874  117066459.089 7  91220629.57444
     -3040.854       -2369.487
  22294127.217    22294126.8184   22294128.8694  117156442.201 7  91290737.63944
      2119.062        1651.220
  23044816.266    23044815.9614   23044818.3764  121101330.160 6  94364687.52142
      3580.418        2789.933
  21670149.594    21670150.1334   21670150.4324  113877401.715 8  88735651.98445
       732.502         570.783
  22340815.703    22340815.8824   22340814.2784  117401767.651 7  91481911.57344
     -1728.236       -1346.707
  23920752.442    23920752.6594   23920753.6494  125704398.573 6  97951493.52442
     -2205.079       -1718.277
  23027321.644    23027322.9004   23027325.0614  121009394.065 6  94293043.92742
     -2888.757       -2251.018
 06  5  8 13 44  0.0000000  0  8G 2G 4G 6G10G13G23G25G30
  20585781.187    20585780.8784   20585780.1554  108179005.189 8  84295344.72446
      -833.264        -649.289
  22294395.879    22294395.7694   22294397.2324  117157837.460 7  91291833.48044
     -3051.704       -2377.951
  22282069.183    22282069.1884   22282071.6064  117093078.288 7  91241363.11344
      2104.539        1639.900
  23024399.188    23024398.6274   23024401.7814  120994037.378 6  94281082.62242
      3571.688        2783.168
  21666027.763    21666028.0134   21666028.3904  113855739.270 8  88718771.79445
       711.031         554.060
  22350733.614    22350733.5104   22350732.5094  117453883.219 7  91522520.51144
     -1746.901       -1361.230
  23933376.978    23933376.5154   23933378.5514  125770739.685 6  98003187.86942
     -2218.483       -1728.684
  23043850.319    23043850.9084   23043853.1604  121096249.722 6  94360723.58842
     -2902.281       -2261.476
 06  5  8 13 44 30.0000000  0  8G 2G 4G 6G10G13G23G25G30
  20590595.668    20590595.6084   20590594.7144  108204307.014 8  84315060.45446
      -853.654        -665.193
  22311847.700    22311847.6544   22311848.8884  117249548.139 7  91363296.32844
     -3062.710       -2386.545
  22270096.299    22270096.3764   22270098.9814  117030159.964 7  91192335.87744
      2089.760        1628.399
  23004035.020    23004033.7254   23004037.2624  120887018.568 6  94197691.16842
      3562.546        2775.990
  21662029.973    21662030.3064   21662030.2884  113834731.447 7  88702402.35845
       689.159         536.986
  22360759.207    22360759.0124   22360757.8234  117506570.619 7  91563576.31644
     -1765.803       -1375.964
  23946080.503    23946080.3394   23946081.7144  125837496.599 6  98055206.19742
     -2232.374       -1739.509
  23060457.343    23060458.5534   23060459.9554  121183521.686 6  94428727.61142
     -2916.113       -2272.288
 06  5  8 13 45  0.0000000  0  8G 2G 4G 6G10G13G23G25G30
  20595527.570    20595527.2134   20595526.4904  108230223.540 8  84335255.27746
      -874.501        -681.445
  22329362.758    22329362.6234   22329364.2204  117341590.517 7  91435017.62044
     -3073.983       -2395.331
  22258208.784    22258209.0154   22258210.9944  116967690.711 7  91143658.51744
      2074.357        1616.357
  22983722.433    22983721.4944   22983724.0304  120780278.855 6  94114517.52442
      3552.902        2768.447
  21658156.855    21658157.3304   21658157.4924  113814378.934 8  88686543.37345
       667.171         519.862
  22370893.304    22370893.2324   22370892.2484  117559826.038 7  91605074.01144
     -1784.946       -1390.853
  23958862.823    23958862.9774   23958863.2694  125904668.945 6  98107548.25342
     -2246.357       -1750.418
  23077143.780    23077144.6164   23077146.9314  121271209.263 6  94497055.49242
     -2930.196       -2283.257
 06  5  8 13 45 30.0000000  0  8G 2G 4G 6G10G13G23G25G30
  20600576.464    20600576.5144   20600575.6354  108256757.254 8  84355930.89346
      -894.914        -697.332
  22346941.287    22346941.0654   22346942.6544  117433966.580 7  91506998.91244
     -3084.858       -2403.771
  22246408.146    22246408.2804   22246410.1814  116905676.719 7  91095335.97444
      2059.450        1604.759
  22963464.501    22963464.2504   22963467.7554  120673824.141 6  94031565.88842
      3543.660        2761.270
  21654409.444    21654409.8744   21654410.1364  113794686.992 7  88671199.01745
       645.239         502.785
  22381136.491    22381136.4114   22381135.2584  117613652.316 7  91647016.24444
     -1803.748       -1405.483
  23971723.355    23971724.6054   23971726.4594  125972258.622 6  98160215.46242
     -2259.933       -1760.999
  23093909.895    23093910.3904   23093911.9184  121359312.994 6  94565707.55842
     -2943.708       -2293.829
 06  5  8 13 46  0.0000000  0  8G 2G 4G 6G10G13G23G25G30
  20605742.108    20605742.0454   20605741.1684  108283902.967 8  84377083.49246
      -916.054        -713.792
  22364581.736    22364582.1464   22364583.1724  117526668.983 7  91579234.46944
     -3096.619       -2412.928
  22234693.291    22234693.1874   22234695.4704  116844114.656 7  91047365.58744
      2043.468        1592.332
  22943260.240    22943259.3904   22943262.0664  120567651.919 6  93948834.36942
      3533.151        2753.076
  21650787.362    21650787.5304   21650788.0464  113775651.297 8  88656366.02545
       622.561         485.120
  22391487.110    22391486.7884   22391485.1934  117668044.334 7  91689399.78944
     -1823.500       -1420.912
  23984664.402    23984664.8854   23984665.1814  126040258.472 6  98213202.28742
     -2274.673       -1772.428
  23110753.689    23110754.8194   23110754.9384  121447826.092 6  94634678.93042
     -2958.415       -2305.251
 06  5  8 13 46 30.0000000  0  8G 2G 4G 6G10G13G23G25G30
  20611025.887    20611025.7864   20611024.7464  108311669.449 8  84398719.85346
      -935.963        -729.337
  22382286.351    22382286.2334   22382288.2884  117619705.135 7  91651730.07544
     -3106.721       -2420.831
  22223066.791    22223066.8094   22223069.2344  116783016.243 6  90999756.43244
      2028.756        1580.851
  22923113.027    22923112.7204   22923115.2084  120461774.415 6  93866332.46042
      3524.438        2746.330
  21647291.633    21647292.1344   21647292.3824  113757282.605 8  88642052.88645
       601.069         468.348
  22401946.015    22401946.0134   22401944.8874  117723008.648 7  91732229.19644
     -1841.793       -1435.172
  23997683.888    23997683.7514   23997685.2864  126108676.069 6  98266514.63642
     -2287.656       -1782.596
  23127675.787    23127676.9124   23127679.3884  121536753.348 6  94703972.27042
     -2971.033       -2315.075
 06  5  8 13 47  0.0000000  0  8G 2G 4G 6G10G13G23G25G30
  20616429.386    20616429.3554   20616428.4364  108340066.175 8  84420847.23746
      -957.221        -745.886
  22400055.504    22400055.5284   22400057.5014  117713083.642 7  91724492.49444
     -3118.441       -2429.935
  22211530.849    22211530.5904   22211532.8934  116722393.822 7  90952518.09344
      2012.406        1568.114
  22903023.772    22903023.2494   22903026.6844  120356204.453 6  93784070.02742
      3513.722        2737.962
  21643925.236    21643925.3484   21643926.0744  113739590.645 8  88628266.67345
       578.174         450.542
  22412515.813    22412515.8134   22412514.3434  117778553.617 7  91775510.86644
     -1861.570       -1450.611
  24010784.447    24010783.9804   24010785.9794  126177519.741 6  98320158.97742
     -2302.227       -1793.956
  23144679.760    23144680.0794   23144680.1254  121626105.132 6  94773597.25342
     -2985.796       -2326.584
 06  5  8 13 47 30.0000000  0  9G 2G 4G 6G10G13G16G23G25G30
  20621948.923    20621948.9434   20621947.9904  108369072.052 8  84443449.32546
      -976.688        -761.067
  22417885.000    22417885.1594   22417887.4344  117806781.734 7  91797503.94144
     -3128.275       -2437.640
  22200081.682    22200081.5664   22200083.6394  116662229.252 7  90905636.62044
      1998.042        1556.903
  22882989.847    22882989.3764   22882992.3494  120250924.646 6  93702033.70642
      3504.771        2731.017
  21640684.170    21640684.3484   21640685.0724  113722557.230 8  88614993.57445
       557.103         434.139
  24620989.166    24620990.4784   24620992.5144  129384209.644 5 100818855.96541
      3184.872        2481.662
  22423192.480    22423191.8024   22423190.8674  117834657.793 7  91819228.55944
     -1879.152       -1464.278
  24023961.089    24023961.0564   24023962.5114  126246767.035 6  98374117.84242
     -2314.749       -1803.719
  23161758.315    23161758.5624   23161760.3884  121715856.924 6  94843533.91642
     -2998.158       -2336.217
 06  5  8 13 48  0.0000000  0  9G 2G 4G 6G10G13G16G23G25G30
  20627583.331    20627583.3504   20627582.2524  108398680.914 8  84466521.31246
      -997.594        -777.362
  22435775.462    22435775.4694   22435777.1594  117900792.219 7  91870758.95444
     -3139.391       -2446.269
  22188719.183    22188718.9034   22188721.3104  116602518.869 7  90859109.08044
      1982.207        1544.566
  22863010.848    22863010.3524   22863012.8084  120145932.383 6  93620221.58242
      3494.407        2722.871
  21637567.432    21637567.2944   21637567.7194  113706178.620 8  88602231.35045
       534.495         416.471
  24602835.076    24602836.1774   24602837.6174  129288805.415 5 100744515.11541
      3175.018        2473.994
  22433973.348    22433972.8594   22433971.5884  117891313.403 7  91863376.01444
     -1898.253       -1479.187
  24037213.729    24037214.9594   24037214.8804  126316410.434 6  98428385.38342
     -2328.471       -1814.402
  23178912.083    23178912.5544   23178913.9234  121806000.075 6  94913775.24542
     -3011.803       -2346.851
 06  5  8 13 48 30.0000000  0  9G 2G 4G 6G10G13G16G23G25G30
  20633335.288    20633335.3904   20633334.0794  108428908.030 8  84490075.00446
     -1017.755        -793.062
  22453726.888    22453726.8674   22453728.2584  117995127.885 7  91944267.26344
     -3149.890       -2454.455
  22177447.022    22177446.7634   22177448.0274  116543280.440 7  90812949.31244
      1966.838        1532.620
  22843089.649    22843088.8034   22843091.4494  120041245.825 6  93538647.74042
      3484.303        2715.025
  21634577.831    21634578.0634   21634578.2284  113690468.984 8  88589989.99745
       512.558         399.380
  24584735.961    24584736.3204   24584739.9294  129193695.239 5 100670403.37441
      3165.404        2466.588
  22444861.642    22444861.6404   22444860.3504  117948533.485 7  91907963.01444
     -1916.613       -1493.430
  24050545.430    24050544.5754   24050547.4894  126386463.433 6  98482972.06542
     -2341.860       -1824.778
  23196143.405    23196144.3764   23196144.3934  121896547.414 6  94984331.45542
     -3025.137       -2357.299
 06  5  8 13 49  0.0000000  0  9G 2G 4G 6G10G13G16G23G25G30
  20639202.538    20639202.4284   20639201.4194  108459741.036 8  84514100.76946
     -1038.611        -809.305
  22471737.764    22471737.8774   22471738.6914  118089776.432 7  92018019.42244
     -3160.942       -2463.102
  22166262.010    22166261.4874   22166263.0234  116484505.146 7  90767150.50044
      1950.600        1519.943
  22823224.472    22823224.5424   22823226.5014  119936856.237 6  93457305.17142
      3473.708        2706.782
  21631714.259    21631714.3844   21631714.4444  113675419.714 8  88578263.39945
       489.896         381.730
  24566690.889    24566691.2894   24566694.0234  129098871.123 5 100596514.45841
      3155.039        2458.400
  22455855.487    22455855.6034   22455854.2154  118006305.791 7  91952980.34144
     -1935.697       -1508.353
  24063951.219    24063952.0244   24063952.8694  126456912.981 6  98537867.74142
     -2355.777       -1835.666
  23213447.829    23213449.1404   23213450.2254  121987486.172 5  95055192.88342
     -3038.545       -2367.735
 06  5  8 13 49 30.0000000  0  9G 2G 4G 6G10G13G16G23G25G30
  20645185.518    20645185.5454   20645184.6244  108491181.764 8  84538599.86446
     -1058.486        -824.792
  22489807.865    22489808.5104   22489809.6844  118184738.340 7  92092015.77544
     -3170.985       -2470.889
  22155166.180    22155166.3124   22155167.9114  116426197.542 7  90721716.06244
      1935.401        1508.136
  22803418.106    22803417.2844   22803420.3304  119832770.052 6  93376199.23842
      3464.016        2699.256
  21628976.350    21628976.7674   21628976.9284  113661032.776 8  88567052.68545
       468.067         364.720
  24548704.996    24548703.4994   24548704.6884  129004339.017 5 100522853.08741
      3145.763        2451.223
  22466954.601    22466954.3274   22466953.5204  118064631.695 7  91998429.14044
     -1953.825       -1522.457
  24077433.481    24077433.7734   24077435.3084  126527760.219 6  98593073.36742
     -2368.629       -1845.691
  23230828.021    23230828.5504   23230829.8954  122078815.515 6  95126358.47442
     -3051.114       -2377.440
 06  5  8 13 50  0.0000000  0  9G 2G 4G 6G10G13G16G23G25G30
  20651284.253    20651284.0374   20651282.9134  108523229.286 8  84563571.94846
     -1078.636        -840.492
  22507937.796    22507937.7444   22507939.5744  118280010.704 7  92166254.05144
     -3181.110       -2478.805
  22144159.463    22144160.3034   22144161.8244  116368358.947 7  90676647.01444
      1919.732        1495.894
  22783668.107    22783667.6014   22783670.3004  119728988.598 6  93295330.65042
      3454.002        2691.437
  21626364.963    21626365.1484   21626365.6214  113647309.424 8  88556359.25745
       446.015         347.530
  24530768.029    24530770.3884   24530772.2474  128910100.918 5 100449420.82241
      3136.149        2443.749
  22478159.027    22478158.5414   22478157.2554  118123507.988 7  92044306.62744
     -1971.971       -1536.597
  24090989.837    24090990.6864   24090991.8254  126599002.093 6  98648586.51942
     -2381.548       -1855.729
  23248282.074    23248280.6234   23248283.6204  122170532.305 6  95197826.09242
     -3063.875       -2387.410
 06  5  8 13 50 30.0000000  0  9G 2G 4G 6G10G13G16G23G25G30
  20657497.065    20657496.9194   20657495.9384  108555878.381 8  84589012.84846
     -1098.245        -855.777
  22526125.204    22526125.7144   22526127.2574  118375586.989 6  92240729.13044
     -3190.871       -2486.395
  22133242.210    22133242.5784   22133243.9754  116310986.993 7  90631941.66344
      1904.635        1484.102
  22763976.962    22763976.6064   22763979.1934  119625510.128 6  93214698.15642
      3444.165        2683.807
  21623878.853    21623878.9894   21623879.4684  113634245.248 8  88546179.31545
       424.556         330.806
  24512892.877    24512894.4764   24512895.2634  128816155.251 5 100376216.42641
      3126.884        2436.556
  22489466.066    22489465.7964   22489464.3904  118182928.741 7  92090608.43044
     -1989.614       -1550.351
  24104621.097    24104620.5224   24104622.3314  126670631.875 6  98704401.87942
     -2393.969       -1865.441
  23265807.015    23265808.1424   23265807.7344  122262629.386 6  95269590.12642
     -3076.277       -2397.001
 06  5  8 13 51  0.0000000  0  9G 2G 4G 6G10G13G16G23G25G30
  20663824.836    20663824.5574   20663823.6334  108589131.230 8  84614924.33046
     -1118.619        -871.645
  22544370.953    22544370.9994   22544373.6314  118471467.903 7  92315441.50144
     -3201.220       -2494.472
  22122414.747    22122414.6724   22122416.9494  116254086.644 7  90587603.78844
      1888.778        1471.791
  22744344.001    22744343.4934   22744346.9674  119522340.393 6  93134306.26542
      3433.814        2675.693
  21621518.961    21621518.9754   21621519.5374  113621844.289 8  88536516.35345
       402.097         313.328
  24495073.283    24495072.3684   24495075.8154  128722507.816 5 100303244.45542
      3116.451        2428.366
  22500877.408    22500876.9434   22500875.7154  118242895.042 7  92137335.45544
     -2008.103       -1564.733
  24118325.709    24118324.9654   24118328.3884  126742650.615 6  98760520.34042
     -2407.118       -1875.723
  23283405.664    23283405.1874   23283405.4164  122355106.955 6  95341650.63842
     -3088.849       -2406.846
 06  5  8 13 51 30.0000000  0  9G 2G 4G 6G10G13G16G23G25G30
  20670267.221    20670266.9464   20670265.9674  108622985.369 8  84641304.02246
     -1138.646        -887.240
  22562673.802    22562673.9244   22562675.8174  118567650.783 7  92390389.12044
     -3211.260       -2502.268
  22111676.628    22111676.9554   22111678.4534  116197658.761 7  90543633.92144
      1872.878        1459.428
  22724769.849    22724769.8744   22724773.4114  119419481.101 6  93054156.19742
      3423.366        2667.551
  21619285.126    21619285.3324   21619285.9014  113610105.874 8  88527369.50945
       380.033         296.157
  24477309.958    24477309.1854   24477310.7664  128629160.900 5 100230506.54441
      3106.251        2420.499
  22512391.381    22512391.2664   22512390.1734  118303403.595 7  92184484.75544
     -2026.228       -1578.876
  24132104.070    24132104.0094   24132105.7494  126815055.389 6  98816939.53342
     -2420.133       -1885.797
  23301074.689    23301074.7234   23301075.5584  122447961.160 6  95414004.49042
     -3101.470       -2416.673
 06  5  8 13 52  0.0000000  0  9G 2G 4G 6G10G13G16G23G25G30
  20676824.939    20676824.9314   20676823.8974  108657446.979 8  84668157.09146
     -1159.546        -903.523
  22581035.149    22581035.5014   22581037.1324  118664140.182 7  92465575.52244
     -3222.247       -2510.800
  22101030.423    22101030.5914   22101032.5634  116141712.374 7  90500039.30244
      1856.230        1446.403
  22705258.835    22705257.6884   22705260.4674  119316942.256 6  92974255.98842
      3411.772        2658.507
  21617178.635    21617178.9404   21617179.6654  113599037.375 8  88518744.78645
       357.039         278.236
  24459605.782    24459605.7904   24459606.5944  128536123.917 5 100158010.22341
      3095.256        2411.917
  22524010.625    22524009.9044   22524009.0684  118364460.193 7  92232061.35444
     -2045.073       -1593.543
  24145956.476    24145957.2384   24145957.0264  126887850.952 6  98873663.24942
     -2433.774       -1896.413
  23318817.052    23318816.1294   23318816.2024  122541195.974 6  95486655.01342
     -3114.927       -2427.232
 06  5  8 13 52 30.0000000  0  9G 2G 4G 6G10G13G16G23G25G30
  20683496.340    20683496.3254   20683495.3444  108692505.196 8  84695475.17146
     -1178.806        -918.548
  22599452.576    22599453.2614   22599454.6724  118760923.577 7  92540991.07844
     -3231.279       -2517.870
  22090474.490    22090474.3014   22090476.0584  116086238.659 7  90456812.96444
      1840.958        1434.514
  22685805.438    22685804.2384   22685807.0164  119214715.144 6  92894598.67642
      3402.013        2650.884
  21615198.411    21615198.2964   21615198.6604  113588628.427 8  88510633.86945
       335.706         261.603
  24441957.308    24441957.8544   24441960.1074  128443389.157 5 100085749.43741
      3085.703        2404.382
  22535731.072    22535730.9484   22535729.3484  118426051.663 7  92280054.81744
     -2062.226       -1606.914
  24159880.750    24159880.0734   24159882.7414  126961024.614 6  98930681.66742
     -2445.725       -1905.740
  23336628.629    23336628.3714   23336629.9564  122634798.314 6  95559592.00142
     -3126.508       -2436.207
 06  5  8 13 53  0.0000000  0  9G 2G 4G 6G10G13G16G23G25G30
  20690279.155    20690279.1574   20690278.1924  108728149.488 8  84723249.97946
     -1198.474        -933.881
  22617924.002    22617924.4314   22617925.6994  118857989.555 7  92616626.85544
     -3240.977       -2525.424
  22080006.697    22080006.6144   22080008.2114  116031230.386 7  90413949.34044
      1825.364        1422.371
  22666410.484    22666409.9054   22666411.6954  119112793.038 6  92815178.79043
      3391.676        2642.900
  21613341.113    21613341.5114   21613341.6054  113578870.912 8  88503030.70545
       313.732         244.464
  24424368.448    24424367.3764   24424368.6374  128350950.246 5 100013719.07142
      3075.745        2396.630
  22547550.731    22547551.0404   22547549.5244  118488166.336 7  92328455.84944
     -2079.770       -1620.623
  24173876.788    24173874.7254   24173876.9724  127034564.718 6  98987985.62442
     -2457.909       -1915.286
  23354507.679    23354506.7204   23354509.8494  122728755.254 6  95632804.99842
     -3138.186       -2445.311
 06  5  8 13 53 30.0000000  0  9G 2G 4G 6G10G13G16G23G25G30
  20697175.885    20697175.7914   20697174.8424  108764391.866 8  84751490.82046
     -1218.611        -949.564
  22636450.913    22636451.0044   22636452.9334  118955348.655 7  92692490.88844
     -3250.599       -2532.930
  22069630.699    22069630.6164   22069632.0484  115976702.267 7  90371459.79344
      1809.046        1409.656
  22647076.251    22647076.1384   22647078.1154  119011192.397 6  92736009.51043
      3380.965        2634.531
  21611611.153    21611611.2394   21611611.6084  113569777.944 8  88495945.26745
       291.439         227.115
  24406835.863    24406835.9964   24406838.8754  128258822.925 5  99941931.55242
      3065.224        2388.472
  22559472.963    22559472.7644   22559471.2574  118550815.587 7  92377273.35044
     -2097.757       -1634.617
  24187940.264    24187941.4244   24187943.2384  127108482.341 6  99045583.75342
     -2470.617       -1925.141
  23372457.108    23372456.3114   23372458.1054  122823078.267 6  95706303.59042
     -3150.529       -2455.030
 06  5  8 13 54  0.0000000  0  9G 2G 4G 6G10G13G16G23G25G30
  20704187.174    20704186.8964   20704186.0504  108801235.603 8  84780200.21446
     -1238.218        -964.849
  22655034.094    22655034.3234   22655036.1504  119053003.262 7  92768585.03444
     -3260.162       -2540.385
  22059346.842    22059346.6484   22059348.0594  115922661.182 7  90329349.90844
      1793.092        1397.191
  22627804.328    22627804.0054   22627806.7074  118909920.206 6  92657096.30143
      3370.323        2626.229
  21610007.945    21610008.3384   21610008.4214  113561354.665 8  88489381.78045
       269.470         209.967
  24389366.030    24389366.0544   24389366.4384  128167014.800 6  99870392.83241
      3054.719        2380.278
  22571496.703    22571496.3714   22571495.2154  118614001.838 7  92426509.31944
     -2115.279       -1648.253
  24202079.698    24202079.2964   24202081.6574  127182779.632 6  99103477.71042
     -2483.106       -1934.935
  23390475.296    23390474.4934   23390475.7964  122917768.498 6  95780088.45942
     -3162.348       -2464.232
 06  5  8 13 54 30.0000000  0  9G 2G 4G 6G10G13G16G23G25G30
  20711310.583    20711310.6344   20711309.5994  108838670.307 8  84809370.07446
     -1257.712        -980.047
  22673671.623    22673671.7104   22673673.4844  119150942.208 6  92844900.88743
     -3269.462       -2547.613
  22049154.027    22049154.3604   22049155.8744  115869098.869 7  90287613.06444
      1777.369        1384.934
  22608594.742    22608594.3374   22608595.2814  118808968.996 6  92578433.04743
      3359.538        2617.796
  21608530.546    21608530.8604   21608530.9174  113553591.124 8  88483332.08445
       247.660         192.983
  24371956.663    24371954.7604   24371955.9224  128075519.109 6  99799097.66242
      3044.495        2372.356
  22583621.351    22583620.5614   22583619.1684  118677713.140 7  92476154.38544
     -2132.494       -1661.670
  24216287.606    24216288.9254   24216289.2294  127257444.954 6  99161658.52842
     -2495.169       -1944.322
  23408562.285    23408561.7124   23408562.9904  123012813.006 6  95854149.24042
     -3174.189       -2473.474
 06  5  8 13 55  0.0000000  0  9G 2G 4G 6G10G13G16G23G25G30
  20718547.402    20718547.2444   20718546.1544  108876697.986 8  84839001.80446
     -1277.893        -995.750
  22692363.051    22692363.2764   22692364.2664  119249167.918 7  92921440.83743
     -3279.395       -2555.360
  22039053.756    22039053.5814   22039055.4784  115816020.741 7  90246253.38344
      1760.738        1372.001
  22589446.487    22589444.9604   22589447.6704  118708344.868 6  92500024.69543
      3348.341        2609.088
  21607179.956    21607180.0714   21607180.4474  113546492.061 8  88477800.30745
       225.145         175.464
  24354604.120    24354604.0374   24354605.3004  127984341.641 6  99728050.42442
      3033.520        2363.813
  22595845.285    22595844.9114   22595843.3754  118741951.155 7  92526209.85144
     -2150.453       -1675.688
  24230566.724    24230566.6464   24230567.9764  127332479.433 6  99220126.90642
     -2507.651       -1953.979
  23426714.070    23426715.0934   23426717.3244  123108212.566 6  95928486.57942
     -3186.114       -2482.650
 06  5  8 13 55 30.0000000  0  9G 2G 4G 6G10G13G16G23G25G30
  20725895.981    20725895.7474   20725894.8854  108915315.060 8  84869092.97146
     -1296.856       -1010.549
  22711107.482    22711107.8424   22711109.6774  119347672.998 6  92998198.22844
     -3287.715       -2561.854
  22029044.681    22029045.0644   22029046.7354  115763425.872 7  90205270.50444
      1745.283        1359.944
  22570360.096    22570359.4964   22570362.4814  118608047.343 6  92421870.77243
      3338.118        2601.129
  21605954.755    21605955.0114   21605955.4344  113540054.197 8  88472783.71345
       203.857         158.838
  24337313.653    24337313.3564   24337314.3704  127893482.217 5  99657251.02642
      3023.789        2356.213
  22608168.039    22608167.8904   22608166.8594  118806711.666 7  92576672.94544
     -2166.985       -1688.572
  24244914.882    24244914.8424   24244916.5654  127407877.923 5  99278879.05642
     -2518.904       -1962.824
  23444935.336    23444936.0394   23444937.7414  123203960.869 6  96003095.56642
     -3197.053       -2491.269
 06  5  8 13 56  0.0000000  0  9G 2G 4G 6G10G13G16G23G25G30
  20733354.120    20733353.9194   20733352.7734  108954508.380 8  84899633.40446
     -1316.209       -1025.613
  22729902.613    22729903.0264   22729905.6934  119446443.663 7  93075162.36243
     -3296.814       -2568.910
  22019127.094    22019126.5744   22019128.4174  115711303.381 7  90164655.53644
      1729.354        1347.507
  22551334.117    22551333.1584   22551335.3694  118508067.544 6  92343964.58843
      3327.184        2592.604
  21604853.362    21604853.5654   21604854.2624  113534265.338 8  88468272.66445
       182.038         141.855
  24320083.266    24320081.8374   24320082.9314  127802931.503 6  99586692.18142
      3013.209        2347.934
  22620587.996    22620588.4514   22620586.6574  118871978.908 7  92627530.66244
     -2183.992       -1701.802
  24259327.710    24259328.9384   24259330.6554  127483625.820 6  99337903.37242
     -2530.738       -1971.961
  23463219.604    23463218.8514   23463220.9164  123300043.314 6  96077964.90842
     -3208.437       -2500.031
 06  5  8 13 56 30.0000000  0  9G 2G 4G 6G10G13G16G23G25G30
  20740922.460    20740922.3274   20740921.2394  108994281.190 8  84930625.28646
     -1335.826       -1040.893
  22748749.591    22748749.7574   22748751.9334  119545482.404 6  93152335.25243
     -3306.281       -2576.294
  22009298.841    22009299.0664   22009300.6774  115659660.077 7  90124414.07044
      1713.001        1334.819
  22532370.783    22532369.6554   22532372.6804  118408411.835 6  92266310.79143
      3315.879        2583.774
  21603876.577    21603876.8864   21603877.3004  113529131.388 8  88464272.16845
       159.835         124.554
  24302911.476    24302911.4524   24302913.6444  127712697.510 6  99516380.17542
      3002.028        2339.272
  22633104.902    22633104.8164   22633103.5344  118937755.832 7  92678785.46944
     -2201.463       -1715.410
  24273809.271    24273810.0424   24273812.5044  127559725.750 6  99397202.01142
     -2542.980       -1981.543
  23481566.877    23481567.8034   23481568.8034  123396461.755 6  96153096.09042
     -3220.065       -2509.079
 06  5  8 13 57  0.0000000  0  9G 2G 4G 6G10G13G16G23G25G30
  20748601.940    20748601.7364   20748600.7934  109034637.212 8  84962071.53246
     -1355.329       -1056.097
  22767647.951    22767647.9404   22767649.7404  119644792.763 6  93229719.91143
     -3315.254       -2583.342
  21999564.663    21999564.2934   21999566.1274  115608502.506 7  90084550.89144
      1696.719        1322.105
  22513469.504    22513469.4044   22513471.8924  118309088.475 6  92188915.95443
      3304.902        2575.244
  21603024.817    21603025.5364   21603025.6914  113524657.247 8  88460785.73745
       137.717         107.311
  24285802.579    24285802.1374   24285803.9384  127622787.860 5  99446320.93242
      2991.111        2330.735
  22645719.265    22645719.0954   22645717.7834  119004045.374 7  92730439.63544
     -2218.633       -1728.805
  24288359.158    24288359.4744   24288361.2084  127636180.477 6  99456777.11242
     -2554.724       -1990.711
  23499980.026    23499979.4454   23499983.4934  123493218.250 6  96228490.71742
     -3231.084       -2517.698
 06  5  8 13 57 30.0000000  0  9G 2G 4G 6G10G13G16G23G25G30
  20756391.641    20756391.3904   20756390.2744  109075571.450 8  84993968.35446
     -1374.113       -1070.749
  22786595.798    22786596.3054   22786597.6864  119744368.486 6  93307311.49443
     -3323.619       -2589.818
  21989921.371    21989921.0824   21989923.1664  115557828.830 7  90045064.97244
      1681.169        1309.997
  22494631.985    22494630.4074   22494633.4974  118210095.792 6  92111778.84743
      3294.265        2566.946
  21602298.837    21602299.1074   21602299.3194  113520838.720 8  88457810.17345
       116.355          90.651
  24268752.470    24268754.3814   24268756.2574  127533200.992 5  99376513.31342
      2980.904        2322.753
  22658429.930    22658429.7714   22658428.9844  119070841.017 7  92782488.09744
     -2234.925       -1741.519
  24302974.484    24302974.2304   24302976.5184  127712983.573 6  99516623.66442
     -2565.773       -1999.329
  23518455.072    23518455.4684   23518457.2404  123590305.790 5  96304143.23542
     -3241.623       -2525.949
 06  5  8 13 58  0.0000000  0  9G 2G 4G 6G10G13G16G23G25G30
  20764291.622    20764291.4144   20764290.3864  109117086.865 8  85026318.14446
     -1393.589       -1085.893
  22805595.289    22805595.5004   22805598.4204  119844210.808 7  93385110.58543
     -3332.497       -2596.754
  21980371.724    21980371.3594   21980373.1914  115507644.680 7  90005960.47244
      1664.342        1296.905
  22475858.065    22475858.0174   22475860.4904  118111440.554 6  92034904.55443
      3282.835        2558.064
  21601697.625    21601697.7634   21601698.2604  113517680.628 8  88455349.40745
        94.179          73.397
  24251768.935    24251768.4774   24251771.1284  127443943.675 5  99306962.41842
      2969.486        2313.925
  22671237.496    22671237.1744   22671236.0004  119138144.943 7  92834932.68644
     -2252.086       -1754.849
  24317655.661    24317656.0544   24317657.1154  127790137.105 5  99576743.29242
     -2577.823       -2008.680
  23536993.796    23536994.1544   23536995.8484  123687725.814 5  96380055.03942
     -3252.979       -2534.754
 06  5  8 13 58 30.0000000  0  9G 2G 4G 6G10G13G16G23G25G30
  20772301.428    20772301.4674   20772300.5174  109159179.793 8  85059117.83046
     -1412.873       -1100.929
  22824644.920    22824645.5304   22824647.5254  119944315.978 6  93463114.66543
     -3341.246       -2603.524
  21970915.053    21970914.5824   21970916.5264  115457949.426 7  89967236.86344
      1648.330        1284.434
  22457149.016    22457147.8854   22457150.9164  118013123.504 6  91958294.16443
      3271.525        2549.200
  21601221.678    21601222.0224   21601222.6934  113515180.552 8  88453401.23645
        72.261          56.312
  24234845.779    24234845.1184   24234848.9384  127355016.168 5  99237668.49742
      2958.726        2305.514
  22684141.080    22684141.2804   22684139.6264  119205952.879 7  92887769.99144
     -2268.675       -1767.802
  24332403.288    24332402.7054   24332406.9164  127867636.273 6  99637132.26942
     -2589.033       -2017.404
  23555593.502    23555594.7134   23555596.4954  123785472.898 6  96456221.57742
     -3263.729       -2543.193
 06  5  8 13 59  0.0000000  0  9G 2G 4G 6G10G13G16G23G25G30
  20780420.955    20780420.9894   20780419.9564  109201848.117 8  85092365.85446
     -1432.604       -1116.318
  22843743.886    22843743.9294   22843745.6214  120044680.459 7  93541320.70543
     -3350.513       -2610.815
  21961551.246    21961550.9844   21961553.3044  115408743.573 7  89928894.52744
      1631.349        1271.172
  22438504.674    22438504.1944   22438506.2864  117915145.284 6  91881947.63243
      3259.443        2539.833
  21600871.154    21600871.3924   21600871.8684  113513337.500 8  88451965.07945
        49.789          38.787
  24217987.168    24217986.5804   24217988.8984  127266420.259 6  99168632.73842
      2947.086        2296.488
  22697139.661    22697139.4984   22697138.6604  119274261.359 7  92940997.39644
     -2285.903       -1781.245
  24347216.684    24347217.5094   24347218.1564  127945478.008 6  99697788.16542
     -2601.033       -2026.803
  23574256.105    23574257.6054   23574257.7344  123883542.549 5  96532639.24442
     -3275.035       -2551.960
 06  5  8 13 59 30.0000000  0  9G 2G 4G 6G10G13G16G23G25G30
  20788650.727    20788650.5644   20788649.4614  109245094.728 8  85126064.49846
     -1451.279       -1130.865
  22862892.454    22862892.5524   22862893.5404  120145305.421 6  93619729.46643
     -3358.501       -2616.989
  21952281.966    21952282.3284   21952284.0284  115360033.078 7  89890938.27844
      1615.357        1258.720
  22419926.352    22419925.1964   22419926.3624  117817512.482 6  91805870.08243
      3248.648        2531.435
  21600646.546    21600646.6304   21600646.8194  113512155.790 8  88451044.35745
        28.271          22.032
  24201192.261    24201191.9614   24201193.8074  127178162.978 5  99099860.93742
      2936.222        2287.958
  22710234.245    22710233.4734   22710232.8724  119343071.981 7  92994616.03944
     -2302.125       -1793.860
  24362094.883    24362095.1704   24362097.1724  128023663.837 6  99758712.22542
     -2611.921       -2035.293
  23592980.115    23592979.9884   23592982.5974  123981936.584 5  96609309.78642
     -3285.091       -2559.743
 06  5  8 14  0  0.0000000  0  9G 2G 4G 6G10G13G16G23G25G30
  20796989.858    20796989.6744   20796988.6254  109288917.475 8  85160212.05446
     -1470.533       -1145.882
  22882089.695    22882089.8264   22882092.2984  120246189.391 6  93698340.39043
     -3367.302       -2623.878
  21943107.369    21943107.3554   21943109.0664  115311818.977 7  89853368.85244
      1598.871        1245.862
  22401413.512    22401412.4714   22401414.0064  117720227.341 6  91730063.46343
      3236.840        2522.211
  21600547.267    21600547.2064   21600547.5774  113511634.604 8  88450638.35445
         6.195           4.813
  24184463.138    24184462.3134   24184462.2164  127090246.205 6  99031354.50542
      2924.818        2279.044
  22723423.521    22723423.1234   22723422.3434  119412382.304 7  93048624.13444
     -2318.791       -1806.842
  24377037.184    24377037.7814   24377038.8834  128102190.886 6  99819902.22042
     -2623.237       -2044.086
  23611764.888    23611764.5184   23611765.9434  124080651.218 5  96686230.34342
     -3295.907       -2568.294
 06  5  8 14  0 30.0000000  0  9G 2G 4G 6G10G13G16G23G25G30
  20805436.343    20805436.3264   20805435.3914  109333304.536 8  85194799.41046
     -1489.430       -1160.588
  22901334.514    22901334.3784   22901336.1744  120347318.889 6  93777142.66743
     -3375.633       -2630.333
  21934025.092    21934025.2644   21934027.5194  115264092.160 7  89816179.10844
      1582.239        1232.918
  22382965.475    22382964.3864   22382966.0304  117623281.516 6  91654521.26743
      3225.443        2513.400
  21600571.576    21600571.7344   21600572.4004  113511762.175 8  88450737.44745
       -15.653         -12.201
  24167797.619    24167794.6174   24167796.9704  127002662.201 6  98963107.26042
      2913.257        2270.136
  22736704.834    22736705.0194   22736703.7604  119482178.975 7  93103011.17144
     -2335.216       -1819.653
  24392044.003    24392044.2844   24392045.5894  128181046.011 6  99881347.80542
     -2634.598       -2052.940
  23630608.026    23630607.8244   23630610.5284  124179672.633 5  96763389.70941
     -3306.360       -2576.355
 06  5  8 14  1  0.0000000  0  9G 2G 4G 6G10G13G16G23G25G30
  20813990.831    20813990.7264   20813990.0404  109378258.940 8  85229828.82546
     -1508.526       -1175.496
  22920624.888    22920626.0974   22920627.6194  120448696.046 6  93856137.91243
     -3383.879       -2636.806
  21925036.570    21925037.0874   21925038.7574  115216858.835 7  89779373.97544
      1565.541        1219.868
  22364582.477    22364581.6204   22364584.4484  117526681.894 6  91579248.68643
      3213.529        2504.018
  21600719.750    21600720.6254   21600720.9224  113512544.890 8  88451347.42445
       -37.486         -29.208
  24151192.991    24151192.6404   24151194.7184  126915417.784 6  98895124.55242
      2901.930        2261.246
  22750080.034    22750080.1494   22750078.5844  119552464.137 7  93157778.87444
     -2351.482       -1832.338
  24407111.998    24407113.2404   24407114.6014  128260231.314 6  99943050.69242
     -2645.612       -2061.530
  23649509.822    23649510.3284   23649512.4114  124279002.364 5  96840789.46142
     -3316.698       -2584.421
 06  5  8 14  1 30.0000000  0  9G 2G 4G 6G10G13G16G23G25G30
  20822654.615    20822654.5154   20822653.5154  109423786.994 8  85265305.18146
     -1527.683       -1190.404
  22939965.425    22939965.3444   22939967.1454  120550326.199 6  93935330.18143
     -3392.496       -2643.508
  21916144.375    21916144.6584   21916146.4894  115170128.175 7  89742960.51844
      1548.756        1206.808
  22346267.863    22346267.5474   22346269.4364  117430439.090 6  91504254.29843
      3201.509        2494.693
  21600996.209    21600995.6684   21600995.9024  113513989.653 8  88452473.27345
       -59.729         -46.538
  24134658.451    24134657.6094   24134659.2704  126828523.590 6  98827414.82742
      2889.962        2251.904
  22763549.311    22763548.6384   22763547.0224  119623242.987 7  93212931.21344
     -2368.036       -1845.228
  24422243.773    24422245.0064   24422245.6804  128339752.234 6 100005015.03142
     -2656.790       -2070.232
  23668470.707    23668470.6944   23668474.6574  124378645.158 5  96918433.16541
     -3327.179       -2592.617
 06  5  8 14  2  0.0000000  0  9G 2G 4G 6G10G13G16G23G25G30
  20831427.695    20831427.7174   20831426.9264  109469890.151 8  85301229.57146
     -1546.274       -1204.888
  22959353.229    22959353.7294   22959356.4554  120652210.322 6  94014720.39943
     -3400.218       -2649.476
  21907347.976    21907348.5704   21907350.1934  115123904.505 7  89706942.05944
      1532.468        1194.123
  22328023.083    22328022.1694   22328024.6884  117334557.683 6  91429541.28043
      3190.225        2485.883
  21601396.437    21601396.9084   21601397.5164  113516098.979 8  88454116.83945
       -81.322         -63.362
  24118189.455    24118189.1224   24118191.2074  126741985.294 6  98759982.44342
      2878.792        2243.214
  22777111.751    22777111.4704   22777110.6374  119694516.423 7  93268468.97344
     -2383.906       -1857.593
  24437441.382    24437440.2444   24437442.3204  128419609.202 6 100067241.26642
     -2667.188       -2078.331
  23687491.945    23687492.4914   23687493.2014  124478601.433 5  96996321.27641
     -3336.764       -2600.038
 06  5  8 14  2 30.0000000  0  9G 2G 4G 6G10G13G16G23G25G30
  20840308.053    20840307.9914   20840306.9734  109516555.416 8  85337591.99946
     -1565.423       -1219.803
  22978787.042    22978787.5544   22978789.2494  120754334.309 6  94094297.39043
     -3408.863       -2656.217
  21898646.605    21898646.8024   21898648.6814  115078177.883 7  89671310.95444
      1515.178        1180.676
  22309844.679    22309844.1404   22309846.2514  117239029.225 6  91355103.45343
      3177.510        2475.983
  21601922.029    21601922.2964   21601922.6854  113518861.493 7  88456269.58245
      -103.568         -80.704
  24101788.310    24101787.5884   24101790.0814  126655793.844 6  98692820.32842
      2866.397        2233.577
  22790766.265    22790765.6884   22790764.8204  119766270.111 7  93324380.88544
     -2400.458       -1870.491
  24452697.970    24452698.9944   24452700.2194  128499788.126 6 100129718.31642
     -2678.875       -2087.428
  23706568.934    23706570.9714   23706571.6364  124578855.421 5  97074441.20341
     -3347.633       -2608.502
 06  5  8 14  3  0.0000000  0  9G 2G 4G 6G10G13G16G23G25G30
  20849296.167    20849296.3854   20849295.5104  109563789.715 8  85374397.91446
     -1584.345       -1234.560
  22998267.454    22998267.3084   22998270.2364  120856704.346 6  94174066.23143
     -3416.771       -2662.424
  21890041.430    21890041.7924   21890043.7884  115032957.910 7  89636074.63944
      1498.543        1167.679
  22291735.414    22291734.0234   22291736.8094  117143864.181 6  91280948.91543
      3165.806        2466.889
  21602573.554    21602573.7394   21602574.1924  113522284.893 8  88458937.33145
      -125.540         -97.827
  24085456.009    24085453.7254   24085456.3694  126569959.916 6  98625936.87742
      2854.730        2224.451
  22804513.275    22804512.9514   22804511.7404  119838509.969 7  93380671.72744
     -2416.493       -1882.984
  24468018.735    24468017.7524   24468019.9814  128580294.745 6 100192450.67442
     -2689.326       -2095.583
  23725704.758    23725705.4284   23725706.5894  124679412.588 5  97152797.25841
     -3357.118       -2615.985
 06  5  8 14  3 30.0000000  0  9G 2G 4G 6G10G13G16G23G25G30
  20858392.881    20858392.6404   20858392.0544  109611590.865 8  85411645.37646
     -1603.412       -1249.385
  23017793.340    23017793.4474   23017795.8614  120959317.978 6  94254024.82743
     -3425.042       -2668.838
  21881533.122    21881533.1704   21881535.3274  114988246.189 7  89601234.36644
      1481.310        1154.301
  22273694.682    22273694.6234   22273697.0294  117049065.012 6  91207079.48843
      3153.184        2457.019
  21603350.719    21603351.0084   21603351.5504  113526368.331 8  88462119.02545
      -147.716        -115.061
  24069189.497    24069189.7244   24069191.2474  126484486.046 6  98559333.91742
      2842.371        2214.847
  22818351.670    22818351.1194   22818350.4634  119911233.420 7  93437339.35444
     -2432.846       -1895.678
  24483398.814    24483400.3714   24483402.5594  128661126.705 5 100255436.51642
     -2700.503       -2104.268
  23744897.137    23744898.2154   23744899.9964  124780270.523 5  97231387.90341
     -3367.591       -2624.035
 06  5  8 14  4  0.0000000  0  9G 2G 4G 6G10G13G16G23G25G30
  20867595.347    20867595.1994   20867594.2984  109659949.919 8  85449327.74246
     -1622.000       -1263.911
  23037364.507    23037364.8304   23037367.0724  121062163.959 6  94334164.38543
     -3432.604       -2674.767
  21873120.185    21873120.5774   21873122.3784  114944035.435 7  89566784.45944
      1464.578        1141.220
  22255723.988    22255723.1724   22255725.8984  116954625.243 6  91133490.16043
      3141.432        2447.867
  21604252.271    21604252.0534   21604252.4694  113531103.692 8  88465808.96745
      -169.465        -132.068
  24052992.148    24052992.2964   24052993.0204  126399366.103 6  98493006.76442
      2830.704        2205.692
  22832280.710    22832280.3644   22832279.2044  119984429.096 7  93494374.78844
     -2448.416       -1907.856
  24498841.731    24498842.8094   24498844.6234  128742272.811 6 100318667.17042
     -2710.653       -2112.273
  23764145.319    23764145.9254   23764148.4444  124881416.949 5  97310203.32441
     -3376.875       -2631.322
 06  5  8 14  4 30.0000000  0  9G 2G 4G 6G10G13G16G23G25G30
  20876905.299    20876905.3784   20876904.6254  109708875.243 8  85487451.37746
     -1640.718       -1278.451
  23056981.932    23056982.1064   23056984.0494  121165251.110 6  94414491.92343
     -3440.539       -2680.924
  21864804.540    21864804.8184   21864806.5194  114900337.847 7  89532734.42244
      1447.592        1128.002
  22237823.488    22237822.8904   22237824.7914  116860557.790 6  91060190.80843
      3128.892        2438.091
  21605278.876    21605279.3914   21605279.7074  113536501.082 8  88470014.62745
      -191.312        -149.037
  24036864.554    24036863.6084   24036865.1224  126314613.496 6  98426965.86142
      2818.622        2196.331
  22846300.587    22846300.4454   22846299.7444  120058105.532 7  93551784.88044
     -2464.276       -1920.201
  24514344.874    24514344.4304   24514346.8264  128823741.371 5 100382149.09442
     -2721.354       -2120.520
  23783448.959    23783450.4084   23783451.5084  124982859.578 5  97389249.61541
     -3386.704       -2639.029
 06  5  8 14  5  0.0000000  0  9G 2G 4G 6G10G13G16G23G25G30
  20886323.065    20886323.0414   20886322.4224  109758365.501 8  85526015.16146
     -1659.532       -1293.147
  23076644.464    23076644.5354   23076647.2994  121268577.199 6  94495005.60643
     -3448.554       -2687.196
  21856587.443    21856587.3724   21856589.1844  114857155.090 7  89499085.57544
      1430.326        1114.541
  22219994.512    22219994.3774   22219995.7274  116766865.572 6  90987183.93643
      3116.324        2428.316
  21606432.460    21606432.8214   21606433.1524  113542559.085 8  88474734.39245
      -213.470        -166.337
  24020804.639    24020806.0234   24020807.2744  126230230.879 5  98361213.24642
      2805.986        2186.483
  22860413.155    22860411.6664   22860410.7514  120132260.589 6  93609567.98144
     -2480.390       -1932.760
  24529910.072    24529909.9464   24529909.6154  128905530.038 6 100445880.42742
     -2732.123       -2128.973
  23802809.442    23802809.3244   23802809.5674  125084595.309 5  97468524.07041
     -3396.589       -2646.688
 06  5  8 14  5 30.0000000  0  9G 2G 4G 6G10G13G16G23G25G30
  20895846.576    20895846.6274   20895845.9324  109808411.346 8  85565011.73046
     -1677.826       -1307.387
  23096350.692    23096350.4994   23096352.7604  121372132.918 6  94575698.49843
     -3456.018       -2692.977
  21848466.672    21848466.6434   21848468.3354  114814480.885 7  89465833.03044
      1413.531        1101.457
  22202236.046    22202234.8164   22202237.2674  116673543.169 7  90914465.17943
      3104.135        2418.844
  21607709.773    21607710.1184   21607710.5114  113549273.060 8  88479966.35445
      -235.083        -183.168
  24004819.300    24004817.0214   24004819.4314  126146213.765 6  98295745.46542
      2794.115        2177.236
  22874612.344    22874612.2804   22874610.9944  120206884.612 7  93667716.79744
     -2495.608       -1944.623
  24545530.231    24545531.3744   24545532.8294  128987628.795 6 100509853.41442
     -2742.052       -2136.618
  23822222.747    23822222.4954   23822223.5234  125186613.742 5  97548018.98641
     -3405.670       -2653.846
 06  5  8 14  6  0.0000000  0  9G 2G 4G 6G10G13G16G23G25G30
  20905476.078    20905476.1954   20905475.2794  109859014.790 8  85604442.95146
     -1696.857       -1322.212
  23116099.938    23116099.8524   23116102.6314  121475918.182 6  94656570.11243
     -3464.018       -2699.283
  21840443.895    21840443.7604   21840445.4314  114772319.547 7  89432980.03444
      1395.938        1087.783
  22184548.587    22184548.0634   22184550.2644  116580596.231 6  90842039.10043
      3091.206        2408.752
  21609112.076    21609112.3754   21609113.0644  113556643.110 8  88485709.22745
      -257.400        -200.547
  23988901.154    23988900.9904   23988901.8614  126062566.802 6  98230566.03842
      2781.158        2167.159
  22888902.221    22888901.3914   22888901.2924  120281977.324 7  93726230.76344
     -2511.741       -1957.185
  24561212.995    24561213.0574   24561215.6464  129070038.065 6 100574068.33342
     -2753.066       -2145.211
  23841689.326    23841690.5354   23841692.9664  125288914.854 5  97627734.16941
     -3415.467       -2661.402
 06  5  8 14  6 30.0000000  0  9G 2G 4G 6G10G13G16G23G25G30
  20915212.989    20915212.9554   20915212.2634  109910182.128 8  85644313.55946
     -1715.021       -1336.385
  23135893.848    23135894.4354   23135896.6304  121579939.217 6  94737625.43243
     -3471.383       -2704.968
  21832520.489    21832519.9364   21832521.7864  114730680.769 7  89400534.26044
      1379.371        1074.828
  22166935.595    22166934.9024   22166936.3904  116488034.841 7  90769913.29043
      3078.917        2399.159
  21610641.131    21610641.4504   21610641.9054  113564677.921 8  88491970.20145
      -278.843        -217.291
  23973055.122    23973055.4734   23973057.1714  125979301.034 6  98165683.56142
      2769.222        2157.851
  22903281.790    22903281.4134   22903280.4124  120357544.116 7  93785113.92844
     -2526.738       -1968.880
  24576954.684    24576955.9674   24576959.4584  129152763.653 5 100638529.73442
     -2762.544       -2152.643
  23861211.907    23861211.1944   23861214.2074  125391503.587 5  97707673.44441
     -3424.290       -2668.344
 06  5  8 14  7  0.0000000  0  9G 2G 4G 6G10G13G16G23G25G30
  20925055.074    20925054.8794   20925054.1544  109961900.942 8  85684613.87446
     -1733.284       -1350.601
  23155731.921    23155731.8854   23155733.9034  121684182.890 6  94818854.18243
     -3478.728       -2710.693
  21824693.906    21824694.3454   21824696.1234  114689555.419 7  89368488.59844
      1362.185        1061.443
  22149392.870    22149391.6004   22149394.4604  116395851.024 7  90698081.84343
      3066.319        2389.341
  21612294.668    21612294.8794   21612295.2404  113573365.560 8  88498739.56845
      -300.627        -234.252
  23957280.121    23957281.1674   23957282.8924  125896408.677 6  98101092.18242
      2756.568        2147.984
  22917749.348    22917748.8974   22917748.0904  120433571.994 7  93844356.33644
     -2542.108       -1980.866
  24592755.095    24592755.5584   24592756.0024  129235792.279 6 100703227.19642
     -2772.730       -2160.538
  23880785.996    23880785.9804   23880788.6414  125494366.713 5  97787826.79441
     -3433.584       -2675.592
 06  5  8 14  7 30.0000000  0  9G 2G 4G 6G10G13G16G23G25G30
  20935002.381    20935002.3474   20935001.5564  110014174.579 8  85725346.50446
     -1752.375       -1365.478
  23175610.960    23175611.7914   23175613.2674  121788652.030 6  94900258.62243
     -3486.929       -2717.087
  21816967.115    21816967.3864   21816968.4094  114648949.374 7  89336847.58344
      1344.182        1047.401
  22131924.365    22131923.7494   22131925.6254  116304052.047 7  90626550.23043
      3052.837        2378.840
  21614072.922    21614072.9864   21614073.6664  113582711.899 8  88506022.70045
      -323.271        -251.911
  23941578.447    23941580.2694   23941581.6764  125813896.671 6  98036797.17742
      2743.267        2137.644
  22932305.170    22932304.5774   22932303.7574  120510063.399 7  93903959.95544
     -2558.245       -1993.429
  24608613.254    24608614.5174   24608616.4824  129319126.337 5 100768162.72242
     -2783.668       -2169.081
  23900412.007    23900413.5014   23900412.9974  125597505.083 5  97868194.39141
     -3443.233       -2683.112
 06  5  8 14  8  0.0000000  0  9G 2G 4G 6G10G13G16G23G25G30
  20945056.289    20945056.0444   20945055.3814  110067007.231 8  85766514.81646
     -1771.032       -1380.036
  23195534.920    23195535.0434   23195536.2754  121893349.963 6  94981841.42643
     -3494.281       -2722.834
  21809340.043    21809340.3824   21809341.9024  114608869.702 7  89305616.69644
      1326.460        1033.596
  22114529.845    22114528.8664   22114531.6914  116212645.710 7  90555324.52743
      3039.637        2368.529
  21615977.676    21615977.9394   21615978.3334  113592719.622 8  88513820.45845
      -345.286        -269.056
  23925953.775    23925952.8554   23925954.6544  125731773.851 6  97972805.52642
      2730.311        2127.483
  22946949.558    22946949.5994   22946948.8774  120587021.595 7  93963927.27544
     -2573.661       -2005.449
  24624529.155    24624530.2854   24624532.4154  129402769.023 5 100833338.77242
     -2793.891       -2177.087
  23920092.660    23920092.9554   23920092.9214  125700921.487 5  97948778.62641
     -3452.499       -2690.241
 06  5  8 14  8 30.0000000  0  9G 2G 4G 6G10G13G16G23G25G30
  20955214.153    20955214.2454   20955213.5494  110120388.753 8  85808110.74146
     -1788.988       -1394.023
  23215500.061    23215499.9754   23215501.6554  121998266.487 6  95063594.60743
     -3501.394       -2728.413
  21801812.102    21801812.2274   21801813.7624  114569309.911 7  89274790.95044
      1309.555        1020.442
  22097209.819    22097209.1564   22097210.7704  116121626.227 7  90484400.17643
      3027.033        2358.710
  21618006.595    21618006.9604   21618007.4114  113603383.250 8  88522130.15545
      -366.755        -285.779
  23910398.768    23910397.8124   23910399.9624  125650034.080 6  97909112.28542
      2717.872        2117.836
  22961681.025    22961681.0954   22961680.4584  120664436.354 7  94024250.54544
     -2588.475       -2017.004
  24640503.199    24640503.3774   24640505.3634  129486709.861 5 100898747.14842
     -2803.530       -2184.583
  23939822.928    23939823.3594   23939825.4844  125804604.930 6  98029570.84241
     -3461.170       -2697.054
 06  5  8 14  9  0.0000000  0  9G 2G 4G 6G10G13G16G23G25G30
  20965478.546    20965478.4234   20965477.8934  110174327.973 8  85850141.20346
     -1807.702       -1408.587
  23235507.417    23235508.2704   23235510.1204  122103409.305 6  95145524.03343
     -3508.985       -2734.260
  21794385.205    21794385.0144   21794386.7194  114530281.344 7  89244379.14444
      1291.493        1006.348
  22079964.874    22079964.4064   22079966.8684  116031006.209 7  90413787.04243
      3013.549        2348.227
  21620162.150    21620162.4484   21620162.8424  113614710.204 8  88530956.21345
      -389.113        -303.184
  23894917.976    23894918.7974   23894919.3834  125568690.179 6  97845727.41342
      2704.089        2107.079
  22976500.427    22976500.8524   22976499.6824  120742314.628 7  94084935.01744
     -2604.264       -2029.288
  24656535.252    24656535.1154   24656538.3774  129570956.423 5 100964393.70742
     -2814.013       -2192.727
  23959606.150    23959605.3514   23959605.9644  125908562.343 5  98110576.49441
     -3470.467       -2704.252
 06  5  8 14  9 30.0000000  0  9G 2G 4G 6G10G13G16G23G25G30
  20975848.663    20975848.6744   20975847.9194  110228823.519 8  85892605.38946
     -1825.835       -1422.754
  23255558.121    23255558.2734   23255560.4394  122208776.088 6  95227627.98643
     -3516.062       -2739.844
  21787059.485    21787059.5334   21787061.2484  114491785.109 7  89214382.08044
      1274.245         992.908
  22062797.663    22062796.3414   22062798.8944  115940787.976 7  90343487.09543
      3000.403        2337.932
  21622443.995    21622444.3904   21622444.6254  113626700.449 8  88540299.14445
      -410.638        -319.934
  23879515.788    23879515.3754   23879517.5114  125487744.618 6  97782652.95642
      2691.442        2097.212
  22991409.292    22991408.4464   22991407.2804  120820653.627 7  94145978.37044
     -2619.013       -2040.796
  24672625.329    24672625.5064   24672627.2844  129655505.916 6 101030276.22141
     -2823.536       -2200.155
  23979439.349    23979440.0584   23979441.8314  126012790.825 5  98191793.29641
     -3478.885       -2710.804
 06  5  8 14 10  0.0000000  0  9G 2G 4G 6G10G13G16G23G25G30
  20986321.241    20986320.9714   20986320.3944  110283857.173 8  85935489.00146
     -1843.956       -1436.869
  23275648.064    23275648.4594   23275649.9174  122314348.346 6  95309892.04943
     -3523.136       -2745.302
  21779832.708    21779832.5554   21779833.9714  114453806.399 7  89184788.32144
      1256.836         979.330
  22045702.927    22045701.9764   22045704.2794  115850957.768 7  90273489.60144
      2987.267        2327.738
  21624848.874    21624849.0504   21624849.7844  113639336.713 8  88550145.21845
      -432.552        -337.083
  23864185.047    23864185.0514   23864186.3224  125407183.837 6  97719878.34342
      2678.290        2087.032
  23006400.671    23006400.0674   23006399.0084  120899434.955 7  94207366.44444
     -2633.948       -2052.440
  24688769.183    24688768.8014   24688771.5634  129740340.022 5 101096380.61541
     -2833.164       -2207.603
  23999320.517    23999321.4714   23999323.1324  126117270.928 5  98273206.23641
     -3487.547       -2717.516
 06  5  8 14 10 30.0000000  0  9G 2G 4G 6G10G13G16G23G25G30
  20996897.163    20996896.9204   20996896.0994  110339434.389 8  85978796.04046
     -1861.909       -1450.840
  23295778.362    23295778.5204   23295780.4014  122420131.404 6  95392320.34143
     -3529.912       -2750.574
  21772705.197    21772705.4954   21772707.1804  114416354.036 7  89155604.68144
      1239.262         965.664
  22028684.923    22028684.1204   22028685.6404  115761525.427 7  90203802.12743
      2974.056        2317.464
  21627377.817    21627378.1444   21627378.7414  113652627.425 8  88560501.73745
      -454.080        -353.797
  23848928.521    23848929.8524   23848931.1454  125327017.772 6  97657411.31042
      2665.186        2076.769
  23021476.363    23021476.4444   23021475.3864  120978663.856 6  94269103.38144
     -2648.686       -2063.893
  24704964.925    24704968.3344   24704968.9654  129825463.733 5 101162710.79441
     -2842.775       -2215.146
  24019251.807    24019251.5464   24019254.0954  126222007.341 5  98354818.85141
     -3496.020       -2724.136
 06  5  8 14 11  0.0000000  0  9G 2G 4G 6G10G13G16G23G25G30
  21007575.714    21007575.2544   21007574.3474  110395549.826 8  86022522.42146
     -1879.869       -1464.838
  23315947.084    23315947.1164   23315949.0554  122526119.404 6  95474908.34143
     -3536.669       -2755.861
  21765678.318    21765678.2984   21765679.9904  114379425.725 7  89126829.39944
      1221.693         951.982
  22011741.515    22011741.2784   22011743.5254  115672489.541 7  90134423.40444
      2960.855        2307.177
  21630030.467    21630030.6114   21630031.3964  113666567.096 8  88571363.73745
      -475.966        -370.889
  23833748.023    23833748.6024   23833751.0144  125247245.372 6  97595251.08142
      2652.062        2066.556
  23036637.770    23036636.7784   23036635.7374  121058333.364 6  94331183.55344
     -2663.376       -2075.363
  24721218.744    24721218.7774   24721221.0274  129910870.791 5 101229261.76941
     -2852.129       -2222.398
  24039229.062    24039229.8364   24039231.2934  126326993.333 5  98436625.93541
     -3504.000       -2730.365
 06  5  8 14 11 30.0000000  0  9G 2G 4G 6G10G13G16G23G25G30
  21018357.445    21018357.3694   21018356.3934  110452209.246 8  86066672.48646
     -1897.788       -1478.798
  23336156.173    23336155.8814   23336156.7334  122632317.658 6  95557660.18343
     -3543.619       -2761.271
  21758752.201    21758752.1834   21758753.9044  114343030.196 7  89098469.27944
      1204.308         938.424
  21994876.161    21994875.4574   21994877.9054  115583860.107 7  90065361.49844
      2947.555        2296.821
  21632808.195    21632808.1094   21632808.7874  113681163.765 8  88582738.20945
      -497.577        -387.729
  23818647.936    23818647.0794   23818646.5204  125167876.139 6  97533404.79942
      2638.870        2056.277
  23051882.377    23051882.4924   23051881.0894  121138448.763 7  94393611.17144
     -2678.073       -2086.822
  24737526.855    24737526.0804   24737527.4564  129996566.195 5 101296037.39241
     -2861.190       -2229.502
  24059256.460    24059255.8584   24059259.1224  126432234.023 5  98518631.91241
     -3512.097       -2736.750
 06  5  8 14 12  0.0000000  0  9G 2G 4G 6G10G13G16G23G25G30
  21029245.045    21029244.8584   21029244.1684  110509424.332 8  86111255.65546
     -1916.346       -1493.265
  23356406.807    23356407.4014   23356408.8924  122738736.709 6  95640584.04143
     -3550.796       -2766.847
  21751930.902    21751930.3224   21751931.9004  114307181.575 7  89070535.34444
      1185.912         924.091
  21978090.667    21978090.4524   21978092.3254  115495652.086 7  89996627.92844
      2933.367        2285.747
  21635712.579    21635712.9204   21635713.0044  113696428.697 8  88594633.29345
      -519.915        -405.129
  23803624.229    23803622.5784   23803623.5224  125088926.302 6  97471885.47542
      2624.762        2045.312
  23067215.015    23067215.0904   23067213.5414  121219019.818 6  94456393.68844
     -2693.186       -2098.603
  24753891.238    24753891.3904   24753892.6944  130082560.145 5 101363045.60441
     -2871.243       -2237.348
  24079331.908    24079334.1374   24079333.6944  126537738.725 5  98600843.72241
     -3520.764       -2743.473
 06  5  8 14 12 30.0000000  0  9G 2G 4G 6G10G13G16G23G25G30
  21040234.973    21040234.8494   21040234.0994  110567176.013 8  86156256.93446
     -1934.446       -1507.364
  23376696.192    23376696.6784   23376698.1164  122845357.768 6  95723665.34942
     -3558.104       -2772.528
  21745209.861    21745209.9054   21745211.6374  114271864.269 7  89043015.42244
      1167.971         910.129
  21961382.847    21961381.9874   21961384.1234  115407851.207 7  89928211.64644
      2919.330        2274.807
  21638740.596    21638741.0724   21638741.5654  113712343.883 8  88607034.88145
      -541.763        -422.157
  23788676.542    23788675.0924   23788677.2044  125010381.235 6  97410681.59942
      2610.757        2034.399
  23082629.773    23082630.2804   23082629.1964  121300027.878 7  94519516.83244
     -2708.018       -2110.143
  24770308.476    24770307.4434   24770310.2974  130168833.411 5 101430271.46941
     -2881.093       -2245.018
  24099456.518    24099457.6984   24099459.7544  126643486.789 5  98683244.97641
     -3529.703       -2750.414
 06  5  8 14 13  0.0000000  0  9G 2G 4G 6G10G13G16G23G25G30
  21051328.704    21051328.6424   21051328.0334  110625474.274 8  86201684.11346
     -1952.511       -1521.428
  23397025.963    23397025.4764   23397026.7344  122952189.710 6  95806910.98842
     -3564.661       -2777.635
  21738592.595    21738592.2914   21738594.5374  114237090.760 7  89015919.25444
      1149.817         895.977
  21944755.268    21944754.3604   21944756.7504  115320470.905 7  89860123.05644
      2905.426        2263.983
  21641895.114    21641895.5844   21641895.7314  113728920.434 8  88619951.69645
      -563.732        -439.270
  23773808.434    23773808.7304   23773809.5704  124932254.608 6  97349803.74242
      2597.015        2023.678
  23098130.411    23098130.4414   23098128.9524  121381481.168 7  94582986.78744
     -2722.669       -2121.548
  24786780.007    24786779.1474   24786783.1254  130255395.004 5 101497722.04141
     -2890.401       -2252.246
  24119628.335    24119628.6234   24119628.9324  126749486.630 5  98765842.14141
     -3537.742       -2756.720
 06  5  8 14 13 30.0000000  0  9G 2G 4G 6G10G13G16G23G25G30
  21062523.694    21062523.8194   21062522.9714  110684305.188 8  86247526.42546
     -1970.534       -1535.467
  23417391.526    23417392.0324   23417394.4304  123059218.080 6  95890309.65642
     -3571.529       -2783.012
  21732076.825    21732076.8304   21732078.3384  114202850.136 7  88989238.30744
      1131.870         881.966
  21928205.068    21928204.4344   21928206.4104  115233501.306 7  89792354.46844
      2891.493        2253.090
  21645173.132    21645173.5334   21645173.9874  113746145.333 8  88633373.49045
      -585.640        -456.363
  23759022.378    23759019.9694   23759020.3224  124854536.789 6  97289244.42742
      2583.100        2012.794
  23113712.606    23113712.8414   23113711.4964  121463365.240 7  94646792.48444
     -2737.109       -2132.804
  24803305.047    24803305.1794   24803307.0954  130342229.877 5 101565385.49341
     -2899.477       -2259.298
  24139843.180    24139844.4504   24139846.6974  126855723.222 5  98848623.72141
     -3545.658       -2762.873
 06  5  8 14 14  0.0000000  0  9G 2G 4G 6G10G13G16G23G25G30
  21073820.988    21073820.6554   21073819.6694  110743670.745 8  86293785.30746
     -1988.099       -1549.191
  23437797.226    23437796.7054   23437800.4604  123166444.855 6  95973862.88542
     -3577.689       -2787.820
  21725663.927    21725663.2864   21725664.9504  114169147.699 7  88962976.71344
      1114.108         868.121
  21911735.247    21911734.1484   21911736.0374  115146949.311 7  89724911.53744
      2877.783        2242.403
  21648574.987    21648575.4374   21648575.6514  113764023.129 8  88647304.54345
      -607.034        -473.048
  23744308.734    23744309.9794   23744310.5814  124777234.161 6  97229008.61242
      2569.598        2002.324
  23129376.781    23129376.4354   23129375.6024  121545681.506 7  94710934.98143
     -2751.253       -2143.854
  24819881.647    24819880.7914   24819882.7454  130429339.861 5 101633263.30341
     -2908.460       -2266.340
  24160104.728    24160106.3704   24160108.1934  126962197.754 5  98931590.64641
     -3553.339       -2768.848
 06  5  8 14 14 30.0000000  0  9G 2G 4G 6G10G13G16G23G25G30
  21085219.270    21085218.9794   21085218.1744  110803569.709 8  86340459.89046
     -2005.479       -1562.729
  23458238.751    23458238.9804   23458240.8334  123273868.327 6  96057569.42542
     -3583.829       -2792.581
  21719353.138    21719353.1654   21719354.0834  114135985.145 7  88937135.82444
      1096.483         854.389
  21895343.791    21895343.6344   21895345.7774  115060817.033 7  89657795.50644
      2864.244        2231.893
  21652100.758    21652101.1754   21652101.5824  113782552.507 8  88661743.31045
      -628.449        -489.705
  23729678.003    23729679.2694   23729678.8784  124700350.165 6  97169099.02742
      2556.048        1991.669
  23145122.827    23145122.6394   23145121.7774  121628428.108 6  94775412.91443
     -2765.194       -2154.683
  24836509.164    24836509.9124   24836510.3744  130516722.844 5 101701353.80241
     -2916.952       -2272.940
  24180411.351    24180410.7844   24180415.1664  127068907.976 5  99014741.27041
     -3560.644       -2774.571
 06  5  8 14 15  0.0000000  0  9G 2G 4G 6G10G13G16G23G25G30
  21096717.929    21096718.1064   21096717.3074  110863995.976 8  86387544.93546
     -2023.193       -1576.556
  23478716.986    23478717.7614   23478719.3704  123381482.659 6  96141424.60042
     -3590.272       -2797.599
  21713144.658    21713144.5514   21713145.5464  114103359.819 7  88911713.50744
      1078.526         840.396
  21879034.159    21879032.8324   21879035.4154  114975103.538 7  89591005.87344
      2850.187        2220.914
  21655749.986    21655750.1494   21655750.2134  113801728.723 8  88676685.88745
      -650.118        -506.597
  23715128.087    23715127.0104   23715129.1034  124623883.411 6  97109514.57942
      2541.972        1980.768
  23160949.769    23160949.3394   23160948.0064  121711598.101 6  94840220.64443
     -2779.417       -2165.765
  24853188.724    24853190.0494   24853190.5434  130604372.889 5 101769652.42341
     -2925.981       -2279.975
  24200760.736    24200760.8064   24200764.3164  127175847.710 5  99098071.16141
     -3568.245       -2780.421
 06  5  8 14 15 30.0000000  0  9G 2G 4G 6G10G13G16G23G25G30
  21108318.664    21108318.6884   21108318.1594  110924957.974 8  86435047.65046
     -2041.008       -1590.403
  23499233.506    23499233.4154   23499236.1554  123489294.891 6  96225434.08242
     -3597.002       -2802.837
  21707040.099    21707040.1744   21707041.5964  114071282.274 7  88886718.06344
      1059.934         825.944
  21862804.904    21862804.2224   21862806.1834  114889819.967 7  89524551.06444
      2835.486        2209.454
  21659523.985    21659524.1834   21659524.4154  113821559.933 8  88692138.65145
      -672.054        -523.677
  23700659.227    23700657.9454   23700658.4574  124547845.198 6  97050264.10342
      2527.333        1969.380
  23176858.307    23176858.0754   23176856.7844  121795198.222 6  94905363.44643
     -2793.892       -2177.062
  24869918.930    24869920.5944   24869922.3954  130692296.471 5 101838164.26741
     -2935.458       -2287.444
  24221155.849    24221155.9844   24221158.9354  127283021.575 5  99181583.20941
     -3576.341       -2786.746
 06  5  8 14 16  0.0000000  0  9G 2G 4G 6G10G13G16G23G25G30
  21120019.026    21120019.0484   21120018.3534  110986442.753 8  86482957.68545
     -2059.006       -1604.402
  23519784.158    23519784.3384   23519787.2214  123597292.283 6  96309587.84242
     -3603.807       -2808.167
  21701038.369    21701038.3954   21701039.6314  114039742.913 7  88862141.97844
      1041.666         811.687
  21846656.072    21846655.2164   21846657.5024  114804958.783 7  89458425.77944
      2820.887        2198.099
  21663420.294    21663420.4574   21663420.9414  113842034.791 8  88708092.76645
      -693.876        -540.631
  23686269.771    23686269.0484   23686269.5334  124472227.901 6  96991341.57842
      2513.004        1958.213
  23192846.598    23192846.3354   23192845.7154  121879215.752 6  94970831.75943
     -2808.123       -2188.142
  24886701.277    24886699.4134   24886702.0144  130780480.534 5 101906879.00341
     -2944.335       -2294.323
  24241591.378    24241592.3724   24241594.9104  127390416.599 5  99265267.48941
     -3584.228       -2792.900
 06  5  8 14 16 30.0000000  0  9G 2G 4G 6G10G13G16G23G25G30
  21131820.164    21131820.0274   21131819.4964  111048456.163 8  86531279.50346
     -2075.811       -1617.497
  23540371.578    23540372.2124   23540374.6334  123705479.961 6  96393889.87742
     -3609.351       -2812.482
  21695140.420    21695140.7964   21695142.3914  114008750.579 7  88837992.17944
      1024.032         797.954
  21830589.636    21830588.8344   21830590.5584  114720529.064 7  89392636.55744
      2807.235        2187.425
  21667441.031    21667441.0184   21667441.6114  113863161.170 8  88724554.67545
      -715.040        -557.173
  23671961.308    23671961.7534   23671961.5194  124397041.554 6  96932754.91442
      2499.094        1947.373
  23208914.847    23208914.0644   23208913.0104  121963654.947 6  95036628.54743
     -2821.585       -2198.653
  24903533.489    24903531.3514   24903535.1554  130868930.385 5 101975800.89741
     -2952.657       -2300.777
  24262071.283    24262071.6854   24262075.2604  127498038.125 5  99349128.40441
     -3591.022       -2798.185
 06  5  8 14 17  0.0000000  0  8G 2G 4G 6G10G13G16G23G30
  21143720.575    21143720.6394   21143720.0574  111110994.841 8  86580011.16445
     -2093.822       -1631.548
  23560995.567    23560994.7434   23560997.4194  123813853.252 6  96478336.46642
     -3616.106       -2817.738
  21689346.346    21689346.8174   21689348.5604  113978303.411 7  88814267.07244
      1005.226         783.308
  21814604.860    21814604.5434   21814606.3934  114636530.324 7  89327182.92744
      2792.264        2175.781
  21671583.590    21671583.9834   21671584.6574  113884936.478 8  88741523.05745
      -737.159        -574.403
  23657734.934    23657735.6044   23657735.2904  124322285.508 6  96874503.48942
      2484.043        1935.629
  23225061.959    23225061.9984   23225061.0854  122048510.730 6  95102749.79143
     -2836.073       -2209.917
  24282593.951    24282593.8824   24282596.0904  127605879.674 5  99433160.80741
     -3598.929       -2804.417
 06  5  8 14 17 30.0000000  0  8G 2G 4G 6G10G13G16G23G30
  21155719.773    21155719.5454   21155718.7694  111174050.019 8  86629145.18846
     -2110.842       -1644.838
  23581652.597    23581652.7114   23581654.6814  123922404.575 6  96562921.84542
     -3621.653       -2822.080
  21683656.107    21683655.8764   21683657.3494  113948397.368 7  88790963.62844
       987.486         769.457
  21798702.062    21798701.8174   21798703.6494  114552958.707 7  89262061.67644
      2778.208        2164.858
  21675849.105    21675849.4984   21675849.8404  113907351.706 8  88758989.59645
      -758.248        -590.847
  23643592.108    23643591.4044   23643592.2324  124247957.032 6  96816585.32342
      2470.051        1924.677
  23241287.878    23241287.4304   23241286.3434  122133774.981 6  95169189.30243
     -2849.293       -2220.241
  24303156.621    24303159.3714   24303159.0914  127713932.666 5  99517357.93741
     -3605.666       -2809.525
 06  5  8 14 18  0.0000000  0  8G 2G 4G 6G10G13G16G23G30
  21167817.620    21167817.3964   21167816.4964  111237626.335 8  86678685.62446
     -2128.096       -1658.286
  23602343.050    23602342.8504   23602345.7784  124031136.785 6  96647648.12641
     -3627.640       -2826.702
  21678069.247    21678069.2784   21678071.0374  113919037.862 7  88768085.59144
       969.355         755.321
  21782881.904    21782881.4514   21782883.1724  114469824.425 7  89197281.93944
      2763.681        2153.529
  21680237.500    21680237.7654   21680237.9534  113930411.899 8  88776958.59345
      -779.680        -607.552
  23629530.593    23629529.3904   23629530.4484  124174063.649 6  96759006.13242
      2455.508        1913.377
  23257590.633    23257590.8314   23257589.5224  122219450.406 6  95235949.30443
     -2862.990       -2230.930
  24323757.873    24323759.4544   24323759.4814  127822199.672 5  99601721.70741
     -3612.579       -2815.062
 06  5  8 14 18 30.0000000  0  8G 2G 4G 6G10G13G16G23G30
  21180014.700    21180014.6574   21180013.7834  111301722.380 8  86728630.56046
     -2145.510       -1671.809
  23623068.951    23623069.4434   23623070.9084  124140050.352 6  96732515.72442
     -3633.792       -2831.512
  21672587.354    21672587.4504   21672588.9334  113890230.285 7  88745638.29844
       950.636         740.765
  21767146.106    21767145.1544   21767147.3894  114387130.462 7  89132845.33544
      2748.781        2141.904
  21684748.551    21684749.0604   21684749.4264  113954118.478 8  88795431.09145
      -801.251        -624.289
  23615552.122    23615552.5334   23615553.4484  124100610.063 6  96701769.58943
      2440.738        1901.828
  23273973.043    23273972.1324   23273971.8904  122305536.424 6  95303029.15843
     -2876.670       -2241.512
  24344402.158    24344401.1114   24344404.6544  127930679.786 5  99686251.43841
     -3619.944       -2820.778
 06  5  8 14 19  0.0000000  0  8G 2G 4G 6G10G13G16G23G30
  21192308.642    21192308.4394   21192307.7414  111366327.161 8  86778971.79545
     -2162.575       -1685.122
  23643826.097    23643826.2864   23643829.6444  124249133.175 6  96817515.26342
     -3639.374       -2835.917
  21667208.433    21667208.6374   21667210.2094  113861964.521 7  88723613.09744
       932.644         726.735
  21751491.797    21751491.1334   21751493.4844  114304868.429 7  89068744.99044
      2734.298        2130.641
  21689381.107    21689381.4754   21689381.5134  113978460.559 8  88814398.64545
      -822.596        -640.970
  23601656.310    23601656.2124   23601657.2414  124027588.888 6  96644869.98443
      2426.235        1890.611
  23290430.552    23290429.9224   23290429.2654  122392020.294 6  95370418.82343
     -2889.905       -2251.861
  24365082.970    24365083.0944   24365085.8984  128039360.648 5  99770937.80241
     -3626.401       -2825.785
 06  5  8 14 19 30.0000000  0  8G 2G 4G 6G10G13G16G23G30
  21204701.045    21204701.0964   21204700.2354  111431451.675 8  86829718.54145
     -2179.367       -1698.219
  23664618.606    23664619.0554   23664620.4684  124358394.591 6  96902653.89742
     -3645.121       -2840.307
  21661935.100    21661935.3464   21661936.8844  113834253.462 7  88702020.02144
       914.400         712.503
  21735922.910    21735922.0294   21735924.3924  114223053.191 7  89004992.87944
      2719.577        2119.133
  21694136.507    21694136.7974   21694137.0834  114003450.017 8  88833870.94645
      -843.682        -657.412
  23587846.117    23587846.3294   23587847.1424  123955014.513 6  96588318.58343
      2411.654        1879.206
  23306965.507    23306965.1574   23306964.3604  122478912.564 6  95438127.18443
     -2903.142       -2262.179
  24385804.233    24385803.5374   24385805.6054  128148250.471 5  99855786.91941
     -3633.327       -2831.223
 06  5  8 14 20  0.0000000  0  8G 2G 4G 6G10G13G16G23G30
  21217190.630    21217190.5214   21217189.6404  111497083.624 8  86880860.08045
     -2196.595       -1711.623
  23685441.533    23685441.8904   23685445.6054  124467824.451 6  96987923.91942
     -3650.994       -2844.932
  21656766.456    21656766.4874   21656768.3304  113807089.207 7  88680852.80344
       896.198         698.353
  21720437.622    21720436.8734   21720438.6824  114141677.796 7  88941583.21044
      2704.716        2107.551
  21699013.499    21699013.4324   21699013.9364  114029076.214 8  88853839.18645
      -865.080        -674.049
  23574119.759    23574119.6204   23574119.7784  123882880.847 6  96532110.57543
      2396.836        1867.698
  23323575.696    23323575.7414   23323575.0844  122566200.377 6  95506143.36443
     -2916.405       -2272.520
  24406560.849    24406562.6584   24406565.8034  128257337.794 5  99940789.81841
     -3639.846       -2836.236
 06  5  8 14 20 30.0000000  0  8G 2G 4G 6G10G13G16G23G30
  21229775.426    21229775.3384   21229774.5584  111563218.764 8  86932394.18245
     -2213.395       -1724.743
  23706296.784    23706297.4954   23706299.5144  124577416.178 6  97073319.98242
     -3656.234       -2849.048
  21651701.209    21651701.1584   21651702.2094  113780470.258 7  88660110.99144
       877.794         684.005
  21705036.203    21705035.5384   21705037.6794  114060741.524 7  88878515.97844
      2690.156        2096.231
  21704010.069    21704010.4574   21704010.8564  114055334.273 8  88874299.64345
      -886.398        -690.710
  23560476.049    23560476.3234   23560476.9974  123811186.197 6  96476244.68243
      2382.025        1856.088
  23340260.847    23340260.4044   23340259.7344  122653877.845 6  95574463.33543
     -2929.635       -2282.801
  24427357.318    24427358.1514   24427359.2724  128366615.910 5 100025941.48241
     -3646.094       -2841.134
 06  5  8 14 21  0.0000000  0  8G 2G 4G 6G10G13G16G23G30
  21242456.490    21242456.2744   21242455.2464  111629858.454 7  86984321.62245
     -2229.746       -1737.469
  23727182.856    23727183.3454   23727185.4214  124687171.348 6  97158843.39742
     -3661.250       -2852.931
  21646739.729    21646739.9714   21646741.2364  113754399.449 7  88639795.95444
       859.701         669.889
  21689719.524    21689718.8794   21689720.5024  113980250.056 7  88815795.40344
      2675.419        2084.719
  21709127.826    21709128.0314   21709128.6904  114082227.854 8  88895255.77445
      -906.940        -706.688
  23546918.239    23546917.7714   23546919.0934  123739936.483 6  96420725.47843
      2367.525        1844.829
  23357020.331    23357019.5354   23357018.3754  122741945.499 6  95643087.14643
     -2942.000       -2292.487
  24448189.127    24448189.0384   24448189.2254  128476085.693 5 100111242.58941
     -3652.475       -2846.087
 06  5  8 14 21 30.0000000  0  8G 2G 4G 6G10G13G16G23G30
  21255233.570    21255233.4934   21255232.6104  111697002.804 8  87036641.74645
     -2246.821       -1750.775
  23748098.741    23748099.3154   23748102.3634  124797091.647 6  97244495.60342
     -3666.961       -2857.326
  21641884.113    21641883.9364   21641885.3954  113728882.412 7  88619912.60844
       840.985         655.307
  21674488.120    21674487.4694   21674489.4314  113900208.967 7  88753425.88944
      2660.135        2072.829
  21714366.888    21714367.0444   21714367.5784  114109758.304 8  88916708.01245
      -928.547        -723.532
  23533445.303    23533444.8554   23533446.0074  123669137.550 6  96365557.53543
      2352.077        1832.782
  23373853.326    23373852.1914   23373852.0034  122830406.151 7  95712017.98443
     -2955.496       -2303.022
  24469057.544    24469056.7754   24469059.8154  128585747.454 5 100196693.30541
     -3659.190       -2851.331
 06  5  8 14 22  0.0000000  0  8G 2G 4G 6G10G13G16G23G30
  21268108.193    21268107.9434   21268107.0944  111764657.676 8  87089359.60745
     -2263.604       -1763.827
  23769048.659    23769049.3624   23769052.4644  124907181.590 6  97330280.00442
     -3672.219       -2861.481
  21637134.659    21637134.9864   21637136.5404  113703926.411 7  88600466.36344
       822.679         641.039
  21659343.929    21659343.3044   21659345.3374  113820627.249 7  88691414.30144
      2645.168        2061.136
  21719728.153    21719728.2764   21719728.9114  114137931.607 8  88938661.17745
      -949.732        -740.040
  23520060.299    23520061.1284   23520061.0334  123598798.543 6  96310747.95543
      2337.191        1821.149
  23390762.109    23390761.6564   23390759.8614  122919261.749 6  95781256.37643
     -2968.174       -2312.897
  24489962.955    24489962.6444   24489964.3724  128695605.045 5 100282296.72641
     -3664.731       -2855.602
 06  5  8 14 22 30.0000000  0  8G 2G 4G 6G10G13G16G23G30
  21281078.079    21281078.1844   21281077.4104  111832816.442 8  87142470.34046
     -2281.089       -1777.430
  23790029.842    23790030.3004   23790032.4304  125017433.369 6  97416190.45142
     -3678.414       -2866.325
  21632492.036    21632492.0134   21632493.7234  113679526.872 7  88581453.56144
       803.267         625.927
  21644286.308    21644286.0354   21644287.8494  113741501.491 7  88629757.96444
      2629.112        2048.673
  21725210.541    21725210.5474   21725211.3564  114166741.453 8  88961110.51545
      -971.702        -757.181
  23506761.594    23506761.9534   23506762.5724  123528916.410 6  96256294.42943
      2321.128        1808.651
  23407743.772    23407742.9174   23407741.5834  123008504.063 6  95850795.66543
     -2981.812       -2323.471
  24510903.578    24510903.8604   24510907.4444  128805649.797 5 100368045.96941
     -3671.916       -2861.271
 06  5  8 14 23  0.0000000  0  7G 2G 4G 6G10G13G16G23
  21294144.488    21294144.1444   21294143.4044  111901481.006 8  87195975.44245
     -2296.800       -1789.693
  23811040.670    23811040.6744   23811043.2954  125127849.075 6  97502228.65442
     -3682.871       -2869.778
  21627955.905    21627955.9994   21627957.6564  113655688.956 7  88562878.35044
       785.699         612.253
  21629317.859    21629316.9424   21629318.6914  113662837.287 7  88568460.93144
      2614.839        2037.554
  21730814.169    21730814.2394   21730815.2154  114196190.584 8  88984057.96845
      -991.894        -772.893
  23493553.448    23493552.2334   23493553.7974  123459497.410 6  96202201.56243
      2306.702        1797.454
  23424798.913    23424799.5364   23424798.8144  123098135.612 6  95920638.51143
     -2993.689       -2332.723
 06  5  8 14 23 30.0000000  0  7G 2G 4G 6G10G13G16G23
  21307306.623    21307306.5804   21307305.7274  111970649.185 8  87249872.78545
     -2314.265       -1803.309
  23832083.488    23832083.8404   23832085.1284  125238427.800 6  97588394.03542
     -3689.025       -2874.570
  21623527.375    21623527.1664   21623528.7824  113632414.379 7  88544742.04844
       766.188         597.044
  21614436.943    21614436.1494   21614438.0884  113584639.193 7  88507527.41644
      2598.559        2024.837
  21736539.399    21736539.8844   21736540.6794  114226278.236 8  89007502.83245
     -1013.947        -790.080
  23480430.844    23480430.7024   23480432.1164  123390544.960 6  96148472.20643
      2290.270        1784.692
  23441929.068    23441929.7144   23441928.8674  123188153.397 6  95990782.14543
     -3007.397       -2343.435
 06  5  8 14 24  0.0000000  0  7G 2G 4G 6G10G13G16G23
  21320563.995    21320563.8964   21320563.2044  112040315.248 8  87304157.63745
     -2330.389       -1815.854
  23853155.404    23853155.2504   23853158.4254  125349163.361 6  97674681.52842
     -3693.667       -2878.206
  21619205.161    21619205.3514   21619207.0324  113609700.874 7  88527042.99544
       747.785         582.704
  21599644.566    21599643.9054   21599645.7564  113506905.486 7  88446955.80544
      2583.455        2013.072
  21742385.826    21742386.1304   21742386.8184  114257000.705 8  89031442.59745
     -1034.602        -806.192
  23467397.729    23467398.2214   23467400.0934  123322058.254 6  96095105.85543
      2275.141        1772.834
  23459131.784    23459131.9644   23459130.8194  123278551.867 6  96061222.42143
     -3019.588       -2352.902
 06  5  8 14 24 30.0000000  0  7G 2G 4G 6G10G13G16G23
  21333915.161    21333915.0194   21333914.4214  112110474.925 7  87358827.32045
     -2347.538       -1829.234
  23874256.150    23874257.1344   23874257.9004  125460050.206 6  97761086.89742
     -3699.311       -2882.598
  21614989.758    21614989.3914   21614991.0184  113587545.787 7  88509779.22844
       728.424         567.604
  21584940.306    21584939.4194   21584941.3284  113429634.689 7  88386745.06844
      2567.282        2000.483
  21748352.054    21748352.2584   21748352.4674  114288351.867 8  89055871.94545
     -1056.134        -822.942
  23454455.294    23454454.4164   23454455.2654  123254035.927 6  96042101.52043
      2258.842        1760.140
  23476405.159    23476405.4874   23476404.1224  123369324.853 6  96131954.44643
     -3032.587       -2363.023
 06  5  8 14 25  0.0000000  0  7G 2G 4G 6G10G13G16G23
  21347360.884    21347361.0084   21347360.1294  112181132.390 8  87413884.77745
     -2363.812       -1841.939
  23895387.456    23895387.9684   23895389.9294  125571093.269 6  97847613.97142
     -3704.469       -2886.621
  21610880.924    21610880.8864   21610882.6384  113565956.796 7  88492956.70144
       709.843         553.136
  21570325.490    21570324.8514   21570326.6494  113352835.623 7  88326901.92244
      2551.761        1988.402
  21754438.710    21754439.0884   21754439.7984  114320338.007 8  89080795.99145
     -1077.157        -839.344
  23441601.175    23441599.7364   23441601.9864  123186487.084 6  95989466.08343
      2243.237        1747.986
  23493750.895    23493751.2664   23493751.1074  123460476.265 6  96202981.33243
     -3045.167       -2372.892
 06  5  8 14 25 30.0000000  0  7G 2G 4G 6G10G13G16G23
  21360900.867    21360900.3014   21360899.6064  112252281.954 8  87469325.87645
     -2379.893       -1854.445
  23916545.666    23916546.7264   23916549.0004  125682286.055 6  97934257.77242
     -3709.216       -2890.310
  21606880.337    21606879.9464   21606881.7144  113544930.559 7  88476572.78944
       691.413         538.778
  21555800.076    21555799.3984   21555801.4484  113276505.820 7  88267424.34744
      2536.348        1976.381
  21760645.753    21760645.8884   21760646.1924  114352953.789 8  89106210.77745
     -1097.760        -855.385
  23428834.814    23428835.8154   23428836.2364  123119409.207 6  95937197.57943
      2227.958        1736.027
  23511169.150    23511167.0914   23511166.6304  123551999.640 6  96274298.31643
     -3057.080       -2382.143
 06  5  8 14 26  0.0000000  0  7G 2G 4G 6G10G13G16G23
  21374532.590    21374532.4934   21374531.8344  112323919.507 8  87525147.27745
     -2396.546       -1867.468
  23937733.953    23937732.9634   23937734.8234  125793624.247 6  98021014.77742
     -3713.965       -2893.994
  21602985.465    21602985.3834   21602987.0114  113524465.433 7  88460626.00744
       672.388         523.926
  21541364.628    21541364.2024   21541365.5714  113200645.128 7  88208311.95644
      2520.364        1963.914
  21766971.485    21766971.8624   21766972.2324  114386195.373 8  89132112.91745
     -1118.817        -871.818
  23416161.620    23416161.0084   23416161.8454  123052802.905 6  95885296.62343
      2212.014        1723.637
  23528653.322    23528653.5554   23528652.5134  123643890.692 6  96345902.08843
     -3069.463       -2391.815
 06  5  8 14 26 30.0000000  0  7G 2G 4G 6G10G13G16G23
  21388257.820    21388257.8114   21388257.2514  112396044.546 8  87581348.35145
     -2412.720       -1880.030
  23958948.671    23958949.0414   23958951.7334  125905108.250 6  98107885.33142
     -3719.021       -2897.908
  21599198.475    21599198.2904   21599200.0164  113504564.778 7  88445119.09144
       653.457         509.222
  21527019.226    21527018.2764   21527019.8204  113125259.518 7  88149570.31444
      2504.432        1951.510
  21773416.716    21773416.8944   21773417.7194  114420064.659 8  89158504.44245
     -1139.985        -888.294
  23403577.434    23403576.2904   23403577.8224  122986672.744 6  95833766.63943
      2195.820        1711.017
  23546209.032    23546209.0694   23546208.6574  123736147.864 6  96417791.01143
     -3081.945       -2401.502
 06  5  8 14 27  0.0000000  0  7G 2G 4G 6G10G13G16G23
  21402075.240    21402075.2224   21402074.9974  112468657.328 8  87637929.91445
     -2428.529       -1892.340
  23980191.114    23980191.2974   23980193.1054  126016737.305 6  98194868.94842
     -3723.436       -2901.374
  21595518.831    21595518.9374   21595520.7734  113485230.258 7  88430053.23844
       635.068         494.885
  21512763.678    21512763.5554   21512765.2364  113050351.030 7  88091200.24044
      2488.981        1939.482
  21779980.791    21779981.2934   21779981.8944  114454561.882 8  89185385.66945
     -1160.393        -904.207
  23391083.864    23391083.4654   23391084.8434  122921022.206 6  95782610.25643
      2180.315        1698.968
  23563835.132    23563834.3954   23563833.4444  123828769.586 6  96489963.88143
     -3093.495       -2410.510
 06  5  8 14 27 30.0000000  0  7G 2G 4G 6G10G13G16G23
  21415985.105    21415985.2044   21415984.6194  112541753.648 7  87694887.94345
     -2445.186       -1905.335
  24001460.237    24001461.4144   24001462.3574  126128508.148 6  98281963.07742
     -3728.684       -2905.413
  21591947.581    21591947.9044   21591948.9504  113466461.844 7  88415428.52944
       615.723         479.773
  21498600.362    21498600.0494   21498602.0264  112975920.324 7  88033202.00044
      2472.435        1926.588
  21786664.563    21786664.5504   21786665.2004  114489683.485 8  89212753.19745
     -1181.598        -920.732
  23378682.688    23378682.2954   23378683.9344  122855852.542 6  95731828.54743
      2163.842        1686.078
  23581530.022    23581528.2144   23581527.5444  123921752.427 6  96562418.04243
     -3105.875       -2420.164
 06  5  8 14 28  0.0000000  0  7G 2G 4G 6G10G13G16G23
  21429986.958    21429986.8554   21429986.5274  112615334.160 8  87752223.35845
     -2461.147       -1917.763
  24022756.251    24022756.0724   24022757.8894  126240421.018 6  98369167.88342
     -3733.293       -2909.088
  21588484.220    21588484.4324   21588485.9334  113448262.420 7  88401247.20644
       596.714         464.945
  21484528.806    21484528.0774   21484530.5044  112901972.903 7  87975580.56744
      2456.420        1914.088
  21793466.748    21793467.0544   21793467.5354  114525430.666 8  89240608.18345
     -1202.423        -936.954
  23366372.930    23366373.6714   23366374.4164  122791168.314 6  95681425.24443
      2147.567        1673.415
  23599292.049    23599290.9664   23599290.0724  124015095.745 6  96635153.10543
     -3117.869       -2429.513
 06  5  8 14 28 30.0000000  0  7G 2G 4G 6G10G13G16G23
  21444080.244    21444080.1234   21444079.6544  112689395.144 7  87809933.42145
     -2476.276       -1929.573
  24044079.307    24044079.4244   24044081.0954  126352471.600 6  98456480.01042
     -3736.913       -2911.890
  21585129.057    21585128.8854   21585130.5294  113430631.122 7  88387508.77545
       578.686         450.919
  21470549.427    21470548.8594   21470550.7644  112828508.534 7  87918335.56544
      2441.176        1902.196
  21800387.840    21800387.9104   21800388.4104  114561799.759 8  89268947.65245
     -1222.310        -952.455
  23354156.252    23354156.7354   23354157.9264  122726969.542 6  95631400.27443
      2132.227        1661.466
  23617122.784    23617121.8304   23617120.5924  124108795.114 6  96708165.62343
     -3128.927       -2438.162
 06  5  8 14 29  0.0000000  0  7G 2G 4G 6G10G13G16G23
  21458263.592    21458263.3764   21458262.8884  112763927.941 8  87868010.89445
     -2492.973       -1942.566
  24065426.177    24065427.4404   24065429.2644  126464652.745 6  98543893.91742
     -3742.406       -2916.166
  21581880.965    21581880.9744   21581882.6174  113413562.832 7  88374208.91144
       558.831         435.445
  21456661.013    21456660.1634   21456662.0284  112755523.485 7  87861463.85944
      2424.080        1888.918
  21807425.754    21807425.8024   21807426.8974  114598784.444 8  89297766.77745
     -1243.727        -969.137
  23342031.701    23342031.7254   23342033.8274  122663253.383 6  95581751.38343
      2115.063        1648.089
  23635019.105    23635018.7624   23635018.0724  124202842.537 6  96781449.39143
     -3141.447       -2447.905
 06  5  8 14 29 30.0000000  0  7G 2G 4G 6G10G13G16G23
  21472535.556    21472535.5564   21472534.8914  112838928.924 8  87926453.30145
     -2508.245       -1954.480
  24086798.141    24086798.0444   24086800.5644  126576959.187 6  98631405.32842
     -3746.122       -2919.090
  21578739.662    21578739.8364   21578741.3284  113397055.362 7  88361346.00344
       540.506         421.172
  21442863.749    21442862.9094   21442865.0854  112683017.033 7  87804964.96244
      2408.480        1876.771
  21814579.817    21814580.2804   21814580.9774  114636380.192 8  89327062.13545
     -1263.730        -984.721
  23329999.285    23329999.3654   23330000.9964  122600018.767 6  95532477.74943
      2099.374        1635.887
  23652979.535    23652979.8954   23652979.1414  124297231.997 6  96854999.59543
     -3152.361       -2456.372
 06  5  8 14 30  0.0000000  0  7G 2G 4G 6G10G13G16G23
  21486899.782    21486899.4704   21486898.8554  112914411.835 8  87985271.21845
     -2524.564       -1967.212
  24108194.914    24108195.0794   24108196.6914  126689405.662 6  98719025.96442
     -3750.865       -2922.745
  21575708.091    21575708.3384   21575709.6984  113381126.024 7  88348933.63944
       520.837         405.848
  21429161.137    21429160.1834   21429162.1974  112611008.115 7  87748853.82344
      2391.617        1863.609
  21821853.575    21821853.7424   21821854.4044  114674602.175 8  89356845.44045
     -1285.006       -1001.313
  23318061.415    23318061.6164   23318061.2574  122537284.620 6  95483594.09643
      2082.456        1622.692
  23671010.425    23671009.4944   23671007.9964  124391977.505 6  96928827.27243
     -3164.414       -2465.777
 06  5  8 14 30 30.0000000  0  7G 2G 4G 6G10G13G16G23
  21501353.325    21501353.1294   21501352.3434  112990367.052 7  88044457.12445
     -2540.071       -1979.261
  24129617.344    24129617.9264   24129620.8644  126801982.442 6  98806748.08542
     -3755.107       -2926.007
  21572785.082    21572785.4304   21572787.1934  113365768.027 7  88336966.42244
       501.987         391.162
  21415552.182    21415551.1944   21415553.4314  112539491.493 7  87693126.41144
      2375.252        1850.851
  21829244.416    21829244.7994   21829245.3384  114713441.656 8  89387109.91645
     -1305.315       -1017.119
  23306217.871    23306217.2634   23306217.4644  122475045.451 6  95435096.05943
      2065.967        1609.854
  23689106.719    23689104.6844   23689103.9474  124487068.724 6  97002924.28543
     -3175.762       -2474.646
 06  5  8 14 31  0.0000000  0  7G 2G 4G 6G10G13G16G23
  21515897.994    21515898.0294   21515897.0664  113066800.293 8  88104015.59145
     -2555.895       -1991.628
  24151066.898    24151067.7834   24151069.3724  126914695.177 6  98894576.15042
     -3759.637       -2929.563
  21569973.212    21569973.4874   21569974.9554  113350989.347 7  88325450.55144
       482.758         376.172
  21402038.256    21402037.6224   21402039.8174  112468476.860 7  87637790.32244
      2358.547        1837.815
  21836754.259    21836754.3394   21836755.0454  114752904.712 8  89417860.32245
     -1326.120       -1033.344
  23294469.295    23294469.5374   23294469.5154  122413311.022 6  95386991.33243
      2049.051        1596.649
  23707266.635    23707266.4354   23707265.8084  124582510.653 6  97077294.60843
     -3187.507       -2483.784
 06  5  8 14 31 30.0000000  0  7G 2G 4G 6G10G13G16G23
  21530532.618    21530532.4594   21530531.5494  113143704.531 8  88163940.93745
     -2571.820       -2004.026
  24172540.239    24172540.9964   24172541.7964  127027537.368 6  98982505.03042
     -3763.965       -2932.950
  21567270.634    21567270.7314   21567272.1224  113336786.532 7  88314383.40544
       463.493         361.163
  21388619.457    21388618.9664   21388620.8904  112397961.649 7  87582843.43844
      2341.660        1824.655
  21844381.326    21844381.3754   21844382.1534  114792985.575 8  89449092.20045
     -1346.664       -1049.369
  23282817.692    23282817.5274   23282817.9454  122352079.329 6  95339278.32843
      2032.363        1583.669
  23725494.164    23725494.9524   23725492.6544  124678296.134 6  97151932.60743
     -3198.894       -2492.633
 06  5  8 14 32  0.0000000  0  8G 2G 4G 6G 7G10G13G16G23
  21545256.649    21545256.2854   21545255.3174  113221079.306 8  88224232.94345
     -2587.597       -2016.320
  24194038.150    24194037.2914   24194040.0594  127140507.997 6  99070534.01942
     -3768.454       -2936.490
  21564677.554    21564677.7634   21564679.8934  113323161.395 7  88303766.44944
       443.986         345.933
  24715592.526    24715592.7244   24715595.5714  129881311.547 5 101206237.08741
      3348.601        2609.327
  21375296.596    21375296.1864   21375298.0904  112327948.918 7  87528288.08744
      2324.796        1811.521
  21852125.522    21852125.8814   21852126.4524  114833683.513 8  89480804.93845
     -1367.449       -1065.566
  23271262.090    23271261.2034   23271262.2364  122291353.358 6  95291959.37343
      2015.228        1570.263
  23743787.560    23743786.5414   23743785.6774  124774423.293 6  97226836.81743
     -3210.463       -2501.639
 06  5  8 14 32 30.0000000  0  8G 2G 4G 6G 7G10G13G16G23
  21560070.424    21560070.2914   21560069.3324  113298926.670 7  88284893.23245
     -2603.072       -2028.368
  24215560.389    24215559.6464   24215562.7654  127253609.059 6  99158664.49642
     -3772.445       -2939.535
  21562195.526    21562195.9854   21562197.6184  113310118.719 7  88293603.36544
       424.662         330.907
  24696491.259    24696490.3554   24696493.5424  129780931.365 5 101128018.83741
      3342.326        2604.447
  21362070.420    21362069.9614   21362071.7414  112258445.380 7  87474129.60344
      2307.941        1798.388
  21859988.206    21859988.3264   21859989.0364  114875001.330 8  89513000.65445
     -1387.875       -1081.472
  23259803.820    23259803.6914   23259804.7954  122231139.659 6  95245039.57343
      1998.142        1556.991
  23762145.153    23762144.7514   23762143.3264  124870894.437 6  97302009.10643
     -3221.787       -2510.504
 06  5  8 14 33  0.0000000  0  8G 2G 4G 6G 7G10G13G16G23
  21574971.468    21574971.4984   21574970.4284  113377233.880 8  88345911.83945
     -2618.623       -2040.473
  24237105.399    24237106.7384   24237108.2714  127366828.089 6  99246886.73642
     -3776.524       -2942.795
  21559823.256    21559822.7044   21559824.6214  113297648.350 7  88283886.21844
       405.363         315.879
  24677424.059    24677422.8104   24677424.5764  129680732.442 5 101049941.86441
      3336.323        2599.741
  21348939.626    21348939.1034   21348941.0664  112189441.898 7  87420360.65145
      2291.040        1785.232
  21867966.344    21867966.5954   21867967.1294  114916926.808 8  89545669.84245
     -1408.407       -1097.461
  23248440.552    23248440.7334   23248441.6144  122171429.874 6  95198512.43743
      1981.214        1543.830
  23780565.833    23780565.3174   23780564.3984  124967695.700 6  97377438.57043
     -3232.868       -2519.110
 06  5  8 14 33 30.0000000  0  8G 2G 4G 6G 7G10G13G16G23
  21589963.247    21589962.9254   21589962.3604  113456014.097 8  88407298.94745
     -2633.860       -2052.368
  24258676.073    24258675.5714   24258677.3204  127480179.365 6  99335212.18342
     -3780.563       -2945.880
  21557561.531    21557561.9394   21557563.7214  113285766.623 7  88274627.74644
       386.284         300.997
  24658395.841    24658393.3494   24658395.3294  129580732.831 5 100972020.08441
      3330.044        2594.771
  21335907.220    21335906.5414   21335908.6884  112120956.269 7  87366995.24645
      2274.182        1772.097
  21876062.484    21876062.9934   21876063.7714  114959474.019 8  89578823.51545
     -1428.506       -1113.119
  23237178.511    23237177.2944   23237178.4564  122112241.784 6  95152391.84143
      1964.208        1530.529
  23799051.652    23799051.1914   23799050.1924  125064839.744 6  97453135.18043
     -3243.789       -2527.634
 06  5  8 14 34  0.0000000  0  8G 2G 4G 6G 7G10G13G16G23
  21605043.298    21605043.4404   21605042.2444  113535260.274 7  88469049.09545
     -2648.975       -2064.133
  24280270.742    24280270.6514   24280271.6554  127593655.539 6  99423635.19142
     -3784.266       -2948.701
  21555411.976    21555411.7024   21555413.2744  113274469.028 7  88265824.43744
       367.154         286.085
  24639403.092    24639402.9474   24639405.6294  129480930.040 5 100894251.67141
      3323.801        2590.006
  21322972.775    21322972.2254   21322974.2174  112052985.591 7  87314031.14845
      2257.401        1759.014
  21884276.331    21884276.5184   21884277.2144  115002636.406 8  89612456.53545
     -1448.689       -1128.840
  23226013.640    23226013.9964   23226014.2784  122053572.401 6  95106675.44843
      1947.311        1517.397
  23817601.683    23817600.8374   23817599.6244  125162319.194 6  97529093.20443
     -3254.583       -2536.070
 06  5  8 14 34 30.0000000  0  8G 2G 4G 6G 7G10G13G16G23
  21620210.105    21620209.7544   21620208.9544  113614961.640 7  88531153.99445
     -2664.660       -2076.336
  24301884.020    24301885.4034   24301887.2884  127707245.601 6  99512146.83842
     -3788.423       -2951.994
  21553371.536    21553371.7824   21553373.4264  113263747.510 7  88257470.05244
       347.355         270.670
  24620446.410    24620446.5644   24620450.6994  129381317.525 5 100816631.51341
      3317.013        2584.706
  21310135.192    21310134.4924   21310136.3634  111985523.027 7  87261463.00845
      2239.827        1745.321
  21892605.249    21892605.4534   21892605.6914  115046403.814 8  89646561.00345
     -1469.447       -1145.017
  23214947.579    23214947.0664   23214947.4464  121995414.878 6  95061357.91243
      1929.746        1503.740
  23836211.788    23836211.9164   23836211.2534  125260122.736 6  97605303.71743
     -3265.777       -2544.785
 06  5  8 14 35  0.0000000  0  8G 2G 4G 6G 7G10G13G16G23
  21635463.558    21635463.1594   21635462.4864  113695118.839 7  88593614.11245
     -2680.099       -2088.392
  24323522.555    24323521.9074   24323525.5514  127820950.242 6  99600747.74642
     -3792.938       -2955.554
  21551441.532    21551441.5764   21551443.2894  113253605.129 7  88249566.95644
       327.900         255.489
  24601527.586    24601528.3944   24601532.1304  129281900.468 5 100739163.64741
      3309.982        2579.214
  21297394.742    21297394.3684   21297396.1814  111918573.163 7  87209294.38045
      2222.488        1731.795
  21901048.742    21901049.0504   21901049.8324  115090777.029 8  89681137.52445
     -1489.683       -1160.786
  23203978.238    23203977.6474   23203978.9054  121937774.291 6  95016443.17643
      1912.214        1490.021
  23854885.157    23854884.9374   23854884.5594  125358250.433 6  97681766.96243
     -3276.833       -2553.364
 06  5  8 14 35 30.0000000  0  8G 2G 4G 6G 7G10G13G16G23
  21650803.535    21650803.4464   21650802.5324  113775732.076 7  88656429.65945
     -2694.772       -2099.797
  24345180.546    24345180.4414   24345183.4154  127934770.285 6  99689438.73542
     -3795.978       -2957.870
  21549622.288    21549622.1794   21549624.3144  113244044.675 7  88242117.37244
       308.758         240.607
  24582647.053    24582648.3564   24582651.1574  129182683.551 5 100661851.79041
      3303.843        2574.417
  21284753.048    21284752.7484   21284754.1604  111852140.024 7  87157528.30745
      2205.655        1718.713
  21909608.193    21909608.5824   21909609.1094  115135756.714 8  89716186.66045
     -1509.491       -1176.216
  23193109.063    23193108.4564   23193109.2504  121880654.704 6  94971934.44943
      1895.210        1476.800
  23873620.423    23873619.9234   23873618.4364  125456701.380 6  97758482.09543
     -3287.067       -2561.328
 06  5  8 14 36  0.0000000  0  9G 2G 4G 6G 7G10G13G16G23G27
  21666229.178    21666228.8424   21666228.0224  113856792.724 7  88719593.78845
     -2709.872       -2111.580
  24366860.245    24366861.5624   24366863.1884  128048697.514 6  99778213.29842
     -3799.611       -2960.748
  21547912.109    21547912.5374   21547914.2984  113235060.566 7  88235116.88144
       289.479         225.576
  24563804.794    24563803.5134   24563808.0844  129083663.104 5 100584693.01841
      3297.295        2569.319
  21272208.979    21272208.1554   21272209.9714  111786219.825 8  87106161.91345
      2188.389        1705.238
  21918281.664    21918281.8024   21918282.2294  115181335.635 8  89751702.73245
     -1529.671       -1191.940
  23182337.318    23182337.3794   23182338.1924  121824052.270 6  94927828.70743
      1877.835        1463.245
  23892416.732    23892414.6534   23892413.5254  125555466.650 6  97835441.96143
     -3297.605       -2569.565
  24991275.174    24991274.5094   24991278.1624  131330044.738 6 102335105.13341
      3130.999        2439.834
 06  5  8 14 36 30.0000000  0  9G 2G 4G 6G 7G10G13G16G23G27
  21681741.045    21681740.9014   21681740.2974  113938309.738 7  88783113.43945
     -2725.342       -2123.659
  24388562.232    24388561.9364   24388566.3424  128162740.515 5  99867077.95742
     -3803.643       -2963.868
  21546315.051    21546315.0394   21546316.6244  113226664.334 7  88228574.38044
       269.604         210.059
  24545002.172    24545001.1564   24545005.3284  128984852.776 5 100507697.97141
      3289.719        2563.391
  21259764.656    21259764.0664   21259766.0074  111720825.836 7  87055205.58145
      2170.499        1691.264
  21927070.941    21927070.9074   21927071.7644  115227523.047 8  89787692.96345
     -1550.368       -1208.104
  23171665.888    23171667.1234   23171667.5844  121767980.182 6  94884136.18443
      1859.791        1449.179
  23911269.727    23911270.6484   23911268.8794  125654555.259 6  97912653.88143
     -3308.769       -2578.256
  24973418.418    24973418.1494   24973422.1674  131236205.242 6 102261983.42942
      3124.395        2434.607
 06  5  8 14 37  0.0000000  0  9G 2G 4G 6G 7G10G13G16G23G27
  21697339.661    21697339.3494   21697338.6864  114020279.389 7  88846985.84545
     -2739.852       -2134.933
  24410285.586    24410285.5464   24410288.6364  128276895.486 6  99956029.80942
     -3807.038       -2966.531
  21544828.645    21544828.6484   21544830.0574  113218854.544 7  88222488.81644
       250.801         195.420
  24526239.055    24526238.1824   24526241.5684  128886253.040 5 100430867.05741
      3283.269        2558.458
  21247420.617    21247420.0594   21247421.9604  111655957.723 7  87004659.00145
      2153.587        1678.127
  21935974.959    21935975.3064   21935975.7494  115274315.378 8  89824154.55245
     -1569.754       -1223.177
  23161097.811    23161097.6954   23161098.4294  121712438.204 6  94840856.66943
      1842.653        1435.848
  23930185.997    23930186.3304   23930186.1224  125753962.383 6  97990114.02743
     -3318.724       -2585.989
  24955596.442    24955597.1764   24955598.2794  131142552.814 5 102189007.48542
      3118.625        2430.124
 06  5  8 14 37 30.0000000  0  9G 2G 4G 6G 7G10G13G16G23G27
  21713022.267    21713022.2094   21713021.7024  114102692.194 7  88911203.45845
     -2755.123       -2146.851
  24432026.906    24432027.7334   24432031.1664  128391153.995 6 100045062.41542
     -3810.895       -2969.536
  21543452.801    21543452.9374   21543454.7034  113211624.807 7  88216855.20044
       230.822         179.856
  24507514.657    24507515.2624   24507516.7174  128787859.172 5 100354196.54641
      3275.891        2552.623
  21235175.613    21235175.1074   21235177.0174  111591610.451 7  86954518.27545
      2135.668        1664.146
  21944992.672    21944993.0174   21944993.6734  115321703.761 8  89861080.55845
     -1590.215       -1239.143
  23150628.775    23150627.2854   23150629.0244  121657421.930 6  94797986.88243
      1824.533        1421.702
  23949162.988    23949161.6314   23949160.5524  125853678.338 6  98067814.79443
     -3329.568       -2594.473
  24937808.795    24937810.3184   24937813.9844  131049083.443 5 102116174.31342
      3112.030        2424.993
 06  5  8 14 38  0.0000000  0  9G 2G 4G 6G 7G10G13G16G23G27
  21728790.013    21728789.4864   21728788.9384  114185550.840 7  88975768.57245
     -2769.291       -2157.897
  24453791.086    24453792.0634   24453793.5054  128505518.225 6 100134177.26442
     -3813.820       -2971.838
  21542188.287    21542188.6494   21542190.1344  113204979.969 7  88211677.32544
       211.668         164.910
  24488831.761    24488832.2744   24488834.6194  128689678.412 5 100277692.10941
      3269.116        2547.276
  21223031.029    21223030.4434   21223032.6524  111527790.614 7  86904788.51845
      2118.533        1650.782
  21954124.529    21954124.5624   21954125.4644  115369691.251 8  89898473.51745
     -1609.486       -1254.175
  23140260.863    23140260.4024   23140260.9974  121602937.960 6  94755531.91643
      1807.248        1408.250
  23968194.632    23968196.5784   23968195.5194  125953705.018 6  98145757.64943
     -3339.321       -2602.063
  24920058.111    24920058.5604   24920062.3364  130955803.794 5 102043488.92942
      3106.284        2420.416
 06  5  8 14 38 30.0000000  0  9G 2G 4G 6G 7G10G13G16G23G27
  21744640.298    21744640.0534   21744639.6024  114268845.397 8  89040673.44945
     -2784.154       -2169.457
  24475571.398    24475573.0144   24475574.9294  128619979.316 6 100223367.89341
     -3817.493       -2974.659
  21541034.357    21541033.9804   21541035.4814  113198912.776 7  88206949.56444
       192.330         149.864
  24470188.294    24470188.4254   24470191.5144  128591705.307 5 100201349.39741
      3261.955        2541.799
  21210986.306    21210985.5014   21210987.4374  111464492.551 7  86855465.30445
      2100.858        1637.042
  21963368.096    21963368.5704   21963369.2454  115418268.475 8  89936326.05345
     -1629.471       -1269.713
  23129992.940    23129992.4324   23129993.7484  121548980.053 6  94713486.82943
      1789.381        1394.332
  23987288.322    23987288.2424   23987286.8064  126054031.826 6  98223934.35443
     -3349.690       -2610.160
  24902344.799    24902343.7684   24902347.5244  130862709.067 6 101970947.59842
      3099.469        2415.210
 06  5  8 14 39  0.0000000  0  9G 2G 4G 6G 7G10G13G16G23G27
  21760575.726    21760575.5494   21760575.2544  114352586.513 7  89105926.18345
     -2799.005       -2181.051
  24497373.835    24497374.0034   24497376.2774  128734547.332 6 100312641.58441
     -3820.823       -2977.260
  21539992.093    21539992.0404   21539993.5004  113193436.856 7  88202682.49644
       172.499         134.451
  24451587.359    24451586.8524   24451590.1164  128493955.487 5 100125180.71941
      3254.565        2536.086
  21199043.062    21199042.4104   21199044.6044  111401731.570 8  86806560.59345
      2082.865        1623.032
  21972726.462    21972726.6204   21972727.4944  115467446.685 8  89974646.87145
     -1649.514       -1285.342
  23119828.590    23119828.4734   23119828.6844  121495563.963 6  94671863.90443
      1771.300        1380.280
  24006439.859    24006438.6344   24006437.6704  126154669.433 6  98302353.21243
     -3359.897       -2618.135
  24884666.461    24884666.1124   24884670.3864  130769815.008 6 101898562.63842
      3092.941        2410.035
 06  5  8 14 39 30.0000000  0  9G 2G 4G 6G 7G10G13G16G23G27
  21776595.708    21776595.6144   21776595.1004  114436772.213 7  89171525.31745
     -2813.969       -2192.709
  24519195.716    24519196.4664   24519199.3534  128849220.854 6 100401997.52942
     -3824.469       -2980.160
  21539062.651    21539062.6634   21539064.1694  113188552.183 7  88198876.07644
       152.402         118.753
  24433029.468    24433028.0214   24433034.3424  128396431.375 5 100049187.94241
      3246.326        2529.599
  21187202.727    21187202.0564   21187204.0074  111339509.147 8  86758075.54345
      2064.678        1608.818
  21982198.963    21982198.8294   21982199.3734  115517223.928 8  90013434.43645
     -1669.741       -1301.097
  23109765.918    23109766.5844   23109767.1804  121442691.088 6  94630664.25343
      1752.776        1365.789
  24025648.490    24025648.3084   24025646.8654  126255614.849 6  98381011.96343
     -3370.476       -2626.392
  24867028.003    24867029.6584   24867031.5294  130677123.406 6 101826335.38642
      3085.932        2404.623
 06  5  8 14 40  0.0000000  0  9G 2G 4G 6G 7G10G13G16G23G27
  21792698.173    21792697.8584   21792697.0554  114521389.023 7  89237460.45145
     -2827.831       -2203.498
  24541034.761    24541035.1154   24541035.0184  128963986.913 6 100491425.57641
     -3826.927       -2982.000
  21538243.455    21538243.7464   21538245.5844  113184248.669 7  88195522.69344
       133.771         104.248
  24414511.462    24414511.3224   24414515.3154  128299123.926 5  99973363.99941
      3240.119        2524.777
  21175462.964    21175462.1944   21175464.4424  111277816.016 7  86710002.98445
      2047.535        1595.485
  21991782.529    21991782.4994   21991783.4504  115567587.447 8  90052678.85245
     -1688.644       -1315.817
  23099807.279    23099807.3314   23099807.6234  121390352.461 7  94589880.91143
      1735.780        1352.550
  24044913.485    24044912.8764   24044912.3504  126356854.557 6  98459900.08342
     -3379.542       -2633.444
  24849426.466    24849427.2194   24849430.0254  130584626.243 6 101754259.67441
      3079.886        2399.929
 06  5  8 14 40 30.0000000  0  9G 2G 4G 6G 7G10G13G16G23G27
  21808881.874    21808881.8544   21808881.7944  114606438.865 7  89303733.00045
     -2841.755       -2214.353
  24562892.442    24562892.2614   24562894.6344  129078847.237 6 100580927.17141
     -3829.754       -2984.197
  21537536.143    21537535.9434   21537537.9164  113180529.790 7  88192624.70644
       114.755          89.438
  24396036.989    24396036.1514   24396040.6644  128202039.948 5  99897714.14041
      3232.934        2519.203
  21163825.055    21163824.3114   21163826.0964  111216657.895 7  86662347.35545
      2030.141        1581.944
  22001478.388    22001478.8214   22001479.0374  115618539.651 8  90092381.93445
     -1707.727       -1330.678
  23089950.448    23089950.0024   23089950.4554  121338553.868 6  94549518.38243
      1718.154        1338.837
  24064235.065    24064234.7754   24064234.4664  126458389.673 6  98539018.31543
     -3388.948       -2640.738
  24831863.443    24831862.7714   24831865.8794  130492329.728 5 101682340.32241
      3073.524        2394.930
 06  5  8 14 41  0.0000000  0  9G 2G 4G 6G 7G10G13G16G23G27
  21825148.175    21825148.0904   21825147.1494  114691915.221 7  89370337.93045
     -2856.827       -2226.113
  24584766.009    24584766.3574   24584768.1104  129193795.932 6 100670497.51641
     -3833.530       -2987.192
  21536939.348    21536938.8804   21536940.9174  113177392.348 7  88190179.85444
        94.250          73.456
  24377605.660    24377605.5094   24377607.6634  128105177.496 5  99822236.91841
      3224.407        2512.465
  21152288.059    21152287.6204   21152289.4894  111156032.613 7  86615106.92745
      2011.403        1567.330
  22011285.048    22011285.1224   22011285.4794  115670074.270 7  90132538.90645
     -1728.130       -1346.613
  23080195.045    23080194.9454   23080196.6654  121287293.390 6  94509575.14643
      1699.075        1323.945
  24083611.234    24083610.8394   24083610.0174  126560213.170 6  98618361.24942
     -3399.552       -2648.998
  24814336.818    24814337.9544   24814339.2734  130400232.598 5 101610576.36942
      3066.078        2389.090
 06  5  8 14 41 30.0000000  0  9G 2G 4G 6G 7G10G13G16G23G27
  21841495.549    21841495.5184   21841494.9904  114777822.846 7  89437279.00145
     -2870.809       -2236.998
  24606657.170    24606657.2694   24606661.6204  129308837.985 5 100760140.66241
     -3836.333       -2989.300
  21536454.032    21536454.3964   21536455.8554  113174843.070 7  88188193.30844
        75.185          58.578
  24359217.276    24359217.3184   24359218.5694  128008545.969 5  99746939.67141
      3217.158        2506.868
  21140854.702    21140854.0674   21140856.3344  111095948.534 8  86568288.08345
      1993.791        1553.617
  22021203.214    22021203.5264   22021203.8634  115722196.479 8  90173153.84045
     -1747.342       -1361.569
  23070544.473    23070544.3854   23070545.6934  121236579.239 6  94470057.62943
      1681.204        1310.032
  24103044.159    24103042.7704   24103042.4144  126662329.145 6  98697932.06542
     -3408.812       -2656.224
  24796851.630    24796851.7524   24796854.8274  130308343.855 6 101538974.73542
      3059.342        2383.954
 06  5  8 14 42  0.0000000  0 10G 2G 4G 6G 7G10G13G16G23G25G27
  21857924.763    21857924.4844   21857924.2734  114864158.214 7  89504553.31845
     -2885.767       -2248.671
  24628566.336    24628566.3194   24628569.4044  129423970.636 5 100849854.39841
     -3839.918       -2992.184
  21536080.816    21536080.9454   21536082.4974  113172881.793 7  88186664.99244
        54.522          42.493
  24340873.342    24340872.9394   24340875.5104  127912146.783 6  99671823.42441
      3208.356        2499.992
  21129524.541    21129523.6454   21129525.7694  111036406.910 8  86521891.85145
      1974.726        1538.749
  22031232.721    22031233.0464   22031233.4554  115774903.514 8  90214224.50145
     -1767.551       -1377.348
  23060998.411    23060998.2934   23060999.6344  121186412.793 6  94430966.91043
      1662.044        1295.081
  24122531.437    24122530.5824   24122529.0804  126764734.463 6  98777728.32042
     -3419.132       -2664.314
  25817473.897                                   135671720.917 4
     -3294.664
  24779405.951    24779405.4984   24779409.5174  130216665.534 6 101467536.97442
      3051.747        2377.940
 06  5  8 14 42 30.0000000  0  9G 2G 4G 6G 7G10G13G16G23G27
  21874437.260    21874437.1854   21874436.3134  114950934.859 7  89572171.74045
     -2899.645       -2259.472
  24650496.224    24650497.7144   24650497.4974  129539206.531 6 100939648.57941
     -3842.677       -2994.284
  21535822.840    21535822.5614   21535824.2354  113171523.116 7  88185606.19244
        35.573          27.715
  24322576.104    24322576.2534   24322578.9964  127815997.247 5  99596901.66041
      3201.031        2494.240
  21118300.696    21118299.8814   21118301.9364  110977424.169 8  86475931.02145
      1957.035        1524.966
  22041376.091    22041376.4364   22041377.0874  115828207.907 8  90255760.36545
     -1786.548       -1392.112
  23051559.105    23051559.0064   23051560.2964  121136810.515 6  94392315.78943
      1644.250        1281.235
  24142074.592    24142074.7164   24142073.8724  126867441.214 6  98857759.52043
     -3428.386       -2671.461
  24762004.093    24762002.9934   24762006.4774  130125214.869 6 101396276.76042
      3044.698        2372.481
 06  5  8 14 43  0.0000000  0 10G 2G 4G 6G 7G10G13G16G23G25G27
  21891028.670    21891028.5784   21891027.9534  115038123.028 7  89640110.68745
     -2913.575       -2270.318
  24672437.993    24672438.9894   24672441.9414  129654517.237 5 101029500.96041
     -3845.399       -2996.457
  21535673.473    21535673.6554   21535675.7034  113170740.843 7  88184996.55644
        15.889          12.390
  24304321.216    24304321.9464   24304326.7244  127720073.212 5  99522155.64242
      3192.913        2487.908
  21107178.292    21107177.7054   21107179.6514  110918976.180 7  86430387.14045
      1938.835        1510.778
  22051628.463    22051628.5934   22051629.2714  115882080.955 8  90297739.04945
     -1805.893       -1407.185
  23042223.031    23042223.1384   23042223.9184  121087747.752 6  94354085.09343
      1625.737        1266.806
  24161672.057    24161670.7014   24161669.4564  126970419.900 6  98938002.58942
     -3437.860       -2678.862
  25855157.151                                   135869605.866 3
     -3302.583
  24744639.639    24744639.4874   24744642.7224  130033967.336 5 101325174.75542
      3037.578        2366.951
 06  5  8 14 43 30.0000000  0  9G 2G 4G 6G 7G10G13G16G23G27
  21907701.258    21907701.4484   21907700.7444  115125739.188 7  89708383.11445
     -2928.017       -2281.569
  24694399.065    24694397.6384   24694403.6964  129769919.890 5 101119425.13041
     -3848.860       -2999.092
  21535637.927    21535638.1374   21535640.0384  113170553.676 7  88184850.61944
        -4.041          -3.124
  24286115.492    24286114.1554   24286119.1714  127624395.935 5  99447601.95242
      3184.586        2481.472
  21096161.421    21096160.5864   21096162.9394  110861082.910 8  86385275.50445
      1920.170        1496.244
  22061991.604    22061991.6894   22061992.0774  115936541.161 7  90340175.80845
     -1825.507       -1422.465
  23032993.863    23032993.4154   23032994.0884  121039245.413 7  94316291.11043
      1606.878        1252.127
  24181321.789    24181322.0654   24181321.3394  127073686.405 6  99018469.88742
     -3447.509       -2686.354
  24727318.222    24727317.1154   24727321.3964  129942944.484 5 101254247.91341
      3029.821        2360.866
 06  5  8 14 44  0.0000000  0  9G 2G 4G 6G 7G10G13G16G23G27
  21924453.086    21924452.9644   21924452.0474  115213770.042 7  89776978.60645
     -2941.636       -2292.178
  24716373.163    24716373.4604   24716377.2944  129885401.018 5 101209410.39941
     -3851.095       -3000.944
  21535713.969    21535714.0694   21535715.4864  113170950.840 7  88185159.91844
       -23.425         -18.250
  24267954.649    24267953.7334   24267956.6334  127528956.488 5  99373233.43941
      3176.636        2475.332
  21085248.406    21085247.7324   21085249.9754  110803734.914 8  86340588.81545
      1902.164        1482.196
  22072463.817    22072463.8794   22072464.4964  115991574.015 8  90383058.57045
     -1844.410       -1437.226
  23023868.256    23023867.6784   23023868.6554  120991293.552 6  94278926.04143
      1588.638        1237.927
  24201025.128    24201025.2754   24201024.8424  127177227.224 6  99099150.99042
     -3456.521       -2693.354
  24710038.341    24710039.4094   24710041.4084  129852137.896 6 101183489.58942
      3022.606        2355.240
 06  5  8 14 44 30.0000000  0  8G 2G 6G 7G10G13G16G23G27
  21941285.714    21941285.5704   21941284.7454  115302225.235 7  89845904.77245
     -2955.283       -2302.820
  21535903.183    21535903.1134   21535905.0574  113171944.167 7  88185933.66244
       -42.800         -33.348
  24249840.990    24249839.8934   24249843.7724  127433769.309 6  99299061.66341
      3168.823        2469.210
  21074442.187    21074441.3114   21074443.4504  110746945.411 8  86296337.08345
      1883.894        1467.968
  22083047.593    22083047.4164   22083048.0634  116047189.755 8  90426395.45045
     -1863.413       -1452.021
  23014851.110    23014850.9454   23014851.0814  120943906.336 6  94242000.98843
      1570.298        1223.648
  24220782.407    24220781.6314   24220781.3304  127281051.021 6  99180052.54242
     -3465.509       -2700.410
  24692803.194    24692802.4044   24692804.9764  129761562.084 6 101112911.07642
      3015.496        2349.732
 06  5  8 14 45  0.0000000  0  8G 2G 6G 7G10G13G16G23G27
  21958195.798    21958195.6704   21958194.5774  115391087.348 7  89915147.94045
     -2969.153       -2313.616
  21536203.191    21536202.8724   21536205.1074  113173518.653 7  88187160.17244
       -62.622         -48.798
  24231772.148    24231772.5154   24231774.4164  127338821.792 5  99225076.59442
      3160.490        2462.741
  21063739.204    21063738.4994   21063740.7484  110690701.492 8  86252510.52345
      1865.329        1453.508
  22093737.975    22093738.3584   22093738.6354  116103372.455 8  90470174.62245
     -1882.700       -1467.047
  23005938.336    23005938.2854   23005938.8704  120897070.388 6  94205505.45843
      1551.452        1208.905
  24240588.184    24240589.4054   24240589.2244  127385140.388 6  99261161.04542
     -3474.500       -2707.342
  24675607.195    24675607.5574   24675610.3864  129671204.116 6 101042502.28442
      3007.965        2343.890
 06  5  8 14 45 30.0000000  0  8G 2G 6G 7G10G13G16G23G27
  21975182.456    21975182.1724   21975181.3924  115480352.841 7  89984705.49945
     -2982.668       -2324.161
  21536613.539    21536613.4634   21536615.2264  113175673.521 7  88188838.97644
       -82.014         -63.879
  24213750.414    24213750.5254   24213753.0294  127244114.842 6  99151278.99842
      3152.216        2456.324
  21053140.417    21053139.6274   21053141.9214  110635003.369 8  86209109.16945
      1846.982        1439.216
  22104536.014    22104536.6054   22104537.0384  116160116.686 8  90514390.89145
     -1901.320       -1481.536
  22997130.186    22997129.9764   22997131.2564  120850785.635 7  94169439.43543
      1532.997        1194.507
  24260448.494    24260447.3384   24260446.1884  127489491.331 6  99342473.41642
     -3483.305       -2714.231
  24658454.752    24658453.4004   24658456.1254  129581064.713 5 100972263.78241
      3000.314        2337.899
 06  5  8 14 46  0.0000000  0  8G 2G 6G 7G10G13G16G23G27
  21992246.968    21992246.8394   21992246.2144  115570028.046 7  90054582.26845
     -2996.250       -2334.739
  21537135.439    21537135.4004   21537137.4324  113178417.973 7  88190977.71544
      -101.620         -79.182
  24195776.371    24195776.1604   24195779.4444  127149659.444 6  99077677.36942
      3143.943        2449.856
  21042647.403    21042646.7044   21042649.1604  110579861.275 8  86166141.12745
      1828.504        1424.819
  22115442.547    22115442.7554   22115443.2744  116217429.276 8  90559049.86245
     -1920.186       -1496.270
  22988430.100    22988429.7024   22988430.4664  120805062.396 7  94133810.98043
      1514.350        1179.966
  24280356.286    24280355.0934   24280355.4434  127594109.565 6  99423994.07842
     -3492.097       -2721.138
  24641345.539    24641345.2954   24641348.8464  129491155.420 6 100902204.64142
      2992.779        2332.042
 06  5  8 14 46 30.0000000  0  8G 2G 6G 7G10G13G16G23G27
  22009388.921    22009388.6264   22009387.8374  115660108.662 7  90124774.93145
     -3010.038       -2345.489
  21537769.443    21537769.2534   21537771.3034  113181749.756 7  88193574.04244
      -121.337         -94.588
  24177850.913    24177849.0984   24177852.3994  127055456.307 6  99004272.32842
      3135.438        2443.207
  21032259.933    21032259.4574   21032261.6364  110525275.713 8  86123607.02945
      1809.680        1410.130
  22126456.444    22126456.7054   22126456.7564  116275308.486 7  90604150.75345
     -1939.221       -1511.106
  22979836.085    22979835.6674   22979836.1314  120759901.054 6  94098620.35443
      1495.453        1165.271
  24300314.563    24300314.2014   24300313.5864  127698990.906 6  99505719.72042
     -3500.812       -2727.944
  24624281.159    24624280.8574   24624283.5154  129401477.087 6 100832325.46242
      2984.819        2325.830
 06  5  8 14 47  0.0000000  0  8G 2G 6G 7G10G13G16G23G27
  22026608.924    22026609.0924   22026608.5254  115750602.588 7  90195289.49845
     -3023.466       -2355.970
  21538516.996    21538516.7684   21538518.8654  113185679.175 7  88196636.11944
      -141.107        -110.003
  24159974.073    24159972.9774   24159978.0594  126961518.554 5  98931074.16942
      3126.572        2436.248
  21021980.583    21021979.8044   21021982.2324  110471258.053 8  86081515.40245
      1790.929        1395.529
  22137579.657    22137579.9264   22137580.2414  116333761.291 8  90649698.38245
     -1958.153       -1525.858
  22971351.523    22971350.4814   22971351.9994  120715313.713 6  94063876.98843
      1476.446        1150.444
  24320323.156    24320323.0184   24320322.9314  127804142.646 6  99587656.06042
     -3509.723       -2734.844
  24607261.133    24607261.3814   24607264.8644  129312042.242 6 100762635.93742
      2976.899        2319.649
 06  5  8 14 47 30.0000000  0  8G 2G 6G 7G10G13G16G23G27
  22043907.551    22043906.9904   22043906.2794  115841503.551 7  90266121.36844
     -3037.221       -2366.658
  21539377.385    21539377.2864   21539379.2004  113190201.451 7  88200160.16144
      -160.870        -125.342
  24142149.658    24142147.7334   24142151.2214  126867843.741 6  98858080.92141
      3117.677        2429.351
  21011808.716    21011808.2234   21011810.6324  110417805.966 8  86039864.61045
      1771.971        1380.758
  22148810.824    22148811.1024   22148811.2024  116392780.543 8  90695687.12445
     -1977.104       -1540.630
  22962975.029    22962975.0124   22962975.3584  120671297.222 6  94029578.46043
      1457.423        1135.653
  24340386.991    24340383.8584   24340382.8484  127909557.582 6  99669797.42342
     -3518.533       -2741.721
  24590288.877    24590288.6114   24590291.4294  129222849.186 5 100693134.91042
      2968.586        2313.158
 06  5  8 14 48  0.0000000  0  8G 2G 6G 7G10G13G16G23G27
  22061283.975    22061283.7324   22061283.3754  115932819.967 7  90337277.03044
     -3050.616       -2377.068
  21540353.046    21540352.6954   21540354.6794  113195327.846 7  88204154.80344
      -180.834        -140.911
  24124374.505    24124375.1024   24124377.6424  126774445.365 6  98785303.02242
      3108.654        2422.368
  21001747.476    21001746.6554   21001748.9464  110364930.831 8  85998662.96145
      1752.976        1365.958
  22160151.489    22160151.8684   22160151.9544  116452377.198 8  90742126.49745
     -1995.988       -1555.319
  22954710.779    22954710.1284   22954711.0164  120627864.292 6  93995734.65043
      1438.052        1120.567
  24360494.912    24360494.5594   24360494.8774  128015243.840 6  99752150.08742
     -3527.357       -2748.592
  24573364.649    24573364.0154   24573367.2224  129133910.920 6 100623832.36742
      2960.396        2306.807
 06  5  8 14 48 30.0000000  0  8G 2G 6G 7G10G13G16G23G27
  22078734.109    22078734.0044   22078733.3014  116024519.365 7  90408731.10944
     -3063.665       -2387.243
  21541437.216    21541437.3084   21541439.5574  113201027.636 7  88208596.15944
      -200.487        -156.201
  24106649.057    24106649.6954   24106652.4714  126681295.206 6  98712718.52142
      3100.095        2415.620
  20991790.171    20991789.5004   20991791.7744  110312604.684 8  85957889.11845
      1734.066        1351.204
  22171595.624    22171595.9484   22171595.8804  116512516.559 8  90788988.34545
     -2014.543       -1569.754
  22946549.202    22946550.1434   22946551.8634  120584986.380 6  93962323.31443
      1419.229        1105.908
  24380653.831    24380651.9714   24380651.9264  128121169.086 6  99834689.30242
     -3535.337       -2754.833
  24556483.432    24556483.3394   24556486.2064  129045200.383 6 100554707.40542
      2952.677        2300.770
 06  5  8 14 49  0.0000000  0  8G 2G 6G 7G10G13G16G23G27
  22096260.834    22096260.4354   22096260.1884  116116622.436 7  90480499.57044
     -3077.215       -2397.844
  21542635.783    21542635.7504   21542637.2404  113207324.787 7  88213503.01244
      -220.197        -171.555
  24088974.587    24088975.2654   24088978.7364  126588419.878 5  98640348.27442
      3091.063        2408.545
  20981942.213    20981941.2394   20981943.4464  110260854.575 8  85917565.07445
      1715.118        1336.441
  22183147.551    22183147.7304   22183147.7954  116573221.390 8  90836290.87945
     -2033.113       -1584.247
  22938501.574    22938501.1564   22938502.0094  120542688.188 7  93929363.63843
      1400.035        1090.936
  24400857.994    24400859.3544   24400858.9954  128227353.682 6  99917430.50642
     -3543.927       -2761.490
  24539650.537    24539649.8484   24539653.9064  128956743.189 6 100485779.79042
      2944.039        2294.055
 06  5  8 14 49 30.0000000  0  8G 2G 6G 7G10G13G16G23G27
  22113862.896    22113862.9674   22113862.1044  116209123.070 7  90552578.00144
     -3090.464       -2408.138
  21543946.484    21543946.9184   21543948.8824  113214214.915 7  88218871.95744
      -240.250        -187.200
  24071353.245    24071353.3224   24071356.8544  126495817.370 6  98568190.76242
      3081.468        2401.096
  20972202.757    20972202.1934   20972204.3674  110209674.233 8  85877684.04845
      1695.815        1321.435
  22194805.409    22194805.6834   22194806.1064  116634484.917 7  90884028.70445
     -2052.082       -1599.016
  22930562.602    22930562.3754   22930563.5324  120500967.385 7  93896853.91343
      1380.322        1075.582
  24421110.761    24421113.1364   24421112.2014  128333790.463 6 100000368.14842
     -3552.722       -2768.341
  24522864.563    24522864.1574   24522868.9554  128868537.449 6 100417048.18142
      2935.462        2287.361
 06  5  8 14 50  0.0000000  0  8G 2G 6G 7G10G13G16G23G27
  22131539.466    22131539.2004   22131538.4144  116302012.189 7  90624958.95644
     -3102.929       -2417.897
  21545369.687    21545369.6434   21545371.5484  113221691.387 7  88224697.77044
      -259.074        -201.883
  24053781.961    24053782.1624   24053785.9794  126403483.060 5  98496241.96542
      3073.128        2394.688
  20962571.324    20962570.6874   20962572.9744  110159060.946 8  85838245.09445
      1677.588        1307.215
  22206568.045    22206568.5294   22206568.6044  116696298.551 8  90932195.14345
     -2069.792       -1612.832
  22922732.530    22922731.4054   22922732.5544  120459819.171 7  93864790.35243
      1361.890        1061.233
  24441414.300    24441413.5114   24441412.1264  128440470.560 6 100083495.35842
     -3560.256       -2774.236
  24506127.168    24506126.7224   24506129.3744  128780579.669 6 100348509.73942
      2927.645        2281.271
 06  5  8 14 50 30.0000000  0  8G 2G 6G 7G10G13G16G23G27
  22149290.143    22149289.6654   22149288.7594  116395289.994 7  90697642.83244
     -3116.076       -2428.120
  21546904.681    21546904.7194   21546906.3524  113229756.569 7  88230982.30744
      -279.018        -217.422
  24036264.402    24036263.6384   24036266.4784  126311422.310 5  98424506.43442
      3063.765        2387.357
  20953048.385    20953047.7984   20953049.8534  110109018.405 8  85799250.94845
      1658.188        1292.086
  22218435.666    22218436.0724   22218436.4514  116758662.473 7  90980790.23645
     -2088.347       -1627.283
  22915010.825    22915011.4924   22915012.4754  120419247.493 6  93833176.04243
      1342.349        1045.980
  24461760.342    24461760.0274   24461760.0144  128547393.967 6 100166812.17042
     -3568.568       -2780.756
  24489438.385    24489437.1004   24489439.4064  128692874.123 6 100280167.78742
      2919.002        2274.554
 06  5  8 14 51  0.0000000  0  7G 2G 6G 7G10G13G16G27
  22167114.842    22167114.9804   22167114.1694  116488962.253 7  90770634.12945
     -3129.664       -2438.708
  21548552.733    21548552.6844   21548554.8564  113238418.465 7  88237731.80144
      -299.245        -233.176
  24018799.372    24018799.5124   24018803.5404  126219645.531 5  98352992.18842
      3053.885        2379.596
  20943636.160    20943635.4954   20943637.6674  110059555.676 8  85760708.58645
      1638.324        1276.604
  22230409.045    22230409.4434   22230409.8774  116821582.858 8  91029819.00145
     -2107.404       -1642.127
  22907402.480    22907402.2924   22907403.1424  120379262.059 7  93802018.58843
      1322.318        1030.352
  24472797.230    24472798.2034   24472799.0384  128605431.673 6 100212030.88542
      2909.647        2267.229
 06  5  8 14 51 30.0000000  0  7G 2G 6G 7G10G13G16G27
  22185012.783    22185013.3024   22185012.4984  116583017.191 7  90843923.63844
     -3141.475       -2447.881
  21550313.114    21550312.6144   21550314.7514  113247667.379 7  88244938.75544
      -318.108        -247.871
  24001387.776    24001387.4394   24001390.7784  126128145.646 5  98281693.68342
      3045.427        2373.083
  20934332.655    20934331.8464   20934333.8834  110010665.012 8  85722611.96745
      1619.996        1262.316
  22242486.216    22242486.6344   22242487.0144  116885048.038 8  91079272.23645
     -2124.730       -1655.618
  22899903.384    22899902.9454   22899904.0024  120339854.574 7  93771311.44143
      1303.809        1015.977
  24456206.088    24456207.1274   24456209.6244  128518245.159 6 100144093.43242
      2901.987        2261.258
 06  5  8 14 52  0.0000000  0  7G 2G 6G 7G10G13G16G27
  22202985.673    22202985.3334   22202984.1734  116677461.098 7  90917516.16544
     -3154.650       -2458.197
  21552186.018    21552186.1294   21552188.0044  113257512.196 7  88252610.08344
      -338.171        -263.522
  23984030.426    23984030.6484   23984034.4954  126036933.745 5  98210619.53842
      3035.372        2365.213
  20925139.690    20925139.0244   20925141.1314  109962357.424 8  85684969.97845
      1600.509        1247.137
  22254668.402    22254668.7314   22254668.9634  116949064.939 8  91129155.53445
     -2143.177       -1670.019
  22892516.855    22892515.8164   22892517.0034  120301035.876 7  93741063.12943
      1283.963        1000.492
  24439666.811    24439666.4994   24439669.7984  128431326.362 6 100076364.60843
      2892.617        2253.951
 06  5  8 14 52 30.0000000  0  7G 2G 6G 7G10G13G16G27
  22221031.058    22221030.8714   22221029.6984  116772289.042 7  90991407.93044
     -3167.472       -2468.167
  21554172.413    21554172.2304   21554174.4334  113267949.710 7  88260743.16344
      -357.929        -278.913
  23966727.864    23966727.4214   23966730.6614  125946009.765 6  98139769.81842
      3025.915        2357.861
  20916057.402    20916056.7724   20916058.7644  109914631.216 8  85647781.09945
      1581.023        1231.931
  22266954.554    22266954.6544   22266955.3034  117013628.120 7  91179464.28045
     -2161.472       -1684.287
  22885241.618    22885241.0344   22885242.2004  120262803.885 7  93711271.98543
      1264.329         985.198
  24423176.312    24423176.4194   24423180.1554  128344674.472 6 100008843.66742
      2883.761        2247.121
 06  5  8 14 53  0.0000000  0  7G 2G 6G 7G10G13G16G27
  22239145.142    22239145.5434   22239145.2054  116867486.337 7  91065587.65144
     -3179.567       -2477.624
  21556268.764    21556268.8804   21556271.1374  113278967.422 7  88269328.37744
      -377.071        -293.845
  23949478.778    23949478.5824   23949481.8934  125855363.376 6  98069136.27742
      3017.007        2350.926
  20907083.568    20907082.7814   20907084.7034  109867475.653 8  85611037.10445
      1562.099        1217.198
  22279341.488    22279341.8984   22279342.5764  117078723.161 7  91230187.55345
     -2178.941       -1697.882
  22878075.720    22878075.2604   22878076.7094  120225148.426 6  93681930.04843
      1245.455         970.487
  24406736.015    24406736.7434   24406739.2444  128258279.440 6  99941522.93542
      2875.369        2240.553
 06  5  8 14 53 30.0000000  0  7G 2G 6G 7G10G13G16G27
  22257331.807    22257331.6194   22257331.5424  116963054.322 7  91140056.19244
     -3191.937       -2487.236
  21558476.587    21558476.6514   21558478.5034  113290568.816 7  88278368.40044
      -396.615        -309.042
  23932283.985    23932283.4194   23932285.2554  125765001.133 6  97998724.23842
      3007.317        2343.389
  20898219.439    20898218.7094   20898220.5174  109820894.839 8  85574740.53445
      1542.854        1202.238
  22291830.646    22291830.7724   22291831.3674  117144351.711 7  91281326.57545
     -2196.806       -1711.797
  22871020.957    22871020.1514   22871021.7744  120188074.515 6  93653041.29743
      1225.936         955.241
  24390345.812    24390346.4064   24390349.2374  128172147.637 6  99874407.24243
      2866.465        2233.634
 06  5  8 14 54  0.0000000  0  7G 2G 6G 7G10G13G16G27
  22275590.125    22275590.0804   22275589.8444  117059000.955 7  91214819.75844
     -3204.198       -2496.777
  21560797.235    21560797.3934   21560799.1394  113302764.501 7  88287871.58244
      -416.034        -324.192
  23915144.855    23915144.3784   23915145.8094  125674935.766 6  97928543.52842
      2997.463        2335.688
  20889467.080    20889466.4684   20889468.4544  109774900.268 8  85538900.29045
      1523.767        1187.344
  22304422.151    22304422.3944   22304422.9814  117210522.692 7  91332888.53544
     -2214.284       -1725.421
  22864079.509    22864078.8064   22864079.3564  120151593.869 7  93624614.78843
      1206.502         940.138
  24374008.977    24374007.9184   24374011.3834  128086292.125 6  99807506.87742
      2857.490        2226.594
 06  5  8 14 54 30.0000000  0  7G 2G 6G 7G10G13G16G27
  22293916.701    22293916.5524   22293916.3874  117155308.680 7  91289864.72044
     -3216.240       -2506.169
  21563228.268    21563228.0474   21563230.0454  113315538.484 7  88297825.34244
      -435.549        -339.387
  23898059.758    23898058.6654   23898061.9784  125585154.337 6  97858584.03142
      2987.991        2328.316
  20880823.949    20880823.1904   20880825.1674  109729479.299 8  85503507.22145
      1504.347        1172.226
  22317113.867    22317114.2924   22317114.8974  117277217.888 7  91384858.86544
     -2231.988       -1739.208
  22857247.289    22857246.5534   22857248.2404  120115692.565 6  93596639.70143
      1186.943         924.896
  24357720.903    24357721.2974   24357722.9684  128000700.094 6  99740811.83342
      2848.671        2219.771
 06  5  8 14 55  0.0000000  0  7G 2G 6G 7G10G13G16G27
  22312313.301    22312312.6034   22312312.5884  117251983.162 7  91365195.42844
     -3229.178       -2516.247
  21565770.285    21565770.6154   21565772.5134  113328899.386 7  88308236.48144
      -455.865        -355.228
  23881031.036    23881029.6514   23881032.7864  125495667.661 6  97788854.08842
      2977.252        2319.946
  20872291.747    20872290.9794   20872292.7054  109684641.940 8  85468569.04845
      1484.192        1156.512
  22329906.574    22329906.6184   22329907.2934  117344443.354 7  91437242.27244
     -2250.273       -1753.464
  22850527.223    22850527.2984   22850527.8244  120080380.702 6  93569123.97843
      1166.573         909.018
  24341486.370    24341485.4024   24341488.4644  127915382.762 6  99674330.79442
      2838.745        2212.012
 06  5  8 14 55 30.0000000  0  7G 2G 6G 7G10G13G16G27
  22330779.773    22330779.3854   22330778.8074  117349022.745 7  91440810.47344
     -3241.314       -2525.687
  21568424.825    21568425.0524   21568426.4034  113342847.112 7  88319104.84044
      -475.054        -370.177
  23864058.328    23864058.5314   23864061.2464  125406479.081 6  97719356.50542
      2967.441        2312.290
  20863870.788    20863870.0754   20863872.1004  109640389.839 8  85434086.81745
      1464.950        1141.536
  22342799.618    22342799.9434   22342800.6564  117412197.705 7  91490037.81244
     -2267.580       -1766.905
  22843920.400    22843920.0674   22843920.9334  120045660.046 7  93542068.93343
      1147.194         893.924
  24325302.219    24325302.4634   24325305.9914  127830342.852 6  99608065.99442
      2829.391        2204.756
 06  5  8 14 56  0.0000000  0  7G 2G 6G 7G10G13G16G27
  22349314.408    22349314.1444   22349313.8064  117446424.741 7  91516708.10144
     -3253.137       -2534.911
  21571190.685    21571190.0504   21571192.5884  113357380.183 7  88330429.29644
      -494.563        -385.380
  23847143.253    23847143.5834   23847146.9854  125317589.362 6  97650091.70542
      2957.585        2304.566
  20855561.291    20855560.8464   20855562.5994  109596723.159 8  85400060.82045
      1445.490        1126.366
  22355792.735    22355793.2684   22355793.4724  117480477.412 7  91543242.88344
     -2284.953       -1780.485
  22837425.577    22837425.2424   22837425.7504  120011530.790 7  93515474.72043
      1127.424         878.502
  24309173.736    24309173.3634   24309175.7284  127745581.543 6  99542018.25642
      2820.395        2197.690
 06  5  8 14 56 30.0000000  0  7G 2G 6G 7G10G13G16G27
  22367916.018    22367916.1734   22367916.2834  117544178.451 7  91592879.67044
     -3265.050       -2544.201
  21574066.228    21574065.5984   21574068.0554  113372490.636 7  88342203.58244
      -513.912        -400.456
  23830284.723    23830283.3214   23830287.2274  125228993.876 6  97581056.26942
      2947.623        2296.886
  20847362.297    20847361.2324   20847363.2874  109553636.281 8  85366486.85345
      1425.870        1111.053
  22368883.765    22368884.5074   22368884.7324  117549272.260 7  91596849.24544
     -2302.457       -1794.122
  22831042.551    22831042.3854   22831043.1474  119977987.050 6  93489336.80543
      1107.683         863.170
  24293096.409    24293096.2724   24293098.5234  127661093.808 6  99476183.63843
      2811.007        2190.392
 06  5  8 14 57  0.0000000  0  7G 2G 6G 7G10G13G16G27
  22386587.167    22386587.3244   22386587.4154  117642295.224 7  91669334.29444
     -3277.003       -2553.533
  21577053.686    21577053.7534   21577055.8634  113388191.914 7  88354438.28044
      -533.613        -415.797
  23813483.867    23813484.1724   23813486.6974  125140708.256 6  97512262.32542
      2937.294        2288.838
  20839275.554    20839275.1744   20839276.8724  109511143.164 8  85333375.47845
      1406.162        1095.724
  22382075.691    22382075.7324   22382076.4924  117618593.703 7  91650865.88144
     -2319.794       -1807.620
  22824773.668    22824773.1764   22824773.9054  119945043.093 6  93463666.21843
      1087.818         847.629
  24277073.375    24277072.4184   24277076.4984  127576895.621 6  99410574.70642
      2801.389        2182.867
 06  5  8 14 57 30.0000000  0  7G 2G 6G 7G10G13G16G27
  22405327.196    22405326.8474   22405326.3694  117740772.289 7  91746069.71444
     -3289.178       -2562.956
  21580153.962    21580154.0144   21580155.5084  113404482.960 7  88367132.53544
      -553.547        -431.304
  23796743.262    23796744.4874   23796746.3334  125052734.299 6  97443711.17642
      2926.581        2280.456
  20831302.675    20831302.1684   20831304.0284  109469244.351 8  85300726.93545
      1386.033        1080.043
  22395367.259    22395367.0504   22395367.8044  117688438.552 7  91705290.10944
     -2337.631       -1821.527
  22818618.551    22818618.5054   22818619.1444  119912700.004 7  93438463.87043
      1067.394         831.782
  24261106.343    24261106.3874   24261109.1134  127492988.954 6  99345192.90343
      2791.166        2174.928
 06  5  8 14 58  0.0000000  0  7G 2G 6G 7G10G13G16G27
  22424135.732    22424135.4494   22424135.0704  117839611.101 7  91823086.90244
     -3301.165       -2572.323
  21583367.653    21583366.7644   21583368.7364  113421367.939 7  88380289.71044
      -573.235        -446.675
  23780062.643    23780063.4094   23780065.4534  124965078.707 6  97375408.08242
      2915.836        2272.058
  20823443.955    20823443.3494   20823445.2454  109427945.494 8  85268545.83645
      1366.168        1064.566
  22408758.313    22408758.0734   22408759.2554  117758809.903 7  91760124.99244
     -2354.906       -1834.982
  22812579.364    22812579.1414   22812579.8754  119880962.962 7  93413733.75643
      1047.314         816.106
  24245196.598    24245195.5884   24245199.4264  127409380.382 6  99280043.38243
      2781.575        2167.457
 06  5  8 14 58 30.0000000  0  8G 2G 6G 7G10G13G16G21G27
  22443012.259    22443011.9814   22443012.2124  117938810.183 7  91900384.81444
     -3312.588       -2581.278
  21586693.067    21586693.3094   21586695.1474  113438846.631 7  88393909.40044
      -592.444        -461.642
  23763444.370    23763443.4004   23763447.1124  124877744.903 6  97307355.74142
      2905.791        2264.198
  20815699.516    20815699.1814   20815701.1164  109387249.206 8  85236834.32145
      1346.466        1049.171
  22422248.893    22422249.0364   22422249.9644  117829705.518 7  91815368.34844
     -2371.911       -1848.260
  22806656.689    22806655.3444   22806656.1384  119849834.326 6  93389477.71043
      1027.552         800.682
  24877431.401    24877431.6344   24877435.7674  130731811.348 4 101868950.86741
      3796.231        2958.087
  24229343.773    24229342.7424   24229345.4754  127326073.410 6  99215128.94943
      2771.844        2159.864
 06  5  8 14 59  0.0000000  0  8G 2G 6G 7G10G13G16G21G27
  22461955.238    22461955.1814   22461955.0324  118038356.481 7  91977953.37944
     -3324.237       -2590.315
  21590130.453    21590130.1104   21590132.0924  113456908.389 7  88407983.52844
      -612.073        -476.926
  23746884.586    23746884.5854   23746886.5034  124790724.508 6  97239547.72442
      2895.026        2255.862
  20808068.291    20808067.7294   20808069.7854  109347146.006 8  85205585.09345
      1326.626        1033.758
  22435837.562    22435837.4084   22435838.1154  117901112.525 7  91871010.32744
     -2389.037       -1861.591
  22800846.419    22800846.0274   22800845.9234  119819304.289 7  93365688.09043
      1007.284         784.881
  24855766.589    24855768.1044   24855770.7814  130617966.511 5 101780240.52941
      3792.951        2955.563
  24213546.542    24213546.2804   24213548.7624  127243059.198 6  99150442.60943
      2761.964        2152.164
 06  5  8 14 59 30.0000000  0  8G 2G 6G 7G10G13G16G21G27
  22480965.644    22480965.7954   22480965.9844  118138257.989 7  92055798.62244
     -3336.206       -2599.590
  21593680.022    21593679.8654   21593681.9244  113475563.187 7  88422519.74444
      -631.934        -492.375
  23730387.745    23730386.6594   23730389.7744  124704030.388 6  97171993.84542
      2884.146        2247.415
  20800551.885    20800551.4294   20800553.3604  109307647.788 8  85174807.32445
      1306.235        1017.844
  22449524.263    22449524.5044   22449525.3124  117973038.903 7  91927056.87844
     -2406.461       -1875.144
  22795153.302    22795152.4484   22795153.0874  119789385.172 7  93342374.53543
       986.838         768.934
  24834122.706    24834123.2224   24834123.8014  130504225.738 5 101691611.30841
      3789.305        2952.638
  24197807.756    24197807.2604   24197809.0934  127160351.496 6  99085995.16342
      2751.500        2143.986
 06  5  8 15  0  0.0000000  0  8G 2G 6G 7G10G13G16G21G27
  22500041.382    22500040.8954   22500041.1174  118238498.952 7  92133908.40344
     -3347.085       -2608.150
  21597340.321    21597340.1644   21597342.1874  113494796.737 7  88437506.90744
      -650.841        -507.174
  23713949.978    23713949.6734   23713953.0724  124617651.095 6  97104685.28142
      2873.886        2239.399
  20793148.337    20793147.7184   20793149.5644  109268741.515 8  85144490.76246
      1286.863        1002.739
  22463307.435    22463307.5644   22463308.2704  118045468.450 7  91983495.51844
     -2422.781       -1887.888
  22789572.377    22789573.2044   22789573.4534  119760063.912 7  93319526.83043
       967.305         753.760
  24812497.284    24812496.9184   24812500.4754  130390577.270 5 101603054.01341
      3786.783        2950.798
  24182125.075    24182124.1924   24182127.2794  127077938.234 6  99021777.05142
      2742.111        2136.682
 06  5  8 15  0 30.0000000  0  8G 2G 6G 7G10G13G16G21G27
  22519178.956    22519179.0154   22519179.0254  118339068.663 7  92212274.45644
     -3357.958       -2616.587
  21601108.619    21601108.6444   21601110.5574  113514600.148 7  88452937.98044
      -669.725        -521.849
  23697570.948    23697570.8244   23697572.9594  124531581.354 6  97037618.09542
      2863.616        2231.349
  20785856.166    20785855.5324   20785857.6354  109230419.828 8  85114629.45646
      1267.572         987.726
  22477184.166    22477184.4374   22477184.4954  118118390.723 7  92040318.04544
     -2438.965       -1900.492
  22784105.651    22784105.7734   22784106.4054  119731333.643 7  93297139.63443
       947.723         738.511
  24790888.703    24790889.0474   24790889.7744  130277015.139 5 101514564.18441
      3783.667        2948.250
  24166496.246    24166495.9154   24166500.8464  126995813.961 6  98957784.18943
      2732.566        2129.272
 06  5  8 15  1  0.0000000  0  8G 2G 6G 7G10G13G16G21G27
  22538382.448    22538382.4164   22538382.1204  118439981.679 7  92290907.65844
     -3370.581       -2626.399
  21604988.957    21604988.8344   21604991.1604  113534991.016 7  88468826.88344
      -690.514        -538.054
  23681255.304    23681255.3074   23681257.7284  124445840.796 6  96970807.36242
      2851.462        2221.909
  20778678.847    20778678.3494   20778680.4604  109192702.108 8  85085238.77945
      1246.095         971.028
  22491157.210    22491157.3704   22491157.7184  118191820.957 7  92097536.35544
     -2457.221       -1914.680
  22778754.798    22778754.6044   22778754.9844  119703212.878 6  93275227.35543
       926.156         721.716
  24769299.751    24769296.1834   24769299.6284  130163559.238 5 101426157.18641
      3779.174        2944.850
  24150927.567    24150927.1154   24150930.3434  126913998.635 6  98894032.01942
      2720.815        2120.123
 06  5  8 15  1 30.0000000  0  8G 2G 6G 7G10G13G16G21G27
  22557650.076    22557649.9974   22557649.5794  118541234.576 7  92369806.05744
     -3381.050       -2634.630
  21608980.937    21608980.7594   21608982.2424  113555966.837 7  88485171.89044
      -709.179        -552.614
  23665001.426    23665001.9114   23665003.9934  124360429.088 6  96904252.75442
      2841.385        2214.077
  20771616.501    20771615.6644   20771617.8664  109155587.709 8  85056318.51146
      1226.776         955.913
  22505226.341    22505226.9274   22505227.3034  118265754.025 7  92155146.29844
     -2473.084       -1927.079
  22773519.651    22773518.3174   22773519.4194  119675700.590 7  93253789.20743
       906.704         706.517
  24747731.799    24747730.2454   24747732.1704  130050208.700 5 101337832.19841
      3776.381        2942.600
  24135417.101    24135417.4854   24135420.1664  126832492.449 6  98830520.72743
      2711.456        2112.823
 06  5  8 15  2  0.0000000  0  8G 2G 6G 7G10G13G16G21G27
  22576981.326    22576981.2924   22576981.8344  118642821.587 7  92448964.69644
     -3392.075       -2643.099
  21613082.556    21613082.4264   21613084.2434  113577524.377 7  88501970.31944
      -728.668        -567.784
  23648811.527    23648811.4424   23648814.4714  124275346.820 6  96837954.89442
      2830.062        2205.252
  20764668.004    20764667.3414   20764669.4894  109119074.518 8  85027866.60946
      1206.679         940.283
  22519390.517    22519390.6354   22519391.2584  118340185.462 7  92213144.56744
     -2489.760       -1940.052
  22768399.082    22768399.1924   22768399.9054  119648795.446 6  93232824.19443
       886.272         690.619
  24726181.381    24726178.6594   24726178.7914  129936963.384 5 101249589.17641
      3772.466        2939.579
  24119966.837    24119966.8634   24119969.4744  126751295.644 6  98767250.54043
      2701.007        2104.685
 06  5  8 15  2 30.0000000  0  8G 2G 6G 7G10G13G16G21G27
  22596378.011    22596378.1374   22596378.0054  118744752.323 7  92528391.48444
     -3403.097       -2651.737
  21617297.363    21617297.2324   21617298.9254  113599674.195 7  88519230.25344
      -747.997        -582.881
  23632685.488    23632685.1034   23632688.1404  124190607.662 6  96771924.49942
      2819.087        2196.679
  20757836.871    20757836.0754   20757838.3044  109083175.487 8  84999893.34446
      1186.646         924.658
  22533651.143    22533651.2784   22533651.6254  118415125.217 7  92271539.33644
     -2506.130       -1952.818
  22763397.395    22763397.3904   22763397.8354  119622510.007 7  93212342.10843
       866.062         674.858
  24704651.879    24704649.3604   24704650.1314  129823836.961 5 101161438.67541
      3768.989        2936.935
  24104577.671    24104576.3674   24104579.3854  126670421.925 6  98704232.26543
      2690.622        2096.607
 06  5  8 15  3  0.0000000  0  8G 2G 6G 7G10G13G16G21G27
  22615834.386    22615834.3864   22615833.6914  118846994.484 7  92608060.70144
     -3413.452       -2659.828
  21621618.864    21621618.9234   21621620.6004  113622385.945 7  88536927.87144
      -766.638        -597.378
  23616620.714    23616620.3094   23616623.9284  124106184.469 6  96706140.16542
      2808.625        2188.528
  20751116.941    20751116.2214   20751118.3884  109047862.632 8  84972376.92746
      1167.128         909.475
  22548002.188    22548002.2764   22548002.7964  118490540.158 7  92330304.10944
     -2521.973       -1965.147
  22758508.063    22758507.6714   22758508.3264  119596815.881 7  93192320.73143
       846.400         659.558
  24683142.016    24683141.7524   24683141.9894  129710802.677 5 101073359.98341
      3766.130        2934.718
  24089242.902    24089241.9324   24089245.8404  126589843.964 6  98641444.37743
      2680.807        2088.933
 06  5  8 15  3 30.0000000  0  8G 2G 6G 7G10G13G16G21G27
  22635352.332    22635351.8454   22635351.4874  118949560.247 7  92687982.00044
     -3425.044       -2668.862
  21626050.586    21626050.0104   21626052.1684  113645674.418 7  88555075.10744
      -786.714        -613.029
  23600619.327    23600619.3094   23600621.4564  124022094.246 6  96640615.31242
      2796.535        2179.151
  20744511.639    20744510.7624   20744512.8734  109013150.933 8  84945328.84546
      1146.218         893.143
  22562445.698    22562445.8344   22562446.0744  118566443.406 7  92389449.63044
     -2539.130       -1978.544
  22753733.962    22753734.0024   22753734.5964  119571728.873 7  93172772.43443
       825.153         642.964
  24661651.402    24661652.2944   24661651.9894  129597877.052 5 100985365.99641
      3761.636        2931.183
  24073968.907    24073968.7054   24073971.4504  126509578.893 6  98578900.20243
      2669.379        2080.079
 06  5  8 15  4  0.0000000  0  8G 2G 6G 7G10G13G16G21G27
  22654932.887    22654932.7964   22654932.5694  119052458.568 7  92768162.41544
     -3435.899       -2677.335
  21630593.190    21630593.4974   21630595.1964  113669549.734 7  88573679.53544
      -806.190        -628.193
  23584682.499    23584681.9984   23584685.6164  123938350.949 6  96575360.83142
      2785.203        2170.285
  20738023.065    20738022.2814   20738024.2444  108979053.124 8  84918759.20646
      1125.839         877.306
  22576984.727    22576984.2554   22576985.6374  118642841.788 7  92448980.16444
     -2555.235       -1991.064
  22749077.968    22749077.7194   22749078.1944  119547261.153 7  93153706.68143
       804.790         627.119
  24640185.986    24640188.2584   24640187.2454  129485073.877 5 100897467.51641
      3757.701        2928.120
  24058757.832    24058756.9304   24058760.2074  126429640.522 6  98516610.61443
      2658.865        2071.878
 06  5  8 15  4 30.0000000  0  8G 2G 6G 7G10G13G16G21G27
  22674576.093    22674576.0314   22674576.4754  119155686.498 7  92848600.07644
     -3446.636       -2685.702
  21635247.642    21635247.5674   21635249.4754  113694009.373 7  88592739.08844
      -825.343        -643.119
  23568814.099    23568813.2184   23568815.8604  123854955.239 6  96510377.22642
      2773.810        2161.423
  20731650.992    20731650.2654   20731652.1794  108945568.453 8  84892667.27146
      1105.570         861.486
  22591616.526    22591616.7664   22591617.6684  118719734.302 7  92508896.44244
     -2571.699       -2003.914
  22744539.470    22744539.2064   22744539.9664  119523411.884 7  93135122.85443
       784.351         611.183
  24618744.600    24618743.8274   24618745.4544  129372393.232 5 100809664.44241
      3753.788        2925.138
  24043607.991    24043608.1544   24043610.7924  126350029.549 6  98454576.17843
      2647.915        2063.334
 06  5  8 15  5  0.0000000  0  8G 2G 6G 7G10G13G16G21G27
  22694278.620    22694278.1204   22694277.9474  119259222.729 7  92929277.79644
     -3456.728       -2693.560
  21640010.160    21640009.9344   21640011.3774  113719035.476 7  88612239.99344
      -844.024        -657.678
  23553006.294    23553005.4024   23553009.7584  123771891.953 6  96445652.63942
      2762.830        2152.833
  20725392.690    20725391.9844   20725393.9944  108912680.268 8  84867040.07346
      1086.034         846.265
  22606338.998    22606339.0694   22606339.6114  118797099.808 7  92569181.36444
     -2586.996       -2015.849
  22740115.677    22740115.2214   22740116.3144  119500164.880 6  93117008.29243
       764.519         595.746
  24597321.223    24597322.6384   24597320.6884  129259819.823 5 100721944.97941
      3749.949        2921.955
  24028517.293    24028517.3624   24028520.1624  126270730.513 6  98392784.75743
      2637.699        2055.320
 06  5  8 15  5 30.0000000  0  8G 2G 6G 7G10G13G16G21G27
  22714042.197    22714041.8564   22714041.6534  119363080.247 7  93010205.78244
     -3467.424       -2701.833
  21644883.177    21644882.9424   21644883.9304  113744642.348 7  88632193.41044
      -863.227        -672.617
  23537266.998    23537266.3074   23537269.3804  123689178.241 6  96381200.50242
      2751.383        2143.974
  20719250.669    20719249.9554   20719251.8944  108880404.812 8  84841890.35146
      1065.481         830.250
  22621152.847    22621153.4274   22621154.7024  118874949.730 7  92629843.34844
     -2603.155       -2028.418
  22735809.407    22735809.8294   22735809.8854  119477535.717 7  93099375.17643
       744.048         579.804
  24575921.758    24575924.5724   24575922.7714  129147370.944 5 100634322.42441
      3746.044        2919.036
  24013489.818    24013490.3614   24013492.4704  126191761.478 6  98331250.55843
      2626.597        2046.711
 06  5  8 15  6  0.0000000  0  8G 2G 6G 7G10G13G16G21G27
  22733863.255    22733864.1154   22733864.0384  119467248.471 6  93091375.82644
     -3478.048       -2710.176
  21649864.942    21649864.9844   21649866.6194  113770820.788 7  88652592.05844
      -882.769        -687.879
  23521592.654    23521592.1314   23521596.0424  123606808.502 6  96317016.35842
      2739.245        2134.491
  20713224.098    20713223.4684   20713225.3144  108848735.039 8  84817212.64646
      1044.849         814.165
  22636057.624    22636057.5724   22636058.4824  118953276.004 7  92690877.41544
     -2619.414       -2041.101
  22731619.779    22731619.3304   22731619.8814  119455517.318 7  93082217.93443
       723.024         563.427
  24554545.124    24554547.0574   24554547.7844  129035040.630 5 100546792.30041
      3741.961        2915.859
  23998524.870    23998524.2394   23998527.0294  126113116.270 6  98269968.69643
      2615.349        2037.928
 06  5  8 15  6 30.0000000  0  8G 2G 6G 7G10G13G16G21G27
  22753747.739    22753748.4094   22753747.7114  119571738.936 7  93172796.92244
     -3488.655       -2718.441
  21654957.683    21654958.0714   21654959.1674  113797584.570 7  88673446.79244
      -902.208        -703.018
  23505986.377    23505985.6004   23505989.0224  123524799.019 6  96253112.89842
      2727.129        2125.061
  20707315.515    20707314.8044   20707316.8684  108817685.863 8  84793018.56546
      1024.474         798.304
  22651055.470    22651055.5924   22651055.5744  119032086.850 7  92752288.25444
     -2635.345       -2053.493
  22727548.962    22727548.2834   22727549.4424  119434124.407 7  93065548.01343
       702.308         547.231
  24533196.895    24533196.6944   24533198.2244  128922845.025 5 100459367.12241
      3737.054        2911.961
  23983623.469    23983623.4154   23983625.4654  126034811.303 6  98208952.03543
      2604.189        2029.239
 06  5  8 15  7  0.0000000  0  8G 2G 6G 7G10G13G16G21G27
  22773690.119    22773690.4734   22773689.9094  119676535.774 7  93254456.56444
     -3498.744       -2726.298
  21660160.091    21660159.6914   21660161.0074  113824919.668 7  88694746.72644
      -920.985        -717.621
  23490447.163    23490446.0644   23490448.8844  123443138.932 6  96189481.69342
      2715.858        2116.264
  20701522.941    20701522.3014   20701524.2434  108787244.569 8  84769297.97246
      1004.196         782.505
  22666141.531    22666142.1674   22666142.8484  119111368.706 7  92814066.43244
     -2650.898       -2065.677
  22723594.596    22723594.4114   22723594.8174  119413344.898 7  93049356.00843
       682.104         531.518
  24511869.901    24511871.8254   24511870.4144  128810772.744 5 100372037.95741
      3733.310        2909.089
  23968784.451    23968784.3234   23968786.6694  125956835.360 6  98148191.63643
      2593.307        2020.772
 06  5  8 15  7 30.0000000  0  8G 2G 6G 7G10G13G16G21G27
  22793690.701    22793690.3224   22793690.1414  119781635.735 7  93336352.85144
     -3508.825       -2734.141
  21665469.718    21665469.7614   21665471.1284  113852822.897 7  88716489.14044
      -940.125        -732.549
  23474974.290    23474974.2664   23474976.3334  123361828.709 6  96126123.07742
      2703.963        2107.004
  20695845.572    20695845.0084   20695847.2434  108757410.205 8  84746050.20946
       983.792         766.600
  22681317.532    22681317.6564   22681318.0194  119191116.800 7  92876208.06644
     -2666.489       -2077.794
  22719756.997    22719756.6964   22719757.6554  119393176.956 7  93033640.39143
       661.538         515.459
  24490568.187    24490569.9354   24490569.6354  128698825.096 5 100284806.05141
      3728.908        2905.603
  23954009.221    23954009.3174   23954011.5704  125879188.956 6  98087688.00543
      2582.175        2012.074
 06  5  8 15  8  0.0000000  0  8G 2G 6G 7G10G13G16G21G27
  22813747.053    22813747.9084   22813747.1004  119887038.555 6  93418484.73444
     -3518.989       -2742.067
  21670888.484    21670888.5704   21670890.4804  113881297.635 7  88738676.89744
      -959.264        -747.461
  23459569.715    23459568.9074   23459571.8274  123280874.578 6  96063042.02842
      2691.942        2097.657
  20690285.112    20690284.1104   20690286.2484  108728188.450 8  84723280.21846
       963.372         750.686
  22696581.066    22696581.4634   22696582.6014  119271330.992 7  92938712.46844
     -2681.963       -2089.797
  22716037.118    22716036.7044   22716037.4564  119373626.991 7  93018406.93243
       640.872         499.367
  24469291.805    24469288.2774   24469292.0674  128587007.040 5 100197675.07741
      3724.568        2902.212
  23939297.526    23939296.6734   23939299.7744  125801878.576 6  98027446.20043
      2570.976        2003.378
 06  5  8 15  8 30.0000000  0  8G 2G 6G 7G10G13G16G21G27
  22833864.011    22833863.9574   22833863.4844  119992748.034 7  93500855.84744
     -3528.993       -2749.864
  21676416.817    21676416.8574   21676418.5254  113910348.185 7  88761313.57244
      -978.225        -762.251
  23444233.959    23444232.8494   23444235.0274  123200283.499 6  96000243.90242
      2679.989        2088.284
  20684841.575    20684840.9974   20684842.8014  108699584.236 8  84700991.42246
       943.009         734.805
  22711935.207    22711935.4884   22711935.8484  119352015.001 7  93001583.08844
     -2697.497       -2101.938
  22712434.896    22712434.3464   22712435.1464  119354698.932 7  93003657.89643
       620.281         483.334
  24448036.825    24448035.9344   24448038.5784  128475325.956 5 100110650.81041
      3719.974        2898.643
  23924651.235    23924650.6474   23924653.7234  125724910.836 6  97967471.38543
      2559.520        1994.463
 06  5  8 15  9  0.0000000  0  8G 2G 6G 7G10G13G16G21G27
  22854038.205    22854037.7804   22854037.1314  120098760.005 7  93583462.67944
     -3538.986       -2757.628
  21682054.162    21682054.2544   21682056.1234  113939972.325 7  88784397.11244
      -997.381        -777.175
  23428966.206    23428966.1194   23428967.9604  123120056.915 6  95937729.72542
      2667.760        2078.780
  20679515.918    20679515.3004   20679516.9594  108671597.165 8  84679183.34446
       922.350         718.715
  22727377.177    22727377.6304   22727378.3144  119433165.132 7  93064817.01744
     -2712.985       -2114.013
  22708951.662    22708950.5494   22708951.6214  119336392.959 7  92989393.48243
       599.560         467.185
  24426811.841    24426811.2894   24426814.2344  128363783.336 5 100023734.37941
      3715.375        2895.186
  23910070.627    23910069.6964   23910072.5224  125648287.455 6  97907764.86543
      2548.131        1985.587
 06  5  8 15  9 30.0000000  0  8G 2G 6G 7G10G13G16G21G27
  22874267.665    22874266.2134   22874266.3714  120205064.785 7  93666297.49244
     -3549.449       -2765.794
  21687798.989    21687799.3734   21687800.7914  113970162.985 7  88807922.32644
     -1016.752        -792.292
  23413768.543    23413767.3404   23413770.2444  123040189.985 6  95875495.83142
      2655.182        2069.006
  20674306.510    20674305.7164   20674307.6904  108644220.851 8  84657850.93346
       901.311         702.325
  22742906.826    22742906.8074   22742907.4154  119514771.199 7  93128405.98744
     -2728.861       -2126.385
  22705584.666    22705584.2094   22705585.3744  119318702.833 7  92975608.97343
       578.364         450.690
  24405610.770    24405612.7504   24405612.7154  128252374.166 5  99936921.96441
      3710.437        2891.269
  23895553.959    23895553.5514   23895556.2764  125572003.937 6  97848323.23143
      2536.006        1976.099
 06  5  8 15 10  0.0000000  0  8G 2G 6G 7G10G13G16G21G27
  22894553.398    22894552.8634   22894552.5574  120311671.863 7  93749367.90443
     -3558.649       -2772.951
  21693653.696    21693654.0144   21693655.9974  114000929.810 7  88831896.38944
     -1035.304        -806.718
  23398640.980    23398641.1564   23398643.3314  122960696.576 6  95813552.93042
      2643.291        2059.700
  20669215.599    20669214.9874   20669217.0134  108617468.515 8  84637004.92646
       881.233         686.675
  22758524.482    22758524.8974   22758525.5724  119596842.505 7  93192357.50844
     -2743.499       -2137.765
  22702338.056    22702338.2744   22702338.4954  119301640.954 7  92962314.02143
       558.078         434.859
  24384439.363    24384439.3474   24384439.4894  128141111.832 5  99850223.84741
      3706.189        2887.974
  23881105.243    23881105.0274   23881106.2614  125496073.475 6  97789156.56143
      2524.989        1967.543
 06  5  8 15 10 30.0000000  0  8G 2G 6G 7G10G13G16G21G27
  22914893.515    22914893.5684   22914893.2824  120418562.276 6  93832658.99443
     -3568.202       -2780.405
  21699614.891    21699615.3324   21699617.2574  114032255.502 7  88856305.88644
     -1054.111        -821.388
  23383583.006    23383582.4664   23383584.4104  122881562.453 6  95751889.98742
      2631.318        2050.407
  20664240.417    20664239.8274   20664241.8584  108591323.700 8  84616632.20446
       860.717         670.693
  22774227.903    22774227.7434   22774228.1084  119679359.731 7  93256656.25844
     -2758.480       -2149.468
  22699207.214    22699206.9844   22699207.7474  119285190.730 6  92949495.55543
       537.530         418.874
  24363290.971    24363290.5544   24363293.1194  128029982.601 5  99763629.56441
      3701.577        2884.335
  23866719.774    23866720.3344   23866722.2674  125420482.458 6  97730254.62743
      2513.570        1958.634
 06  5  8 15 11  0.0000000  0  8G 2G 6G 7G10G13G16G21G27
  22935291.015    22935290.6184   22935290.1654  120525749.228 7  93916181.08343
     -3577.938       -2787.985
  21705685.820    21705685.8244   21705687.4534  114064155.213 7  88881162.76344
     -1073.062        -836.138
  23368595.606    23368596.1664   23368597.9714  122802805.598 6  95690521.04242
      2618.734        2040.621
  20659384.374    20659383.5594   20659385.6644  108565803.214 8  84596746.08946
       840.094         654.625
  22790017.973    22790017.4064   22790018.1664  119762337.308 7  93321314.22544
     -2773.715       -2161.352
  22696196.684    22696197.1424   22696197.1594  119269369.270 7  92937167.08443
       516.738         402.621
  24342173.092    24342173.9634   24342175.5644  127919004.525 5  99677153.17541
      3696.447        2880.346
  23852403.387    23852403.3454   23852406.0804  125345248.165 6  97671630.47643
      2501.707        1949.402
 06  5  8 15 11 30.0000000  0  8G 2G 6G 7G10G13G16G21G27
  22955742.715    22955742.5154   22955741.6854  120633223.851 6  93999927.37743
     -3587.310       -2795.327
  21711863.653    21711863.6654   21711865.4184  114096621.550 7  88906461.25444
     -1091.850        -850.814
  23353679.997    23353679.7774   23353681.6384  122724421.977 6  95629442.84242
      2606.394        2030.967
  20654645.675    20654644.7634   20654646.9374  108540901.659 8  84577342.37846
       819.502         638.554
  22805893.269    22805893.4724   22805894.4924  119845765.451 7  93386323.32644
     -2788.526       -2172.853
  22693304.574    22693304.6964   22693305.0744  119254171.055 7  92925324.43343
       496.052         386.521
  24321083.695    24321082.4054   24321083.7134  127808173.389 5  99590791.32741
      3691.829        2876.729
  23838154.009    23838154.1144   23838157.1144  125270366.857 6  97613281.25143
      2490.150        1940.397
 06  5  8 15 12  0.0000000  0  8G 2G 6G 7G10G13G16G21G27
  22976250.495    22976249.5004   22976248.8934  120740986.670 6  94083898.37243
     -3597.420       -2803.175
  21718149.469    21718149.7704   21718151.9974  114129656.005 7  88932202.45044
     -1111.357        -865.983
  23338835.703    23338835.5994   23338838.5864  122646416.385 6  95568659.20742
      2593.061        2020.557
  20650025.282    20650024.4874   20650026.4904  108516621.976 8  84558423.20846
       798.278         622.056
  22821854.581    22821854.7204   22821855.4934  119929643.115 7  93451682.26144
     -2804.079       -2184.986
  22690531.895    22690531.2174   22690532.4744  119239598.461 7  92913969.12843
       474.586         369.811
  24300022.474    24300019.7644   24300024.3204  127697493.486 5  99504547.39741
      3686.037        2872.171
  23823973.620    23823973.2244   23823975.1064  125195843.626 6  97555211.15943
      2477.463        1930.512
 06  5  8 15 12 30.0000000  0  8G 2G 6G 7G10G13G16G21G27
  22996812.332    22996813.2944   22996813.1844  120849048.779 6  94168102.48443
     -3607.658       -2811.152
  21724546.516    21724546.5334   21724548.8284  114163271.510 7  88958396.36244
     -1130.727        -881.077
  23324067.228    23324067.3374   23324069.6254  122568804.964 6  95508182.62342
      2579.975        2010.362
  20645526.184    20645525.4314   20645527.5934  108492978.423 8  84539999.51846
       777.093         605.569
  22837904.328    22837904.3084   22837904.7164  120013982.558 7  93517401.13844
     -2819.354       -2196.871
  22687880.837    22687880.5614   22687881.0194  119225666.200 7  92903112.58743
       453.294         353.203
  24278991.643    24278992.3004   24278991.6654  127586980.908 5  99418433.76641
      3680.227        2867.725
  23809863.158    23809862.3834   23809865.1874  125121694.308 6  97497432.44943
      2464.904        1920.712
 06  5  8 15 13  0.0000000  0  8G 2G 6G 7G10G13G16G21G27
  23017428.218    23017429.4524   23017429.2704  120957388.555 6  94252522.98343
     -3615.974       -2817.593
  21731050.422    21731050.5354   21731052.2644  114197447.878 7  88985027.26744
     -1148.654        -895.029
  23309370.170    23309369.9034   23309372.5924  122491571.648 6  95448000.90942
      2568.081        2001.146
  20641144.616    20641143.9094   20641146.0164  108469953.088 8  84522057.57646
       757.118         589.982
  22854037.940    22854037.8954   22854038.0344  120098762.391 7  93583463.27344
     -2833.345       -2207.797
  22685348.160    22685347.7984   22685348.7054  119212355.647 7  92892740.34243
       433.237         337.608
  24257991.101    24257990.6814   24257991.5634  127476619.193 5  99332437.68141
      3676.194        2864.634
  23795820.829    23795820.5264   23795823.0704  125047901.954 6  97439931.79043
      2453.648        1911.916
 06  5  8 15 13 30.0000000  0  8G 2G 6G 7G10G13G16G21G27
  23038094.053    23038094.2514   23038093.7564  121065984.817 6  94337143.36943
     -3624.794       -2824.505
  21737656.704    21737656.8704   21737658.9194  114232165.664 7  89012080.20044
     -1166.973        -909.356
  23294740.885    23294740.4274   23294743.3174  122414698.957 6  95388100.11342
      2555.826        1991.563
  20636877.451    20636876.5754   20636878.5524  108447528.035 8  84504583.60546
       736.792         574.107
  22870249.951    22870250.1514   22870251.3124  120183960.757 7  93649851.60144
     -2847.505       -2218.845
  22682930.224    22682929.9324   22682931.5634  119199649.653 6  92882839.68943
       412.905         321.766
  24237014.024    24237014.7284   24237015.1644  127366391.489 5  99246546.02041
      3671.553        2860.940
  23781843.169    23781842.9414   23781846.0834  124974451.174 6  97382697.70643
      2442.124        1902.953
 06  5  8 15 14  0.0000000  0  8G 2G 6G 7G10G13G16G21G27
  23058813.074    23058813.0854   23058812.9264  121174861.063 6  94421982.01643
     -3634.205       -2831.848
  21744370.650    21744370.4204   21744372.0794  114267449.624 7  89039574.52144
     -1186.006        -924.173
  23280187.681    23280187.4684   23280189.5044  122338215.202 6  95328502.36342
      2542.578        1981.220
  20632728.995    20632728.1804   20632730.2464  108425729.083 8  84487597.47846
       715.904         557.849
  22886546.342    22886546.8634   22886547.7134  120269600.898 7  93716584.21144
     -2862.376       -2230.448
  22680632.262    22680631.5534   22680633.3164  119187573.531 7  92873429.76643
       391.610         305.171
  24216068.265    24216067.6704   24216070.1894  127256325.860 5  99160780.66441
      3665.484        2856.215
  23767936.110    23767935.7654   23767938.5154  124901368.036 6  97325749.76743
      2429.606        1893.189
 06  5  8 15 14 30.0000000  0  8G 2G 6G 7G10G13G16G21G27
  23079583.572    23079583.7604   23079583.2214  121284011.404 6  94507034.14443
     -3643.031       -2838.715
  21751191.663    21751191.8904   21751193.7314  114303294.368 7  89067505.45344
     -1204.233        -938.360
  23265706.213    23265706.3864   23265708.8724  122262119.488 6  95269207.01542
      2529.995        1971.420
  20628699.335    20628698.6564   20628700.4884  108404554.393 8  84471098.01746
       695.541         541.960
  22902925.951    22902926.6244   22902927.9184  120355676.994 7  93783656.57244
     -2876.344       -2241.317
  22678453.878    22678453.0784   22678454.2714  119176124.593 7  92864508.53043
       371.187         289.233
  24195154.132    24195154.3284   24195156.7124  127146421.318 5  99075140.85241
      3660.478        2852.263
  23754098.801    23754098.5834   23754101.1644  124828652.917 6  97269088.60943
      2417.672        1883.884
 06  5  8 15 15  0.0000000  0  8G 2G 6G 7G10G13G16G21G27
  23100403.658    23100403.7604   23100404.4634  121393425.737 6  94592291.94943
     -3651.925       -2845.635
  21758117.979    21758118.2214   21758119.7724  114339692.065 7  89095867.29344
     -1222.952        -952.930
  23251298.653    23251298.2244   23251300.6894  122186406.356 6  95210209.68942
      2516.764        1961.140
  20624787.137    20624786.3624   20624788.2844  108383995.875 8  84455078.47346
       674.734         525.769
  22919386.600    22919387.4994   22919388.5264  120442178.846 7  93851060.71344
     -2890.901       -2252.643
  22676392.719    22676392.9584   22676393.3704  119165295.816 7  92856070.64443
       350.105         272.816
  24174270.287    24174270.5364   24174273.2914  127036672.569 5  98989622.43641
      3654.982        2848.046
  23740331.169    23740330.3834   23740333.1974  124756300.271 6  97212710.04043
      2405.325        1874.276
 06  5  8 15 15 30.0000000  0  8G 2G 6G 7G10G13G16G21G27
  23121277.165    23121277.8534   23121277.1334  121503114.027 6  94677763.32943
     -3661.030       -2852.712
  21765151.247    21765151.4344   21765153.6934  114376653.532 7  89124668.32344
     -1241.720        -967.544
  23236966.838    23236966.1634   23236968.4774  122111090.225 6  95151521.75242
      2503.519        1950.823
  20620994.731    20620993.9614   20620995.6974  108364066.960 8  84439549.61946
       653.507         509.241
  22935929.778    22935930.4964   22935931.4244  120529115.653 7  93918803.74744
     -2905.598       -2264.102
  22674452.985    22674452.4704   22674453.7244  119155099.511 7  92848125.42043
       328.900         256.286
  24153418.973    24153418.8134   24153417.9594  126927094.612 5  98904237.22841
      3649.421        2843.714
  23726634.377    23726633.6614   23726637.0824  124684323.230 7  97156623.74243
      2392.472        1864.260
 06  5  8 15 16  0.0000000  0  8G 2G 6G 7G10G13G16G21G27
  23142199.189    23142200.0594   23142199.8544  121613062.581 6  94763437.39743
     -3669.505       -2859.324
  21772290.041    21772290.2644   21772292.3444  114414166.383 7  89153898.91644
     -1259.817        -981.644
  23222708.596    23222708.2204   23222710.5564  122036162.640 6  95093136.68042
      2490.866        1940.969
  20617320.109    20617319.3574   20617321.1004  108344756.082 8  84424502.02046
       633.267         493.470
  22952553.528    22952554.3054   22952555.3574  120616473.699 7  93986875.01544
     -2918.981       -2274.514
  22672630.921    22672630.0764   22672631.6804  119145525.021 7  92840664.60143
       308.678         240.588
  24132598.746    24132596.0404   24132599.0564  126817677.969 5  98818977.84941
      3644.170        2839.715
  23713007.144    23713006.9324   23713009.7914  124612714.836 7  97100825.24043
      2380.627        1855.058
 06  5  8 15 16 30.0000000  0  8G 2G 6G 7G10G13G16G21G27
  23163174.143    23163174.0744   23163174.0384  121723281.308 6  94849322.08043
     -3679.386       -2867.035
  21779535.667    21779535.6404   21779538.0004  114452242.105 7  89183568.09044
     -1279.480        -996.974
  23208527.158    23208526.3064   23208529.1514  121961637.375 6  95035064.98242
      2476.419        1929.697
  20613765.704    20613764.9804   20613766.9544  108326076.390 8  84409946.03546
       611.251         476.333
  22969259.533    22969259.9724   22969260.6114  120704262.439 7  94055281.68643
     -2934.449       -2286.550
  22670928.950    22670929.1134   22670930.9304  119136585.096 7  92833698.23343
       286.492         223.245
  24111810.631    24111808.6104   24111808.8974  126708437.468 5  98733855.81141
      3637.513        2834.418
  23699453.193    23699452.7114   23699454.8344  124541488.436 6  97045324.26143
      2366.867        1844.353
 06  5  8 15 17  0.0000000  0  8G 2G 6G 7G10G13G16G21G27
  23184199.360    23184200.3334   23184199.8304  121833773.060 6  94935419.43443
     -3687.733       -2873.586
  21786889.215    21786889.8084   21786891.9904  114490885.443 7  89213679.76444
     -1297.816       -1011.292
  23194423.579    23194422.3504   23194426.2734  121887522.430 6  94977312.95042
      2463.354        1919.465
  20610332.760    20610331.8744   20610333.5094  108308035.602 8  84395888.54946
       590.716         460.284
  22986048.140    22986048.3964   22986049.6994  120792485.015 7  94124026.43943
     -2948.004       -2297.175
  22669349.969    22669349.4244   22669351.3584  119128286.203 7  92827231.61443
       265.722         207.046
  24091055.561    24091055.3714   24091056.2714  126599380.263 5  98648876.44741
      3631.643        2829.892
  23685973.904    23685973.7064   23685975.2474  124470651.323 7  96990126.60943
      2354.669        1834.768
 06  5  8 15 17 30.0000000  0  8G 2G 6G 7G10G13G16G21G27
  23205275.836    23205276.6434   23205276.1374  121944529.711 6  95021723.29043
     -3695.987       -2880.009
  21794349.678    21794349.6124   21794351.8884  114530088.420 7  89244227.39844
     -1315.893       -1025.347
  23180397.000    23180397.2604   23180399.1314  121813813.569 6  94919877.15542
      2450.309        1909.320
  20607019.632    20607018.9144   20607020.7654  108290626.351 8  84382322.80746
       569.874         444.040
  23002917.116    23002917.8154   23002918.7774  120881132.557 7  94193102.16043
     -2961.837       -2307.920
  22667892.397    22667891.6694   22667892.9124  119120621.395 7  92821258.76943
       244.994         190.915
  24070336.095    24070336.8544   24070338.8264  126490502.758 5  98564037.02941
      3626.377        2825.746
  23672567.122    23672566.8344   23672568.7544  124400199.692 6  96935229.15443
      2342.149        1825.031
 06  5  8 15 18  0.0000000  0  8G 2G 6G 7G10G13G16G21G27
  23226398.052    23226399.9114   23226399.6454  122055532.494 6  95108219.00543
     -3705.074       -2887.073
  21801913.641    21801912.7484   21801915.2994  114569833.705 7  89275197.55844
     -1334.740       -1040.051
  23166445.746    23166445.3004   23166448.5014  121740497.712 6  94862747.82143
      2436.578        1898.600
  20603824.152    20603823.2754   20603824.9154  108273833.998 8  84369238.06646
       548.784         427.633
  23019863.977    23019863.8124   23019865.6064  120970187.081 7  94262495.37643
     -2975.841       -2318.827
  22666551.744    22666551.0324   22666551.7184  119113576.476 7  92815769.40743
       223.895         174.439
  24049649.040    24049648.4364   24049650.1114  126381791.072 5  98479326.75841
      3619.916        2820.666
  23659231.019    23659230.8694   23659233.4374  124330120.612 6  96880622.24743
      2329.061        1814.882
 06  5  8 15 18 30.0000000  0  8G 2G 6G 7G10G13G16G21G27
  23247573.103    23247570.5974   23247569.3764  122166784.143 6  95194908.62843
     -3712.532       -2892.975
  21809580.707    21809580.6624   21809582.8214  114610126.692 7  89306594.82644
     -1352.492       -1053.903
  23152570.347    23152570.5424   23152572.3684  121667582.897 6  94805931.28543
      2423.542        1888.473
  20600746.675    20600746.0034   20600747.6864  108257664.668 8  84356639.03446
       528.470         411.770
  23036888.374    23036888.2914   23036889.6164  121059650.440 7  94332207.08643
     -2989.021       -2329.110
  22665329.662    22665329.2624   22665329.7634  119107156.446 6  92810767.01443
       203.365         158.461
  24028995.449    24028995.8064   24028996.8334  126273252.932 5  98394751.58741
      3614.658        2816.589
  23645968.025    23645967.5484   23645969.9244  124260421.186 7  96826311.11243
      2317.004        1805.462
 06  5  8 15 19  0.0000000  0  8G 2G 6G 7G10G13G16G21G27
  23268784.459    23268786.0894   23268786.2874  122278276.699 6  95281785.99243
     -3720.918       -2899.396
  21817350.592    21817350.3864   21817352.8784  114650959.111 7  89338412.44944
     -1370.455       -1067.907
  23138770.697    23138769.7514   23138772.3894  121595063.872 6  94749422.99543
      2410.264        1878.109
  20597786.930    20597786.1274   20597787.9934  108242110.865 8  84344519.20146
       507.746         395.696
  23053988.855    23053988.7544   23053989.7494  121149513.771 7  94402230.37643
     -3002.560       -2339.663
  22664225.534    22664224.9014   22664226.2334  119101354.793 7  92806246.24243
       182.684         142.330
  24008375.000    24008373.2344   24008373.0574  126164884.486 5  98310308.64541
      3609.079        2812.247
  23632775.592    23632775.0074   23632777.2464  124191096.965 7  96772292.25843
      2304.040        1795.349
 06  5  8 15 19 30.0000000  0  8G 2G 6G 7G10G13G16G21G27
  23290047.719    23290048.5504   23290048.8744  122390010.034 6  95368850.98543
     -3729.000       -2905.765
  21825224.280    21825223.5904   21825225.8074  114692332.750 7  89370651.79144
     -1388.613       -1082.026
  23125046.744    23125046.7934   23125048.0024  121522946.305 6  94693227.47943
      2396.731        1867.563
  20594945.001    20594944.3634   20594946.2574  108227176.354 8  84332881.60246
       486.953         379.443
  23071165.376    23071165.6564   23071166.1934  121239777.828 7  94472565.95843
     -3016.087       -2350.220
  22663239.973    22663240.0974   22663240.6224  119096175.133 7  92802210.09243
       161.755         126.001
  23987786.859    23987787.0054   23987785.6174  126056690.852 5  98226001.77841
      3603.115        2807.599
  23619655.908    23619655.3874   23619658.6474  124122153.365 6  96718569.95943
      2291.222        1785.359
 06  5  8 15 20  0.0000000  0  8G 2G 6G 7G10G13G16G21G27
  23311358.403    23311357.8124   23311358.5614  122501995.727 6  95456112.61143
     -3737.783       -2912.575
  21833201.866    21833202.3744   21833203.8064  114734260.057 7  89403322.64944
     -1407.323       -1096.596
  23111403.116    23111401.7434   23111404.9474  121451246.100 6  94637357.19643
      2382.446        1856.458
  20592223.952    20592223.3474   20592225.3304  108212875.926 8  84321738.17446
       465.553         362.781
  23088421.118    23088420.7054   23088421.7654  121330453.438 7  94543222.29843
     -3030.000       -2361.045
  22662375.329    22662375.4894   22662375.8584  119091631.345 7  92798669.37943
       140.249         109.273
  23967234.526    23967232.5184   23967235.1534  125948688.011 5  98141843.48841
      3596.163        2802.151
  23606611.904    23606611.5954   23606614.1864  124053606.447 7  96665156.85043
      2277.617        1774.742
 06  5  8 15 20 30.0000000  0  8G 2G 6G 7G10G13G16G21G27
  23332715.475    23332715.3144   23332715.2994  122614225.207 6  95543564.14443
     -3746.125       -2919.032
  21841284.668    21841284.1184   21841286.5064  114776733.688 7  89436419.00644
     -1425.968       -1111.124
  23097837.450    23097837.4904   23097839.4394  121379959.659 6  94581809.35542
      2368.246        1845.388
  20589622.588    20589621.9404   20589623.6564  108199204.455 8  84311084.98446
       444.220         346.160
  23105753.318    23105752.6694   23105753.5944  121421532.010 7  94614192.54043
     -3043.678       -2371.711
  22661630.574    22661630.1734   22661630.8354  119087717.953 7  92795619.90943
       118.891          92.667
  23946717.676    23946715.8904   23946716.8254  125840872.547 5  98057831.20641
      3589.463        2796.945
  23593642.887    23593642.1294   23593644.5344  123985452.218 7  96612049.66543
      2264.201        1764.304
 06  5  8 15 21  0.0000000  0  8G 2G 6G 7G10G13G16G21G27
  23354115.982    23354117.5424   23354116.6194  122726695.763 6  95631203.56243
     -3752.901       -2924.321
  21849470.943    21849471.0094   21849472.9924  114819751.390 7  89469939.06244
     -1442.850       -1124.298
  23084351.331    23084349.7694   23084353.5414  121309088.776 6  94526585.38343
      2355.466        1835.456
  20587140.494    20587139.9174   20587141.8214  108186161.148 8  84300921.28546
       424.336         330.663
  23123160.524    23123160.2524   23123161.4404  121513010.613 7  94685474.68943
     -3056.108       -2381.377
  22661006.125    22661005.8754   22661006.2994  119084434.256 6  92793060.97643
        98.875          77.064
  23926235.780    23926235.3214   23926238.5664  125733246.488 5  97973966.59041
      3584.397        2793.030
  23580747.945    23580748.3044   23580750.2644  123917692.278 7  96559249.74043
      2251.961        1754.785
 06  5  8 15 21 30.0000000  0  8G 2G 6G 7G10G13G16G21G27
  23375563.401    23375564.3784   23375564.3244  122839396.894 6  95719022.59943
     -3761.210       -2930.825
  21857758.724    21857758.7284   21857760.4534  114863304.559 7  89503876.31344
     -1461.398       -1138.759
  23070942.965    23070942.0174   23070945.1764  121238627.159 6  94471680.22243
      2341.264        1824.347
  20584776.607    20584776.0224   20584777.9884  108173738.660 8  84291241.31646
       403.036         314.030
  23140642.526    23140642.1034   23140643.4034  121604878.352 7  94757060.06343
     -3069.275       -2391.674
  22660499.678    22660499.1654   22660499.7744  119081773.224 7  92790987.44043
        77.722          60.526
  23905790.574    23905791.3164   23905792.3694  125625804.445 5  97890245.45441
      3577.709        2787.800
  23567928.015    23567927.4874   23567930.9364  123850320.973 6  96506752.71443
      2238.581        1744.350
 06  5  8 15 22  0.0000000  0  8G 2G 6G 7G10G13G16G21G27
  23397054.733    23397055.1194   23397055.0614  122952332.179 6  95807023.94943
     -3768.411       -2936.433
  21866149.245    21866149.1514   21866151.7074  114907398.371 6  89538234.99244
     -1478.955       -1152.442
  23057613.918    23057613.7294   23057616.0494  121168583.465 6  94417100.64943
      2327.659        1813.744
  20582532.051    20582531.4164   20582533.2804  108161944.309 8  84282051.24046
       382.516         298.054
  23158198.114    23158198.3634   23158199.0654  121697138.319 6  94828950.79443
     -3081.986       -2401.541
  22660113.026    22660112.9114   22660114.0394  119079740.602 7  92789403.56043
        57.061          44.416
  23885383.466    23885382.1034   23885383.8744  125518555.107 5  97806674.52841
      3571.668        2783.138
  23555182.889    23555182.6464   23555185.1824  123783346.421 6  96454564.79743
      2225.757        1734.324
 06  5  8 15 22 30.0000000  0  8G 2G 6G 7G10G13G16G21G27
  23418590.494    23418591.8404   23418591.0964  123065506.032 6  95895211.43843
     -3776.666       -2942.818
  21874643.761    21874644.0014   21874646.0634  114952038.049 7  89573019.39744
     -1497.112       -1166.598
  23044366.151    23044365.8394   23044368.7994  121098966.190 6  94362853.42243
      2313.175        1802.470
  20580408.353    20580407.5054   20580409.3984  108150782.948 8  84273354.02546
       361.152         281.392
  23175831.004    23175830.1754   23175831.4464  121789794.477 7  94901150.23743
     -3095.510       -2412.082
  22659846.491    22659846.8494   22659848.2624  119078342.764 7  92788314.28043
        35.782          27.854
  23865012.357    23865012.4884   23865012.3364  125411506.245 5  97723259.77041
      3564.927        2777.882
  23542515.251    23542515.1004   23542517.4654  123716777.424 7  96402692.97843
      2211.826        1723.507
 06  5  8 15 23  0.0000000  0  8G 2G 6G 7G10G13G16G21G27
  23440172.799    23440171.7304   23440170.6574  123178909.245 6  95983577.48343
     -3784.756       -2949.144
  21883240.695    21883241.1154   21883242.6104  114997215.626 7  89608223.05744
     -1515.588       -1180.995
  23031199.140    23031198.4074   23031200.5324  121029771.095 6  94308935.14843
      2298.616        1791.144
  20578403.764    20578403.1224   20578405.1514  108140249.356 8  84265145.92246
       339.843         264.813
  23193535.242    23193536.0814   23193537.6274  121882838.242 6  94973651.80343
     -3108.797       -2422.470
  22659700.727    22659700.7594   22659701.1244  119077572.736 6  92787713.78343
        14.458          11.260
  23844678.973    23844677.2924   23844678.3184  125304654.125 5  97639998.45041
      3557.714        2772.201
  23529924.153    23529923.4344   23529925.9674  123650608.362 6  96351132.22243
      2198.051        1712.772
 06  5  8 15 23 30.0000000  0  8G 2G 6G 7G10G13G16G21G27
  23461794.545    23461794.3024   23461793.6974  123292538.722 6  96072119.85543
     -3791.560       -2954.436
  21891939.505    21891939.5184   21891941.3104  115042928.258 7  89643843.54244
     -1532.897       -1194.493
  23018112.312    23018111.8054   23018114.3704  120960998.244 6  94255345.40143
      2285.120        1780.645
  20576518.555    20576518.0394   20576519.9404  108130343.126 8  84257426.91846
       319.447         248.895
  23211314.300    23211315.2884   23211315.3144  121976266.081 6  95046452.91543
     -3120.826       -2431.819
  22659674.166    22659674.0184   22659674.6044  119077430.285 7  92787602.21243
        -5.965          -4.622
  23824381.854    23824382.6544   23824382.6334  125197999.964 5  97556891.28041
      3551.603        2767.470
  23517409.078    23517409.6094   23517411.2164  123584842.457 7  96299886.33944
      2185.292        1702.813
 06  5  8 15 24  0.0000000  0  9G 2G 6G 7G10G13G16G21G27G29
  23483456.611    23483456.1504   23483457.1434  123406375.653 6  96160823.86043
     -3798.488       -2959.854
  21900736.228    21900736.2884   21900738.6704  115089158.703 7  89679867.52944
     -1550.240       -1207.983
  23005102.512    23005102.7654   23005105.7134  120892634.486 6  94202074.32243
      2271.226        1769.804
  20574749.664    20574749.0124   20574751.0094  108121047.796 8  84250183.85946
       299.069         233.044
  23229163.287    23229162.8514   23229163.7774  122070057.540 7  95119536.92843
     -3133.056       -2441.357
  22659763.316    22659763.7804   22659764.5384  119077900.597 7  92787968.71743
       -26.601         -20.703
  23804121.390    23804122.4034   23804122.4604  125091530.368 5  97473928.03641
      3545.271        2762.496
  23504967.858    23504967.7684   23504970.1254  123519464.428 7  96248942.51144
      2172.286        1692.748
  24300651.469                                   127700763.069 5
      3865.496
 06  5  8 15 24 30.0000000  0  9G 2G 6G 7G10G13G16G21G27G29
  23505160.475    23505161.7564   23505161.9384  123520434.602 6  96249700.82043
     -3806.185       -2965.854
  21909634.744    21909635.0054   21909636.9304  115135922.206 6  89716306.81744
     -1568.064       -1221.856
  22992175.829    22992174.9234   22992178.4304  120824701.988 6  94149140.72843
      2256.799        1758.475
  20573100.464    20573099.6524   20573101.7574  108112380.234 8  84243429.82746
       278.001         216.590
  23247083.351    23247083.2384   23247084.3684  122164228.325 7  95192916.74243
     -3145.784       -2451.296
  22659972.704    22659971.7114   22659973.8234  119079000.673 7  92788826.46043
       -47.613         -37.108
  23783901.047    23783900.1454   23783900.9284  124985264.545 5  97391123.63941
      3538.304        2757.077
  23492604.428    23492604.2214   23492606.7254  123454492.383 7  96198314.63044
      2158.419        1681.925
  24278595.361    24278595.2204   24278599.0204  127584861.210 5  99416805.15441
      3860.469        3008.180
 06  5  8 15 25  0.0000000  0  9G 2G 6G 7G10G13G16G21G27G29
  23526909.615    23526909.3014   23526909.9474  123634718.800 6  96338753.42843
     -3813.690       -2971.750
  21918636.401    21918635.9354   21918637.4244  115183222.557 7  89753164.20644
     -1586.199       -1236.035
  22979330.719    22979330.4934   22979332.9724  120757204.144 6  94096545.22643
      2242.034        1747.000
  20571571.950    20571570.9094   20571573.0144  108104346.774 8  84237170.04946
       256.550         199.892
  23265076.486    23265075.5294   23265077.1864  122258780.785 7  95266593.95943
     -3158.636       -2461.291
  22660302.205    22660301.7944   22660302.8594  119080733.950 7  92790177.21743
       -68.908         -53.659
  23763719.261    23763718.2994   23763720.4894  124879210.206 5  97308484.07041
      3531.115        2751.509
  23480319.980    23480319.6244   23480321.5674  123389936.295 7  96148011.67744
      2144.432        1670.943
  24256567.744    24256567.2744   24256571.7694  127469107.121 5  99326607.28441
      3855.423        3004.192
 06  5  8 15 25 30.0000000  0  9G 2G 6G 7G10G13G16G21G27G29
  23548698.699    23548696.9954   23548697.1064  123749217.052 6  96427972.68343
     -3820.730       -2977.154
  21927737.236    21927737.4784   21927739.4214  115231049.877 7  89790432.07944
     -1603.514       -1249.459
  22966568.392    22966567.9394   22966570.9024  120690135.421 6  94044283.92643
      2227.839        1736.002
  20570161.843    20570161.2814   20570163.3374  108096938.737 8  84231397.58646
       236.008         183.919
  23283140.179    23283139.4494   23283140.6324  122353703.693 7  95340559.74843
     -3170.781       -2470.738
  22660750.655    22660750.4894   22660751.4624  119083092.585 7  92792015.13843
       -89.440         -69.692
  23743575.555    23743576.1984   23743576.2104  124773360.792 5  97226003.92541
      3524.400        2746.331
  23468112.395    23468111.7044   23468114.2204  123325787.205 7  96098025.43844
      2130.931        1660.469
  24234566.084    24234566.2034   24234570.2224  127353494.192 5  99236519.24641
      3850.858        3000.677
 06  5  8 15 26  0.0000000  0  9G 2G 6G 7G10G13G16G21G27G29
  23570527.888    23570527.4324   23570526.9374  123863935.051 6  96517363.30342
     -3827.308       -2982.385
  21936940.648    21936940.2504   21936942.4724  115279410.591 7  89828115.41244
     -1620.685       -1262.892
  22953888.633    22953887.7034   22953891.4994  120623505.893 6  93992364.72143
      2214.007        1725.188
  20568872.910    20568872.2134   20568874.2494  108090163.454 8  84226117.84246
       215.441         167.868
  23301273.690    23301273.4704   23301274.6364  122449002.529 6  95414818.70143
     -3182.567       -2479.952
  22661319.783    22661319.8624   22661320.3544  119086084.059 6  92794345.96943
      -109.942         -85.681
  23723473.088    23723474.3614   23723475.7084  124667725.875 5  97143690.78541
      3517.967        2741.261
  23455983.839    23455984.6884   23455987.1314  123262055.532 7  96048364.27644
      2117.635        1650.117
  24212597.038    24212595.9544   24212598.7054  127238033.082 5  99146549.54041
      3846.342        2997.137
 06  5  8 15 26 30.0000000  0  9G 2G 6G 7G10G13G16G21G27G29
  23592400.808    23592400.2184   23592400.0884  123978877.803 6  96606929.04242
     -3835.333       -2988.597
  21946246.046    21946246.0274   21946248.1704  115328311.978 7  89866220.44643
     -1639.251       -1277.344
  22941296.253    22941295.3454   22941298.3144  120557325.144 6  93940794.90743
      2198.223        1712.905
  20567705.661    20567704.9754   20567707.0764  108084030.213 8  84221338.74446
       193.525         150.792
  23319480.438    23319481.0774   23319481.7524  122544681.806 6  95489373.94743
     -3195.889       -2490.272
  22662011.434    22662011.3344   22662012.8524  119089716.026 7  92797175.79443
      -132.025        -102.873
  23703415.724    23703417.5264   23703416.7274  124562316.241 5  97061553.19641
      3509.605        2734.763
  23443938.218    23443937.7334   23443940.5374  123198751.893 7  95999036.87444
      2102.760        1638.528
  24190655.911    24190655.6244   24190657.0194  127122734.298 5  99056706.26241
      3840.520        2992.521
 06  5  8 15 27  0.0000000  0  9G 2G 6G 7G10G13G16G21G27G29
  23614314.187    23614313.3034   23614313.6464  124094031.087 6  96696658.79742
     -3842.099       -2993.850
  21955652.398    21955652.0154   21955653.8294  115377739.476 6  89904735.19144
     -1656.458       -1290.725
  22928786.372    22928785.2794   22928787.9664  120491584.453 6  93889568.35843
      2183.877        1701.702
  20566658.607    20566657.7774   20566659.7554  108078526.328 8  84217050.01546
       172.653         134.532
  23337757.072    23337758.0214   23337759.2054  122640726.797 6  95564214.22043
     -3207.787       -2499.568
  22662821.983    22662822.2604   22662823.2424  119093977.273 7  92800496.20043
      -152.658        -118.946
  23683399.743    23683398.9284   23683399.5034  124457122.784 6  96979584.28341
      3502.718        2729.431
  23431971.141    23431970.9844   23431973.6084  123135866.682 7  95950035.72744
      2088.890        1627.684
  24168743.206    24168743.9174   24168745.9934  127007588.666 5  98966982.40241
      3835.479        2988.685
 06  5  8 15 27 30.0000000  0  9G 2G 6G 7G10G13G16G21G27G29
  23636264.196    23636265.0114   23636265.0354  124209381.206 6  96786541.90742
     -3848.835       -2999.106
  21965155.457    21965155.5504   21965157.5224  115427680.535 6  89943650.10243
     -1673.593       -1304.106
  22916356.664    22916356.2654   22916359.8854  120426274.311 6  93838677.55443
      2169.332        1690.365
  20565728.741    20565727.8494   20565729.9904  108073640.447 8  84213242.89046
       152.030         118.473
  23356100.853    23356101.3544   23356102.2484  122737123.327 6  95639328.32143
     -3219.694       -2508.895
  22663750.735    22663750.2054   22663751.8034  119098856.271 7  92804298.16443
      -173.409        -135.124
  23663421.795    23663419.4164   23663422.7994  124352135.958 6  96897776.37041
      3495.687        2723.859
  23420082.283    23420082.2944   23420084.2974  123073388.871 7  95901351.63544
      2075.094        1616.919
  24146860.338    24146859.7464   24146862.0014  126892587.469 5  98877371.30641
      3830.438        2984.772
 06  5  8 15 28  0.0000000  0  9G 2G 6G 7G10G13G16G21G27G29
  23658254.490    23658255.5014   23658255.9534  124324944.997 6  96876591.54143
     -3856.263       -3004.854
  21974760.534    21974760.3004   21974762.3244  115478153.237 7  89982979.45543
     -1691.612       -1318.156
  22904014.943    22904014.7324   22904017.5974  120361415.212 6  93788138.09243
      2154.066        1678.510
  20564920.379    20564919.5344   20564921.4704  108069391.241 8  84209931.49646
       130.493         101.682
  23374515.230    23374514.7644   23374516.3044  122833888.037 6  95714729.24243
     -3232.111       -2518.526
  22664800.588    22664799.9384   22664800.9124  119104371.518 7  92808595.81943
      -194.843        -151.846
  23643485.229    23643484.9984   23643485.4704  124247377.456 5  96816146.34741
      3487.814        2717.788
  23408274.836    23408274.5384   23408277.0764  123011340.186 7  95853001.89044
      2060.597        1605.662
  24125006.871    24125006.4404   24125008.9484  126777752.134 5  98787889.26841
      3824.601        2980.249
 06  5  8 15 28 30.0000000  0  9G 2G 6G 7G10G13G16G21G27G29
  23680285.131    23680283.9884   23680285.5174  124440711.740 6  96966799.40042
     -3862.290       -3009.568
  21984464.328    21984464.1374   21984466.2404  115529147.601 7  90022715.24143
     -1708.364       -1331.175
  22891757.988    22891756.9594   22891759.4964  120297001.258 6  93737945.41543
      2139.725        1667.297
  20564231.096    20564230.4984   20564232.4434  108065773.031 8  84207112.67046
       110.032          85.740
  23392996.799    23392997.2814   23392997.9934  122931010.433 6  95790409.02543
     -3243.493       -2527.397
  22665969.810    22665968.7334   22665969.9744  119110514.991 6  92813383.09843
      -215.316        -167.789
  23623592.484    23623591.6254   23623593.1314  124142841.762 5  96734690.02941
      3480.867        2712.396
  23396547.685    23396547.6994   23396549.6204  122949715.223 7  95804982.44644
      2046.878        1594.959
  24103184.886    24103185.5454   24103187.1714  126663076.860 5  98698531.79041
      3819.941        2976.638
 06  5  8 15 29  0.0000000  0  9G 2G 6G 7G10G13G16G21G27G29
  23702351.241    23702351.8064   23702352.3294  124556679.147 5  97057163.56242
     -3869.037       -3014.867
  21994267.495    21994267.1084   21994269.0414  115580662.398 6  90062856.73843
     -1726.173       -1345.083
  22879584.772    22879584.6964   22879586.8924  120233034.616 6  93688101.31643
      2124.291        1655.279
  20563662.252    20563661.5764   20563663.4014  108062782.936 8  84204782.78046
        89.090          69.428
  23411546.333    23411545.5524   23411547.7854  123028486.879 6  95866364.35343
     -3255.340       -2536.621
  22667257.723    22667257.4994   22667257.9574  119117286.206 7  92818659.49043
      -236.548        -184.371
  23603743.569    23603742.6414   23603743.8174  124038530.747 5  96653408.76441
      3472.774        2706.083
  23384902.085    23384901.9684   23384903.6354  122888515.845 7  95757294.86744
      2032.724        1583.936
  24081394.314    24081394.0634   24081396.1984  126548564.545 5  98609301.24741
      3813.933        2971.953
 06  5  8 15 29 30.0000000  0  9G 2G 6G 7G10G13G16G21G27G29
  23724459.122    23724456.3134   23724457.3264  124672837.377 6  97147676.34042
     -3875.559       -3019.941
  22004167.210    22004167.4934   22004169.6634  115632688.050 7  90103395.98343
     -1743.161       -1358.309
  22867496.390    22867495.8764   22867499.0144  120169510.628 6  93638602.31343
      2109.713        1643.876
  20563211.689    20563211.0454   20563213.0114  108060414.684 8  84202937.17846
        67.995          52.964
  23430160.497    23430160.8804   23430162.4274  123126308.785 7  95942589.29843
     -3266.705       -2545.459
  22668664.227    22668664.0184   22668664.8534  119124677.743 7  92824419.21843
      -257.022        -200.283
  23583935.695    23583934.3644   23583936.7594  123934439.954 5  96572299.04341
      3465.638        2700.510
  23373335.982    23373335.8194   23373338.0504  122827735.995 7  95709933.87044
      2018.608        1572.915
  24059634.561    24059632.2764   24059637.7524  126434211.578 5  98520195.19741
      3808.489        2967.625
 06  5  8 15 30  0.0000000  0 10G 2G 6G 7G 8G10G13G16G21G27G29
  23746597.743    23746597.2324   23746597.4914  124789186.480 6  97238337.85542
     -3881.752       -3024.734
  22014165.333    22014164.7624   22014166.8694  115685225.837 6  90144334.49143
     -1759.969       -1371.424
  22855493.373    22855492.5204   22855495.0214  120106432.949 6  93589451.20443
      2094.906        1632.375
  24766067.784    24766067.3874   24766070.6544  130146590.278 5 101412922.30442
      3727.754        2904.742
  20562879.843    20562879.1274   20562880.9884  108058671.522 8  84201579.16846
        47.566          37.048
  23448840.779    23448841.4774   23448842.7344  123224474.386 6  96019081.78643
     -3278.102       -2554.355
  22670189.465    22670188.7574   22670189.9534  119132691.325 6  92830663.56643
      -277.678        -216.345
  23564168.719    23564169.4154   23564170.6624  123830573.931 6  96491364.57441
      3458.169        2694.686
  23361850.907    23361850.4234   23361853.0614  122767380.201 7  95662903.21644
      2004.506        1561.923
  24037903.769    24037903.9384   24037907.6234  126320021.360 5  98431215.83641
      3803.189        2963.527
 06  5  8 15 30 30.0000000  0 10G 2G 6G 7G 8G10G13G16G21G27G29
  23768773.854    23768775.4314   23768775.9274  124905729.807 6  97329150.75642
     -3888.512       -3029.984
  22024261.394    22024260.2624   22024263.0514  115738279.825 6  90185675.31443
     -1777.493       -1385.058
  22843575.745    22843575.3864   22843578.0034  120043809.390 6  93540653.96343
      2079.426        1620.304
  24744802.550    24744801.4854   24744806.1444  130034843.433 6 101325846.90042
      3721.250        2899.636
  20562668.030    20562667.2854   20562669.2154  108057557.761 8  84200711.23746
        26.075          20.327
  23467586.949    23467588.5324   23467589.1454  123322987.670 6  96095845.38143
     -3290.054       -2563.673
  22671833.134    22671833.1864   22671834.3914  119141332.820 7  92837397.18743
      -298.980        -232.951
  23544449.225    23544447.9644   23544450.3764  123726940.161 5  96410610.97341
      3450.202        2688.513
  23350448.320    23350447.7114   23350450.0234  122707455.896 7  95616208.58944
      1989.671        1550.388
  24016207.215    24016206.1414   24016206.7414  126206002.709 5  98342370.17241
      3797.103        2958.795
 06  5  8 15 31  0.0000000  0 10G 2G 6G 7G 8G10G13G16G21G27G29
  23790987.537    23790989.9564   23790991.0724  125022470.274 5  97420117.32542
     -3894.737       -3034.867
  22034455.941    22034455.7894   22034457.4874  115791853.426 6  90227420.86843
     -1794.608       -1398.457
  22831746.146    22831745.6934   22831749.1754  119981646.606 6  93492215.41743
      2064.015        1608.335
  24723574.774    24723574.1384   24723576.9764  129923288.832 6 101238921.05842
      3715.191        2894.967
  20562576.970    20562576.2484   20562578.2224  108057079.064 8  84200338.16346
         5.089           3.958
  23486401.885    23486400.9524   23486401.8924  123421850.496 7  96172881.26543
     -3301.559       -2572.651
  22673597.424    22673598.0014   22673598.5514  119150607.123 6  92844623.92643
      -320.007        -249.371
  23524775.363    23524774.2724   23524774.7894  123623546.706 6  96330044.61941
      3442.260        2682.247
  23339127.973    23339128.2654   23339130.7054  122647971.589 7  95569857.50744
      1975.237        1539.122
  23994544.803    23994543.2144   23994546.9834  126092163.382 5  98253664.16741
      3791.501        2954.402
 06  5  8 15 31 30.0000000  0 10G 2G 6G 7G 8G10G13G16G21G27G29
  23813242.097    23813239.7024   23813241.1104  125139396.788 6  97511228.80242
     -3900.670       -3039.522
  22044747.610    22044747.4294   22044748.9104  115845936.996 6  90269564.06143
     -1811.497       -1411.549
  22820005.130    22820003.9144   22820006.6454  119919938.785 6  93444131.45743
      2048.971        1596.615
  24702382.271    24702381.4024   24702384.5104  129811921.235 6 101152140.88142
      3708.877        2890.014
  20562604.895    20562604.2834   20562606.2494  108057226.889 8  84200453.32846
       -15.663         -12.199
  23505279.086    23505278.3834   23505279.6074  123521051.803 6  96250180.83443
     -3312.613       -2581.212
  22675481.816    22675481.3054   22675482.4644  119160505.133 6  92852336.60243
      -340.692        -265.471
  23505142.883    23505142.5994   23505144.7864  123520387.697 6  96249661.05541
      3434.485        2676.167
  23327890.595    23327890.5824   23327893.1034  122588919.622 7  95523843.12244
      1960.891        1527.957
  23972915.224    23972913.3594   23972917.4044  125978497.798 5  98165093.55041
      3785.890        2950.086
 06  5  8 15 32  0.0000000  0 10G 2G 6G 7G 8G10G13G16G21G27G29
  23835527.070    23835526.4714   23835526.1504  125256508.989 6  97602484.99142
     -3907.224       -3044.613
  22055136.144    22055135.6524   22055138.4104  115900530.180 6  90312104.19743
     -1828.762       -1424.968
  22808347.695    22808348.0264   22808351.2984  119858689.823 6  93396405.17443
      2033.410        1584.452
  24681226.511    24681224.9954   24681229.3704  129700745.996 6 101065510.76042
      3702.011        2884.602
  20562752.760    20562751.9944   20562753.9644  108058002.760 8  84201057.85246
       -36.844         -28.719
  23524220.273    23524220.1174   23524221.7764  123620590.471 6  96327743.35843
     -3324.152       -2590.256
  22677484.102    22677483.9284   22677485.4424  119171028.693 6  92860536.77243
      -361.819        -281.982
  23485558.947    23485558.5444   23485559.5454  123417466.934 6  96169463.22341
      3426.136        2669.709
  23316736.539    23316736.4684   23316738.7434  122530304.041 7  95478168.84544
      1945.988        1516.334
  23951318.478    23951319.0634   23951319.8784  125865010.303 5  98076661.73441
      3779.464        2945.024
 06  5  8 15 32 30.0000000  0 10G 2G 6G 7G 8G10G13G16G21G27G29
  23857847.266    23857847.6694   23857848.3324  125373810.993 6  97693889.20342
     -3913.960       -3049.854
  22065622.621    22065622.5034   22065624.6834  115955637.671 6  90355045.08443
     -1846.146       -1438.541
  22796781.286    22796780.5794   22796784.0234  119797907.696 6  93349042.62743
      2017.673        1572.203
  24660107.958    24660107.6614   24660111.6364  129589771.900 5 100979037.56742
      3695.062        2879.300
  20563021.172    20563020.3454   20563022.1924  108059413.440 8  84202157.24046
       -58.233         -45.382
  23543226.747    23543227.0964   23543228.1184  123720470.874 6  96405572.30643
     -3335.581       -2599.148
  22679607.598    22679607.0944   22679607.8324  119182183.662 7  92869228.96943
      -382.923        -298.394
  23466021.382    23466019.8434   23466021.2134  123314793.014 6  96089457.65441
      3417.773        2663.215
  23305666.308    23305666.6444   23305668.6954  122472132.463 7  95432840.30644
      1931.015        1504.672
  23929758.484    23929759.1114   23929760.3084  125751709.809 5  97988375.63341
      3772.711        2939.844
 06  5  8 15 33  0.0000000  0 10G 2G 6G 7G 8G10G13G16G21G27G29
  23880201.990    23880202.5154   23880203.6334  125491288.782 6  97785430.41042
     -3919.008       -3053.756
  22076204.688    22076204.5894   22076207.0034  116011246.956 6  90398377.05343
     -1862.192       -1451.021
  22785303.456    22785302.6774   22785304.8414  119737582.952 6  93302036.39243
      2003.016        1560.819
  24639027.121    24639026.8644   24639030.6994  129478990.944 6 100892714.86542
      3689.239        2874.684
  20563407.867    20563407.2944   20563409.2654  108061446.391 8  84203741.17446
       -78.477         -61.125
  23562295.721    23562295.3554   23562297.5534  123820678.645 6  96483656.54043
     -3345.883       -2607.156
  22681848.282    22681847.5824   22681848.9884  119193958.141 6  92878403.83643
      -403.074        -314.072
  23446526.911    23446525.6934   23446527.9964  123212357.681 6  96009638.13442
      3410.337        2657.412
  23294679.943    23294680.0534   23294682.3954  122414395.411 7  95387850.23044
      1916.978        1493.758
  23908231.916    23908231.5284   23908234.6374  125638587.800 5  97900228.70241
      3767.599        2935.804
 06  5  8 15 33 30.0000000  0 10G 2G 6G 7G 8G10G13G16G21G27G29
  23902592.032    23902591.3104   23902592.2774  125608940.742 6  97877107.17242
     -3924.650       -3058.129
  22086881.969    22086882.2174   22086884.6914  116067356.836 6  90442098.98143
     -1878.625       -1463.863
  22773911.732    22773910.3354   22773912.7724  119677718.255 6  93255388.38443
      1987.868        1549.029
  24617984.373    24617984.1504   24617986.9674  129368407.106 6 100806545.70843
      3682.789        2869.740
  20563913.970    20563913.0534   20563915.0434  108064103.049 8  84205811.09046
       -98.981         -77.112
  23581426.510    23581425.7524   23581427.1574  123921211.278 6  96561993.58543
     -3356.461       -2615.443
  22684206.498    22684206.7744   22684207.3184  119206353.006 6  92888062.17943
      -423.501        -329.971
  23427080.050    23427079.7974   23427080.8444  123110163.518 6  95930006.53142
      3402.450        2651.233
  23283775.813    23283775.8754   23283778.4734  122357096.704 7  95343202.00544
      1902.772        1482.718
  23886740.386    23886738.8084   23886741.4514  125525647.452 5  97812223.23441
      3761.651        2931.221
 06  5  8 15 34  0.0000000  0 10G 2G 6G 7G 8G10G13G16G21G27G29
  23925013.536    23925013.5974   23925014.1814  125726768.946 6  97968921.33442
     -3931.296       -3063.289
  22097655.170    22097654.7594   22097656.8164  116123970.432 6  90486213.67343
     -1896.185       -1477.546
  22762607.434    22762607.4554   22762609.7854  119618320.471 6  93209104.46543
      1971.576        1536.337
  24596979.443    24596979.6124   24596981.6314  129258027.220 6 100720535.42243
      3675.161        2863.753
  20564538.519    20564537.9294   20564539.9794  108067388.082 8  84208371.04846
      -120.609         -93.970
  23600618.936    23600619.2574   23600620.4474  124022070.634 6  96640585.20043
     -3368.145       -2624.489
  22686684.353    22686683.3264   22686684.3374  119219371.874 6  92898206.85843
      -445.018        -346.762
  23407680.665    23407680.2174   23407680.6814  123008217.264 6  95850568.07742
      3393.423        2644.220
  23272956.928    23272956.9344   23272958.8114  122300241.255 7  95298899.06944
      1887.016        1470.421
  23865282.734    23865284.4724   23865284.6834  125412895.731 5  97724364.79541
      3754.384        2925.479
 06  5  8 15 34 30.0000000  0 10G 2G 6G 7G 8G10G13G16G21G27G29
  23947469.129    23947468.7014   23947468.5784  125844770.255 6  98060870.33742
     -3936.991       -3067.798
  22108523.125    22108523.3974   22108524.9064  116181084.827 6  90530718.64543
     -1912.789       -1490.498
  22751393.788    22751393.7094   22751396.3614  119559390.065 6  93163184.44643
      1955.954        1524.109
  24576014.289    24576012.8114   24576016.8204  129147853.653 6 100634685.82842
      3668.257        2858.447
  20565282.913    20565282.4064   20565284.4374  108071299.486 8  84211418.84346
      -141.546        -110.295
  23619873.155    23619873.3834   23619875.3314  124123253.821 6  96719429.40943
     -3378.829       -2632.827
  22689279.169    22689279.5804   22689280.7844  119233013.249 6  92908836.52943
      -465.657        -362.860
  23388328.075    23388328.3124   23388328.7134  122906520.503 5  95771323.89342
      3385.098        2637.740
  23262222.776    23262222.1524   23262224.4484  122243830.757 7  95254942.89244
      1872.157        1458.805
  23843863.563    23843863.7944   23843866.3244  125300334.199 5  97636654.40741
      3748.205        2920.715
 06  5  8 15 35  0.0000000  0 10G 2G 6G 7G 8G10G13G16G21G27G29
  23969955.448    23969956.0434   23969956.1334  125962941.033 6  98152951.33242
     -3942.470       -3072.026
  22119486.668    22119486.3304   22119488.9044  116238696.476 6  90575610.66743
     -1929.204       -1503.300
  22740269.092    22740268.3594   22740271.2434  119500928.711 6  93117630.16743
      1940.399        1511.986
  24555087.708    24555088.0134   24555092.3534  129037888.736 5 100548998.96341
      3661.419        2853.100
  20566146.274    20566145.7344   20566147.6664  108075836.778 8  84214954.52746
      -162.132        -126.311
  23639189.002    23639188.1594   23639189.9904  124224755.466 6  96798521.22743
     -3389.186       -2640.906
  22691993.825    22691992.6094   22691994.6344  119247275.957 6  92919950.35743
      -486.264        -378.894
  23369024.052    23369022.6584   23369023.6314  122805074.375 6  95692274.78742
      3376.803        2631.331
  23251572.576    23251572.4194   23251574.6634  122187865.810 7  95211333.83544
      1857.489        1447.403
  23822480.555    23822480.2714   23822484.9244  125187965.127 5  97549094.17141
      3741.702        2915.579
 06  5  8 15 35 30.0000000  0 10G 2G 6G 7G 8G10G13G16G21G27G29
  23992476.401    23992476.4094   23992476.7974  126081282.961 6  98245165.80442
     -3947.848       -3076.271
  22130544.436    22130544.8834   22130547.2044  116296808.211 6  90620892.55743
     -1945.686       -1516.150
  22729234.149    22729234.2354   22729237.3354  119442941.911 6  93072445.90843
      1924.695        1499.768
  24534203.928    24534203.0264   24534207.2454  128928139.155 6 100463479.93342
      3654.568        2847.715
  20567129.179    20567128.6674   20567130.5274  108081002.582 8  84218979.80946
      -183.003        -142.603
  23658564.350    23658565.1574   23658566.6164  124326577.874 6  96877863.28743
     -3399.638       -2649.042
  22694826.514    22694826.2674   22694827.2914  119262162.972 6  92931550.67243
      -506.966        -395.036
  23349767.883    23349768.5894   23349768.4854  122703885.498 6  95613426.31942
      3368.391        2624.694
  23241008.938    23241008.4254   23241011.1264  122132351.632 7  95168075.95344
      1842.662        1435.810
  23801135.532    23801135.4234   23801138.4624  125075794.248 5  97461688.24841
      3735.502        2910.814
 06  5  8 15 36  0.0000000  0 10G 2G 6G 7G 8G10G13G16G21G27G29
  24015026.107    24015025.6274   24015026.9034  126199786.703 6  98337506.30842
     -3953.732       -3080.813
  22141696.570    22141696.7404   22141698.4074  116355411.194 6  90666557.20643
     -1962.463       -1529.179
  22718288.384    22718288.4674   22718291.3244  119385424.142 6  93027626.95343
      1908.605        1487.263
  24513359.663    24513359.0174   24513362.3294  128818600.686 6 100378125.33743
      3646.906        2841.777
  20568230.794    20568230.0014   20568231.8924  108086790.217 8  84223489.72646
      -204.114        -159.048
  23678000.913    23678000.7334   23678001.1484  124428711.543 6  96957448.01342
     -3410.391       -2657.474
  22697776.876    22697776.8644   22697777.7384  119277666.815 7  92943631.59443
      -527.907        -411.361
  23330559.855    23330560.2504   23330561.3554  122602948.570 5  95534773.72642
      3359.498        2617.756
  23230530.088    23230529.3814   23230531.4534  122077283.658 7  95125165.84444
      1827.208        1423.754
  23779827.622    23779826.4744   23779829.3184  124963817.080 5  97374433.20541
      3728.495        2905.323
 06  5  8 15 36 30.0000000  0 10G 2G 6G 7G 8G10G13G16G21G27G29
  24037607.691    24037607.7764   24037608.1024  126318451.841 6  98429972.55842
     -3958.573       -3084.580
  22152942.038    22152942.3794   22152943.7194  116414505.861 6  90712604.89243
     -1978.397       -1541.610
  22707434.128    22707433.5664   22707435.9754  119328379.690 6  92983176.81343
      1893.125        1475.147
  24492555.415    24492554.9694   24492557.6404  128709278.731 6 100292939.48643
      3640.080        2836.446
  20569450.425    20569449.8994   20569451.7734  108093201.831 8  84228485.99246
      -224.602        -175.003
  23697495.100    23697495.1504   23697495.8454  124531156.203 6  97037275.44642
     -3420.381       -2665.258
  22700844.616    22700844.3774   22700846.1944  119293789.095 6  92956194.41343
      -548.167        -427.138
  23311401.943    23311401.6954   23311403.3094  122502269.861 6  95456322.90642
      3351.231        2611.312
  23220136.773    23220136.3014   23220138.1374  122022665.495 7  95082606.01344
      1812.582        1412.374
  23758556.145    23758558.4024   23758558.0754  124852039.108 5  97287333.42241
      3722.236        2900.369
 06  5  8 15 37  0.0000000  0 10G 2G 6G 7G 8G10G13G16G21G27G29
  24060219.178    24060220.8164   24060219.8534  126437278.082 6  98522564.16342
     -3964.358       -3089.066
  22164281.355    22164281.1134   22164284.1214  116474092.550 6  90759036.01243
     -1995.262       -1554.764
  22696669.881    22696668.7284   22696670.7044  119271812.395 6  92939098.46643
      1876.695        1462.349
  24471794.730    24471794.5934   24471796.5994  128600178.255 5 100207926.26242
      3632.131        2830.240
  20570789.493    20570788.7464   20570790.6404  108100238.853 8  84233969.65546
      -245.853        -191.577
  23717047.737    23717047.5324   23717049.8244  124633909.484 6  97117342.85143
     -3431.110       -2673.614
  22704030.782    22704030.6424   22704030.7094  119310531.416 6  92969240.43043
      -569.317        -443.654
  23292293.151    23292292.7974   23292295.0994  122401853.036 6  95378076.30442
      3341.968        2604.136
  23209829.265    23209829.0584   23209831.0144  121968502.375 7  95040401.37144
      1796.973        1400.247
  23737324.678    23737325.1954   23737327.5534  124740465.509 5  97200393.30141
      3714.788        2894.618
 06  5  8 15 37 30.0000000  0 10G 2G 6G 7G 8G10G13G16G21G27G29
  24082863.216    24082863.1794   24082863.4894  126556269.923 6  98615284.94442
     -3969.398       -3093.058
  22175714.871    22175715.1264   22175716.3304  116534176.068 6  90805854.29843
     -2011.309       -1567.279
  22685997.617    22685997.3174   22685999.3104  119215730.472 7  92895398.19443
      1861.155        1450.258
  24451076.233    24451077.2094   24451080.1914  128491308.983 6 100123093.03642
      3624.883        2824.621
  20572248.879    20572248.0674   20572249.7354  108107906.818 8  84239944.66846
      -266.564        -207.728
  23736660.630    23736661.9714   23736662.5324  124736976.037 6  97197654.22143
     -3441.010       -2681.314
  22707335.601    22707335.5794   22707336.7704  119327900.146 6  92982774.76843
      -589.581        -459.429
  23273235.727    23273234.8934   23273236.2934  122301706.718 6  95300040.49842
      3333.557        2597.548
  23199610.093    23199609.9084   23199612.2844  121914800.454 7  94998555.64544
      1782.045        1388.577
  23716133.748    23716131.7874   23716136.6704  124629104.472 5  97113618.71941
      3708.290        2889.567
 06  5  8 15 38  0.0000000  0 10G 2G 6G 7G 8G10G13G16G21G27G29
  24105534.863    24105536.1654   24105536.8034  126675419.701 6  98708128.94742
     -3974.587       -3097.093
  22187241.389    22187241.7064   22187243.4564  116594748.962 6  90853053.84443
     -2027.708       -1580.093
  22675417.168    22675416.2474   22675419.4904  119160130.226 6  92852073.02143
      1844.794        1437.518
  24430404.554    24430403.9484   24430406.8074  128382668.747 6 100038438.22243
      3617.092        2818.478
  20573826.926    20573826.1634   20573827.9274  108116200.881 8  84246407.76046
      -287.476        -223.988
  23756331.654    23756332.4524   23756333.1754  124840348.559 6  97278204.30242
     -3451.280       -2689.299
  22710758.278    22710758.7674   22710759.7674  119345888.072 7  92996791.29643
      -610.463        -475.681
  23254229.149    23254228.3544   23254229.8624  122201827.638 6  95222212.86942
      3324.370        2590.420
  23189477.982    23189478.2264   23189480.1834  121861557.558 7  94957067.78644
      1766.690        1376.698
  23694980.627    23694982.0594   23694982.8184  124517953.143 5  97027007.44741
      3701.177        2884.112
 06  5  8 15 38 30.0000000  0 10G 2G 6G 7G 8G10G13G16G21G27G29
  24128240.163    24128239.9034   24128242.0104  126794731.233 5  98801098.83742
     -3980.208       -3101.426
  22198862.396    22198862.5404   22198864.8084  116655816.154 6  90900638.59943
     -2044.284       -1592.919
  22664930.033    22664929.8184   22664931.9584  119105021.116 7  92809130.98743
      1828.340        1424.663
  24409775.795    24409775.2504   24409779.7744  128274267.182 6  99953969.50543
      3609.011        2812.200
  20575525.776    20575524.9974   20575526.5354  108125126.029 9  84253362.14446
      -308.398        -240.292
  23776060.979    23776061.7444   23776062.9484  124944029.932 6  97358995.16943
     -3461.560       -2697.315
  22714300.650    22714300.4514   22714301.0994  119364502.403 6  93011296.08743
      -631.302        -491.917
  23235274.318    23235274.5664   23235275.8414  122102225.068 6  95144600.69142
      3314.951        2583.062
  23179435.360    23179435.3474   23179437.2664  121808780.521 7  94915942.46644
      1751.128        1364.545
  23673871.849    23673872.3174   23673874.2034  124407020.668 5  96940566.66941
      3693.472        2878.041
 06  5  8 15 39  0.0000000  0 10G 2G 6G 7G 8G10G13G16G21G27G29
  24150973.568    24150974.1064   24150974.3084  126914192.381 6  98894185.27442
     -3984.685       -3104.952
  22210574.963    22210575.0554   22210576.6034  116717366.519 6  90948600.13443
     -2059.965       -1605.201
  22654535.041    22654534.7624   22654537.7614  119050394.691 7  92766565.09043
      1812.427        1412.259
  24389190.813    24389191.1214   24389194.0234  128166096.978 5  99869681.18142
      3601.703        2806.550
  20577342.413    20577341.8464   20577343.6904  108134672.615 8  84260800.64146
      -328.887        -256.272
  23795848.326    23795847.7054   23795849.4864  125048008.338 6  97440017.59843
     -3471.198       -2704.846
  22717959.881    22717959.9004   22717961.1724  119383731.988 6  93026280.32543
      -651.546        -507.681
  23216372.440    23216371.6354   23216371.9034  122002891.500 6  95067198.05342
      3306.303        2576.310
  23169479.738    23169479.7624   23169481.3964  121756462.765 7  94875175.33644
      1735.965        1352.699
  23652803.056    23652802.2844   23652803.9984  124296300.209 5  96854291.08241
      3686.953        2872.935
 06  5  8 15 39 30.0000000  0 10G 2G 6G 7G 8G10G13G16G21G27G29
  24173734.993    24173734.5144   24173735.3124  127033802.900 6  98987388.22442
     -3990.184       -3109.209
  22222379.510    22222378.5124   22222381.0274  116779398.465 6  90996936.56743
     -2076.306       -1617.882
  22644232.686    22644232.0124   22644234.4104  118996254.120 6  92724377.79143
      1795.961        1399.444
  24368652.815    24368652.1854   24368655.5404  128058162.880 6  99785576.65342
      3593.059        2799.811
  20579277.945    20579277.1204   20579279.0564  108144842.154 8  84268724.74746
      -349.917        -272.648
  23815689.821    23815690.2054   23815692.3424  125152281.549 6  97521269.45543
     -3481.349       -2712.717
  22721736.081    22721735.8684   22721737.0644  119403577.220 6  93041744.27343
      -672.341        -523.899
  23197521.617    23197521.0304   23197522.6084  121903830.322 6  94990007.49942
      3296.860        2569.040
  23159611.750    23159611.6354   23159614.0424  121704606.761 7  94834768.06344
      1720.120        1340.341
  23631773.635    23631774.3464   23631775.7564  124185795.767 5  96768183.80541
      3679.133        2866.845
 06  5  8 15 40  0.0000000  0 10G 2G 6G 7G 8G10G13G16G21G27G29
  24196522.087    24196521.3464   24196523.7604  127153551.328 6  99080698.60542
     -3993.958       -3112.162
  22234273.878    22234273.4734   22234274.7054  116841902.077 6  91045640.55643
     -2091.426       -1629.690
  22634020.551    22634020.8724   22634023.2854  118942592.148 6  92682563.26643
      1780.569        1387.470
  24348157.771    24348157.1574   24348160.4124  127950459.174 6  99701651.46342
      3586.050        2794.345
  20581330.252    20581329.3634   20581331.4784  108155624.691 8  84277126.20746
      -369.956        -288.286
  23835587.563    23835587.0964   23835590.2924  125256838.511 6  97602742.35843
     -3490.138       -2719.549
  22725628.410    22725627.2794   22725628.3794  119424029.189 6  93057680.92643
      -692.006        -539.252
  23178721.379    23178721.8584   23178722.2514  121805036.131 6  94913025.07742
      3288.642        2562.596
  23149830.740    23149830.1744   23149832.3164  121653205.688 7  94794715.23344
      1705.485        1328.922
  23610786.381    23610785.8114   23610786.9544  124075501.374 5  96682240.24841
      3672.898        2861.983
 06  5  8 15 40 30.0000000  0 10G 2G 6G 7G 8G10G13G16G21G27G29
  24219337.217    24219335.8184   24219338.1244  127273442.700 6  99174120.59442
     -3998.719       -3115.878
  22246258.710    22246258.0174   22246260.2674  116904882.849 6  91094716.53543
     -2107.369       -1642.126
  22623901.453    22623901.8094   22623904.4054  118889417.703 6  92641128.64143
      1764.161        1374.652
  24327707.430    24327706.9504   24327711.4334  127842996.054 6  99617913.94242
      3578.090        2788.172
  20583499.838    20583499.3314   20583501.2454  108167029.147 8  84286013.12346
      -390.589        -304.386
  23855538.253    23855538.9894   23855539.8744  125361683.615 6  97684439.79343
     -3499.694       -2727.055
  22729636.389    22729636.3454   22729637.4414  119445094.305 7  93074095.45343
      -712.488        -555.198
  23159975.741    23159974.1154   23159975.5234  121706517.932 6  94836257.66542
      3279.167        2555.203
  23140137.657    23140137.4564   23140139.6544  121602268.840 7  94755024.35244
      1690.108        1316.962
  23589838.359    23589839.3314   23589841.9504  123965426.574 5  96596467.79941
      3665.474        2856.263
 06  5  8 15 41  0.0000000  0 10G 2G 6G 7G 8G10G13G16G21G27G29
  24242177.239    24242176.6704   24242177.7804  127393470.793 6  99267649.11242
     -4003.947       -3119.919
  22258332.462    22258332.6114   22258334.2394  116968335.342 6  91144160.18643
     -2123.698       -1654.803
  22613875.681    22613875.8244   22613877.5174  118836729.480 6  92600072.85043
      1747.556        1361.762
  24307303.554    24307303.3534   24307307.3364  127735773.302 6  99534363.86743
      3569.364        2781.301
  20585787.371    20585786.6484   20585788.5434  108179049.660 8  84295379.91646
      -411.830        -320.919
  23875543.920    23875543.6274   23875544.6424  125466810.821 6  97766357.09143
     -3509.583       -2734.667
  22733760.539    22733760.4874   22733761.3154  119466767.899 6  93090983.92143
      -733.287        -571.393
  23141279.195    23141279.7064   23141279.9374  121608274.813 6  94759704.54242
      3269.497        2547.665
  23130532.102    23130531.9064   23130534.4654  121551793.483 7  94715692.79944
      1674.029        1304.431
  23568933.967    23568934.3714   23568936.0584  123855570.558 5  96510865.75741
      3657.405        2849.975
 06  5  8 15 41 30.0000000  0 10G 2G 6G 7G 8G10G13G16G21G27G29
  24265045.342    24265044.3004   24265045.8014  127513645.038 6  99361291.50542
     -4008.656       -3123.639
  22270498.984    22270498.3834   22270500.9984  117032268.591 6  91193978.18943
     -2139.692       -1667.262
  22603944.486    22603943.8014   22603946.4044  118784540.791 6  92559406.36743
      1730.618        1348.528
  24286948.959    24286948.6924   24286951.7104  127628805.945 6  99451012.77343
      3560.742        2774.602
  20588194.307    20588193.4504   20588195.3964  108191696.881 8  84305234.74747
      -432.531        -337.043
  23895604.363    23895604.1944   23895606.3124  125572229.026 6  97848501.16342
     -3519.329       -2742.300
  22738003.160    22738003.1784   22738004.1274  119489060.984 6  93108355.04043
      -754.114        -587.601
  23122639.997    23122639.6784   23122639.9214  121510320.744 6  94683376.64342
      3259.674        2540.008
  23121017.876    23121017.2714   23121019.8934  121501794.407 7  94676732.89444
      1658.123        1292.047
  23548073.223    23548072.3954   23548075.6444  123745947.395 5  96425445.07641
      3649.682        2843.882
 06  5  8 15 42  0.0000000  0 10G 2G 6G 7G 8G10G13G16G21G27G29
  24287941.666    24287941.1404   24287941.6424  127633959.941 6  99455043.54542
     -4012.860       -3126.905
  22282755.102    22282755.6734   22282757.4684  117096677.968 6  91244167.32743
     -2154.874       -1679.112
  22594107.760    22594107.2034   22594110.0854  118732849.928 6  92519127.86243
      1714.776        1336.205
  24266641.934    24266642.3374   24266645.2334  127522093.047 6  99367859.82642
      3552.739        2768.336
  20590719.367    20590718.6564   20590720.6184  108204968.085 8  84315576.12146
      -452.789        -352.841
  23915719.302    23915718.5374   23915721.0444  125677931.223 6  97930866.20742
     -3528.133       -2749.133
  22742362.878    22742362.6734   22742363.8854  119511968.937 6  93126205.01543
      -773.828        -602.997
  23104054.796    23104053.6104   23104054.1394  121412654.686 6  94607273.16642
      3250.688        2533.009
  23111593.043    23111592.7104   23111594.8654  121452268.471 7  94638141.40844
      1642.906        1280.184
  23527255.363    23527256.0174   23527257.2084  123636556.616 5  96340205.53441
      3642.550        2838.332
 06  5  8 15 42 30.0000000  0 10G 2G 6G 7G 8G10G13G16G21G27G29
  24310861.235    24310860.5264   24310862.4484  127754409.613 5  99548900.42942
     -4017.684       -3130.646
  22295101.414    22295102.4694   22295104.0414  117161558.373 6  91294723.47543
     -2170.865       -1691.573
  22584365.775    22584365.3854   22584367.9944  118681655.663 6  92479236.30843
      1698.083        1323.182
  24246383.737    24246383.0194   24246386.9154  127415634.594 6  99284905.20642
      3544.002        2761.527
  20593362.496    20593361.7574   20593363.7104  108218860.342 8  84326401.91446
      -473.623        -369.094
  23935886.834    23935886.4064   23935887.6834  125783913.395 6  98013449.78042
     -3537.445       -2756.445
  22746838.549    22746838.3014   22746839.9894  119535488.649 6  93144531.86943
      -794.297        -618.929
  23085524.289    23085522.7944   23085524.1734  121315276.505 6  94531394.06342
      3240.901        2525.363
  23102258.471    23102257.9094   23102260.4704  121403214.401 7  94599917.45844
      1627.061        1267.811
  23506484.193    23506484.3504   23506485.6254  123527397.646 5  96255146.65142
      3634.198        2831.833
 06  5  8 15 43  0.0000000  0 10G 2G 6G 7G 8G10G13G16G21G27G29
  24333809.265    24333808.8284   24333810.3184  127874999.207 6  99642866.25042
     -4022.298       -3134.263
  22307538.753    22307538.7374   22307541.5644  117226914.264 6  91345649.57743
     -2186.908       -1704.085
  22574720.023    22574719.3774   22574722.2884  118630967.158 6  92439738.92243
      1680.769        1309.705
  24226175.801    24226175.4904   24226179.7684  127309441.049 6  99202156.95443
      3535.140        2754.669
  20596125.110    20596124.6224   20596126.5534  108233377.450 8  84337713.59846
      -494.703        -385.458
  23956107.651    23956108.5974   23956109.4004  125890179.068 6  98096254.02142
     -3547.172       -2764.005
  22751431.795    22751431.3984   22751433.5934  119559626.710 6  93163340.69543
      -815.266        -635.341
  23067050.200    23067050.3404   23067050.6094  121218195.744 6  94455746.76742
      3230.617        2517.354
  23093015.331    23093015.0204   23093016.9124  121354641.419 7  94562068.35444
      1610.901        1255.284
  23485758.536    23485759.1564   23485760.8494  123418480.434 5  96170276.06642
      3626.090        2825.518
 06  5  8 15 43 30.0000000  0 10G 2G 6G 7G 8G10G13G16G21G27G29
  24356781.607    24356780.3694   24356780.3054  127995715.843 6  99736931.21542
     -4026.223       -3137.305
  22320064.503    22320064.2724   22320066.6264  117292734.469 6  91396937.92343
     -2201.910       -1715.760
  22565168.967    22565168.5064   22565170.4974  118580774.621 7  92400627.76943
      1664.441        1296.949
  24206016.595    24206016.5834   24206019.2884  127203504.837 6  99119609.28943
      3526.543        2747.975
  20599004.942    20599004.3394   20599006.2464  108248510.295 8  84349505.37346
      -514.988        -401.306
  23976382.453    23976381.2014   23976382.7974  125996714.942 6  98179268.97142
     -3555.981       -2770.898
  22756140.425    22756140.4234   22756141.5404  119584371.549 6  93182622.64943
      -835.196        -650.786
  23048630.620    23048630.5354   23048630.9344  121121403.616 6  94380324.39742
      3221.299        2510.105
  23083861.695    23083861.8484   23083863.9624  121306540.459 7  94524587.09244
      1595.090        1242.896
  23465076.688    23465076.5594   23465078.2684  123309796.801 5  96085587.56642
      3618.613        2819.678
 06  5  8 15 44  0.0000000  0 10G 2G 6G 7G 8G10G13G16G21G27G29
  24379776.294    24379776.1524   24379775.4614  128116558.375 6  99831094.30542
     -4030.756       -3140.877
  22332677.946    22332678.0374   22332679.8984  117359017.398 6  91448586.87843
     -2217.750       -1728.132
  22555712.404    22555712.2454   22555715.2274  118531080.988 6  92361905.28343
      1647.448        1283.761
  24185907.531    24185907.2184   24185909.8394  127097829.879 6  99037264.98542
      3517.517        2740.936
  20602001.826    20602000.9114   20602002.8004  108264259.861 8  84361778.21946
      -535.852        -417.555
  23996704.983    23996705.3984   23996706.4974  126103519.723 6  98262493.62542
     -3565.324       -2778.178
  22760964.389    22760964.1354   22760965.4674  119609722.494 6  93202376.72543
      -855.819        -666.847
  23030267.093    23030267.9774   23030268.4204  121024904.024 6  94305130.07242
      3211.059        2502.120
  23074798.919    23074798.6524   23074800.7414  121258914.220 7  94487476.00644
      1579.022        1230.413
  23444439.090    23444439.8734   23444441.7864  123201350.606 5  96001084.04042
      3610.183        2813.089
 06  5  8 15 44 30.0000000  0 10G 2G 6G 7G 8G10G13G16G21G27G29
  24402797.492    24402796.0724   24402796.5054  128237530.537 6  99925358.30542
     -4035.463       -3144.474
  22345379.358    22345379.7004   22345382.2704  117425768.900 6  91500601.73943
     -2233.696       -1740.570
  22546353.155    22546352.6014   22546354.9234  118481894.192 7  92323577.57943
      1630.144        1270.286
  24165849.818    24165849.7404   24165852.5004  126992425.928 6  98955132.18742
      3508.008        2733.500
  20605116.665    20605116.1734   20605117.9474  108280629.253 8  84374533.39446
      -556.877        -433.923
  24017080.557    24017081.6834   24017083.8444  126210596.339 6  98345930.06942
     -3574.689       -2785.451
  22765905.260    22765905.1694   22765906.0374  119635683.184 6  93222604.97043
      -876.677        -683.182
  23011961.992    23011961.2284   23011961.8274  120928705.320 6  94230170.25442
      3200.707        2494.031
  23065827.799    23065827.5124   23065829.2634  121211769.183 7  94450739.33944
      1562.460        1217.529
  23423849.793    23423850.0134   23423852.8994  123093150.397 5  95916772.24841
      3601.709        2806.539
 06  5  8 15 45  0.0000000  0  9G 6G 7G 8G10G13G16G21G27G29
  22358170.806    22358170.6624   22358173.1954  117492983.957 6  91552976.64243
     -2248.379       -1751.968
  22537090.425    22537089.6824   22537092.4144  118433218.006 6  92285648.11643
      1613.757        1257.467
  24145844.124    24145843.7234   24145847.5794  126887296.617 6  98873213.34743
      3499.499        2726.842
  20608350.023    20608349.5894   20608351.3954  108297620.842 8  84387773.58346
      -576.858        -449.508
  24037510.949    24037509.2994   24037510.7394  126317942.455 6  98429576.17242
     -3582.954       -2791.978
  22770962.250    22770961.6594   22770963.4454  119662257.517 6  93243312.39443
      -896.241        -698.369
  22993713.315    22993713.1064   22993713.2324  120832810.139 6  94155446.69942
      3191.098        2486.573
  23056948.737    23056948.6784   23056950.6444  121165109.437 7  94414380.87244
      1546.997        1205.443
  23403308.160    23403308.8554   23403308.8274  122985199.979 5  95832655.09342
      3593.928        2800.503
 06  5  8 15 45 30.0000000  0  9G 6G 7G 8G10G13G16G21G27G29
  22371048.138    22371048.4384   22371051.2504  117560656.965 6  91605708.23143
     -2263.419       -1763.716
  22527923.555    22527922.8314   22527925.2554  118385047.224 6  92248112.38443
      1597.318        1244.652
  24125890.411    24125890.0194   24125892.5794  126782439.348 6  98791506.56743
      3490.700        2720.022
  20611700.878    20611699.9824   20611701.8564  108315227.369 8  84401492.84246
      -597.052        -465.214
  24057984.946    24057986.9474   24057987.4414  126425550.762 6  98513426.76942
     -3591.231       -2798.377
  22776134.057    22776133.9674   22776135.1924  119689437.647 6  93264492.16143
      -915.973        -713.764
  22975522.061    22975522.3364   22975522.8004  120737216.390 6  94080958.05042
      3181.435        2479.032
  23048160.912    23048160.6604   23048162.9344  121118931.120 7  94378398.03844
      1531.352        1193.291
  23382812.665    23382812.0524   23382814.7484  122877496.023 6  95748729.89442
      3586.014        2794.360
 06  5  8 15 46  0.0000000  0  9G 6G 7G 8G10G13G16G21G27G29
  22384011.103    22384010.7104   22384013.7864  117628776.485 6  91658788.64443
     -2278.367       -1775.373
  22518851.566    22518850.7724   22518853.3914  118337373.172 6  92210964.14243
      1580.586        1231.654
  24105986.866    24105986.0544   24105989.5674  126677846.043 6  98710005.52842
      3481.778        2713.074
  20615165.849    20615165.2694   20615167.1964  108333437.406 8  84415682.52146
      -617.369        -481.076
  24078511.135    24078510.2424   24078512.2984  126533406.655 6  98597470.25142
     -3599.487       -2804.796
  22781419.482    22781418.9924   22781419.5284  119717208.943 6  93286131.88643
      -935.969        -729.308
  22957387.594    22957386.2884   22957387.0534  120641914.991 6  94006697.18342
      3171.573        2471.413
  23039463.209    23039462.9444   23039465.2434  121073222.400 7  94342780.47944
      1515.426        1180.859
  23362362.616    23362362.2214   23362364.2384  122770029.588 6  95664989.83342
      3578.015        2788.054
 06  5  8 15 46 30.0000000  0  9G 6G 7G 8G10G13G16G21G27G29
  22397058.662    22397058.7334   22397060.1444  117697341.828 6  91712216.55043
     -2293.721       -1787.332
  22509874.918    22509873.8944   22509876.2254  118290196.831 6  92174202.41843
      1563.419        1218.256
  24086134.800    24086133.8634   24086137.9124  126573522.214 6  98628714.41343
      3472.160        2705.593
  20618746.327    20618745.6644   20618747.3714  108352253.034 8  84430344.18146
      -638.137        -497.276
  24099081.397    24099082.3944   24099083.1204  126641510.623 6  98681707.17742
     -3608.356       -2811.738
  22786816.360    22786816.5524   22786817.9104  119745575.800 6  93308236.29943
      -956.178        -745.090
  22939308.603    22939307.5834   22939308.5704  120546910.593 6  93932667.81842
      3161.128        2463.257
  23030855.572    23030855.2144   23030857.6264  121027990.213 7  94307534.92844
      1498.966        1168.006
  23341958.835    23341958.4644   23341959.9294  122662806.648 5  95581439.52542
      3569.078        2781.086
 06  5  8 15 47  0.0000000  0  9G 6G 7G 8G10G13G16G21G27G29
  22410193.943    22410193.3414   22410195.7044  117766366.681 6  91766002.12843
     -2309.044       -1799.232
  22500996.448    22500995.9534   22500998.2654  118243542.492 7  92137848.99743
      1546.018        1204.661
  24066337.182    24066336.7804   24066339.7574  126469487.403 6  98547648.44843
      3462.308        2697.911
  20622445.049    20622444.2294   20622446.0534  108371690.271 8  84445490.30246
      -658.591        -513.187
  24119703.656    24119703.5754   24119704.6334  126749876.158 6  98766147.64642
     -3617.197       -2818.585
  22792330.591    22792331.1224   22792331.5774  119774552.405 6  93330815.62843
      -976.647        -761.032
  22921289.915    22921289.6994   22921289.6244  120452222.723 6  93858885.08542
      3150.384        2454.893
  23022342.008    23022341.4894   23022343.7614  120983250.999 7  94272673.38044
      1482.613        1155.287
  23321604.186    23321605.2054   23321607.0224  122555846.239 5  95498093.77442
      3560.320        2774.250
 06  5  8 15 47 30.0000000  0  9G 6G 7G 8G10G13G16G21G27G29
  22423413.882    22423413.2784   22423415.8974  117835838.422 6  91820135.60743
     -2323.313       -1810.383
  22492214.788    22492214.6894   22492216.7584  118197397.302 7  92101892.07343
      1529.443        1191.787
  24046592.446    24046592.6144   24046596.0784  126365734.383 6  98466802.04343
      3453.505        2691.032
  20626259.669    20626258.9844   20626260.7944  108391737.017 8  84461111.18646
      -678.661        -528.808
  24140371.438    24140373.4694   24140373.9724  126858490.147 6  98850781.93842
     -3624.860       -2824.543
  22797958.818    22797958.7744   22797959.6674  119804126.964 6  93353860.68143
      -996.041        -776.127
  22903330.651    22903329.4674   22903330.1254  120357842.483 6  93785342.07642
      3140.692        2447.320
  23013919.911    23013920.0914   23013922.1684  120938995.454 7  94238188.42944
      1466.782        1142.953
  23301299.303    23301298.6374   23301300.8684  122449140.022 6  95414946.02142
      3552.487        2768.141
 06  5  8 15 48  0.0000000  0  9G 6G 7G 8G10G13G16G21G27G29
  22436718.858    22436719.7214   22436722.4524  117905758.653 6  91874618.73243
     -2338.295       -1822.058
  22483531.280    22483530.7774   22483533.3114  118151765.085 6  92066334.56743
      1512.248        1178.386
  24026904.645    24026904.9624   24026907.3734  126262268.497 6  98386179.29043
      3443.826        2683.537
  20630190.796    20630190.2344   20630191.6944  108412395.275 8  84477208.51446
      -699.026        -544.687
  24161087.731    24161087.5044   24161089.9704  126967352.737 6  98935610.12142
     -3633.172       -2831.053
  22803700.344    22803700.7274   22803701.5034  119834301.240 6  93377373.14143
     -1016.113        -791.764
  22885429.605    22885429.1504   22885429.2294  120263775.759 6  93712043.32842
      3130.089        2439.002
  23005591.717    23005591.6694   23005593.6614  120895228.221 7  94204083.97344
      1450.455        1130.242
  23281043.207    23281043.0304   23281045.2924  122342693.627 6  95332000.89342
      3543.619        2761.235
 06  5  8 15 48 30.0000000  0 10G 6G 7G 8G10G13G16G21G26G27G29
  22450108.932    22450109.6684   22450111.6874  117976126.183 6  91929450.60143
     -2353.435       -1833.855
  22474946.161    22474945.4374   22474948.2884  118106649.506 6  92031179.67643
      1494.650        1164.631
  24007270.311    24007270.7154   24007273.7794  126159094.029 6  98305783.63843
      3433.806        2675.705
  20634238.539    20634237.7104   20634239.3954  108433665.469 8  84493782.68746
      -719.633        -560.771
  24181850.643    24181851.6874   24181852.0124  127076461.849 6  99020630.30342
     -3641.677       -2837.721
  22809557.160    22809556.4044   22809557.8854  119865074.495 6  93401351.85043
     -1036.291        -807.525
  22867589.403    22867588.6074   22867589.7044  120170025.279 6  93638991.01142
      3119.137        2430.506
  24206660.652                                   127206822.043 4
      4315.177
  22997356.834    22997356.4944   22997358.9584  120851952.005 7  94170362.14644
      1433.899        1117.325
  23260836.488    23260837.3484   23260838.9524  122236510.477 5  95249260.87142
      3534.551        2754.183
 06  5  8 15 49  0.0000000  0 10G 6G 7G 8G10G13G16G21G26G27G29
  22463583.154    22463584.9904   22463586.7174  118046938.570 6  91984629.22243
     -2367.724       -1845.047
  22466459.071    22466459.3174   22466461.7124  118062049.775 7  91996425.88043
      1477.977        1151.700
  23987693.699    23987693.3944   23987695.7404  126056213.448 6  98225617.00143
      3424.499        2668.442
  20638402.569    20638402.0594   20638404.1404  108455543.983 8  84510829.56846
      -739.717        -576.444
  24202660.426    24202659.8434   24202661.5134  127185814.430 6  99105840.08142
     -3649.146       -2843.472
  22815526.735    22815526.1384   22815527.5504  119896447.372 6  93425798.48343
     -1055.810        -822.765
  22849809.516    22849809.4474   22849810.0404  120076593.654 6  93566187.22642
      3108.981        2422.539
  24182039.844                                   127077434.915 4
      4310.907
  22989215.185    22989215.1514   22989217.2824  120809167.009 7  94137022.91344
      1417.797        1104.743
  23240680.350    23240680.8514   23240681.9494  122130592.734 6  95166727.62642
      3526.212        2747.699
 06  5  8 15 49 30.0000000  0 10G 6G 7G 8G10G13G16G21G26G27G29
  22477143.414    22477143.4894   22477145.5164  118118190.905 6  92040150.73343
     -2382.686       -1856.614
  22458071.043    22458070.9974   22458072.7984  118017968.865 7  91962077.57843
      1460.491        1138.010
  23968171.961    23968171.6954   23968174.4844  125953627.573 6  98145680.01143
      3414.122        2660.316
  20642681.901    20642681.0174   20642683.0214  108478034.021 8  84528355.17046
      -759.908        -592.158
  24223514.743    24223514.8984   24223515.8724  127295405.391 6  99191235.56142
     -3657.436       -2849.944
  22821609.758    22821608.8064   22821610.6774  119928414.581 6  93450708.09143
     -1075.692        -838.192
  22832091.406    22832090.7544   22832091.5334  119983480.288 6  93493631.44842
      3098.123        2414.121
  24157449.451                                   126948202.872 5
      4304.756
  22981166.756    22981166.8184   22981169.0254  120766873.836 7  94104067.43744
      1401.251        1091.867
  23220576.079    23220575.5584   23220578.2724  122024940.625 6  95084401.43642
      3516.855        2740.352
 06  5  8 15 50  0.0000000  0 10G 6G 7G 8G10G13G16G21G26G27G29
  22490785.978    22490786.7454   22490788.7684  118189883.250 6  92096014.52443
     -2397.019       -1867.828
  22449781.087    22449781.4844   22449783.5694  117974408.683 7  91928134.69143
      1443.398        1124.761
  23948707.615    23948707.0914   23948710.4734  125851342.487 6  98065977.38943
      3404.729        2653.089
  20647077.282    20647076.6174   20647078.4814  108501131.648 8  84546353.02146
      -779.938        -607.742
  24244414.259    24244414.4264   24244415.0394  127405235.118 6  99276817.18342
     -3664.781       -2855.676
  22827806.205    22827806.2334   22827807.0544  119960978.200 6  93476082.36643
     -1095.241        -853.412
  22814433.954    22814432.4524   22814433.5754  119890691.234 6  93421328.42842
      3087.664        2405.990
  24132886.309                                   126819132.520 5
      4299.765
  22973212.775    22973212.7054   22973214.8314  120725076.291 7  94071498.29944
      1385.201        1079.371
  23200522.819    23200522.6964   23200525.4524  121919559.836 6  95002286.65042
      3508.312        2733.763
 06  5  8 15 50 30.0000000  0 10G 6G 7G 8G10G13G16G21G26G27G29
  22504511.758    22504511.5614   22504514.1254  118262010.308 6  92152217.62743
     -2411.873       -1879.395
  22441590.738    22441590.6484   22441592.5364  117931365.787 7  91894594.80043
      1425.663        1110.910
  23929300.501    23929300.2744   23929302.9874  125749355.892 6  97986507.35843
      3394.187        2644.819
  20651587.264    20651586.6554   20651588.5914  108524834.208 8  84564822.99146
      -800.364        -623.660
  24265358.814    24265356.9334   24265359.2344  127515295.528 6  99362578.47542
     -3672.945       -2862.045
  22834115.331    22834114.7174   22834116.1904  119994132.151 6  93501916.75043
     -1115.473        -869.240
  22796837.315    22796836.8284   22796838.2054  119798223.409 6  93349275.66342
      3076.344        2397.168
  24108356.983                                   126690221.798 5
      4293.859
  22965352.546    22965352.3314   22965354.3834  120683769.691 7  94039311.41544
      1368.431        1066.326
  23180520.241    23180520.4224   23180521.7604  121814447.632 6  94920381.14442
      3498.699        2726.225
 06  5  8 15 51  0.0000000  0 10G 6G 7G 8G10G13G16G21G26G27G29
  22518319.658    22518318.2994   22518321.3864  118334571.858 6  92208759.29043
     -2426.506       -1890.729
  22433499.084    22433499.0924   22433501.6104  117888844.454 7  91861461.08343
      1408.155        1097.270
  23909950.748    23909950.5444   23909954.2124  125647673.767 6  97907274.60243
      3383.749        2636.716
  20656212.949    20656212.1884   20656214.0534  108549141.862 8  84583764.15446
      -820.750        -639.554
  24286345.967    24286346.4544   24286347.0354  127625587.217 6  99448520.02342
     -3680.676       -2868.087
  22840536.946    22840536.8534   22840537.4824  120027877.524 6  93528211.86243
     -1135.128        -884.482
  22779303.295    22779303.5664   22779303.5904  119706082.633 6  93277477.78842
      3065.420        2388.620
  24083856.402    24083856.3234   24083857.4674  126561476.373 5  98619376.71041
      4287.962        3341.233
  22957586.825    22957586.3134   22957588.2044  120642958.609 7  94007510.61045
      1351.702        1053.271
  23160570.263    23160570.8104   23160572.6374  121709609.420 6  94838689.08842
      3489.361        2718.951
 06  5  8 15 51 30.0000000  0 10G 6G 7G 8G10G13G16G21G26G27G29
  22532209.054    22532209.2424   22532211.0464  118407565.347 6  92265637.48142
     -2440.454       -1901.651
  22425507.209    22425507.4804   22425510.0204  117846845.780 7  91828734.34143
      1391.061        1083.908
  23890659.205    23890660.0794   23890662.0364  125546299.062 6  97828281.40643
      3373.739        2628.885
  20660953.595    20660952.7044   20660954.4914  108574053.959 8  84603176.28946
      -840.664        -655.075
  24307378.402    24307376.2414   24307378.1724  127736107.051 6  99534639.33542
     -3687.937       -2873.649
  22847070.424    22847070.4504   22847071.9974  120062212.999 6  93554966.58543
     -1154.415        -899.548
  22761832.987    22761831.5314   22761832.6924  119614269.941 6  93205935.44643
      3054.807        2380.366
  24059388.889    24059389.1554   24059392.1034  126432899.151 5  98519186.66741
      4282.725        3337.196
  22949914.584    22949914.4824   22949916.8254  120602644.211 7  93976096.65544
      1335.324        1040.560
  23140671.906    23140672.8664   23140675.2944  121605047.629 6  94757212.41542
      3480.523        2712.092
 06  5  8 15 52  0.0000000  0 10G 6G 7G 8G10G13G16G21G26G27G29
  22546180.090    22546181.0074   22546183.2304  118480983.121 6  92322845.44842
     -2454.416       -1912.485
  22417614.136    22417614.2594   22417616.3014  117805370.073 6  91796416.35743
      1373.617        1070.343
  23871426.858    23871427.3464   23871429.4494  125445230.578 6  97749526.74543
      3363.595        2620.962
  20665808.233    20665807.5574   20665809.3404  108599565.025 8  84623054.91046
      -860.532        -670.518
  24328449.607    24328450.2984   24328451.6794  127846848.311 6  99620931.16142
     -3695.186       -2879.343
  22853716.151    22853715.6864   22853717.0694  120097133.282 6  93582176.90842
     -1173.906        -914.733
  22744422.772    22744423.1234   22744423.0294  119522784.174 6  93134647.79942
      3043.872        2371.843
  24034954.071    24034953.1444   24034955.0854  126304489.242 5  98419127.03641
      4277.317        3333.065
  22942336.669    22942337.0594   22942339.1504  120562824.382 7  93945068.27244
      1318.872        1027.704
  23120827.328    23120828.5504   23120829.5024  121500760.746 6  94675949.90442
      3471.388        2704.986
 06  5  8 15 52 30.0000000  0 10G 6G 7G 8G10G13G16G21G26G27G29
  22560233.379    22560234.0094   22560236.4604  118554830.192 6  92380388.45342
     -2468.959       -1923.920
  22409821.763    22409821.4044   22409823.9624  117764419.586 7  91764507.02343
      1355.895        1056.552
  23852254.583    23852253.8284   23852256.6254  125344476.154 6  97671016.84343
      3352.958        2612.649
  20670777.700    20670776.8304   20670778.8024  108625679.597 8  84643403.96446
      -880.968        -686.478
  24349566.305    24349566.5414   24349567.6074  127957812.768 6  99707396.92742
     -3702.958       -2885.414
  22860473.200    22860472.9754   22860474.7684  120132642.410 6  93609846.34743
     -1193.770        -930.199
  22727077.454    22727077.0024   22727077.7114  119431631.396 6  93063619.18943
      3032.525        2362.996
  24010551.136    24010550.3514   24010553.8194  126176254.215 5  98319203.67441
      4271.375        3328.363
  22934854.907    22934854.6294   22934857.0604  120523504.966 7  93914429.87244
      1301.948        1014.499
  23101036.068    23101035.1574   23101038.8704  121396755.818 6  94594907.07942
      3461.843        2697.538
 06  5  8 15 53  0.0000000  0 11G 6G 7G 8G10G13G15G16G21G26G27G29
  22574368.418    22574368.3494   22574370.0814  118629109.398 6  92438268.95042
     -2483.346       -1935.073
  22402130.694    22402129.6784   22402132.4924  117724001.354 7  91733012.19643
      1338.008        1042.631
  23833141.860    23833141.9634   23833144.7344  125244043.328 6  97592757.55643
      3342.059        2604.182
  20675862.523    20675861.8694   20675863.7134  108652400.595 8  84664225.32846
      -901.253        -702.275
  24370724.774    24370724.8484   24370725.9944  128069002.693 6  99794038.36642
     -3710.392       -2891.200
  24510571.098    24510570.5194   24510573.6604  128803929.381 5 100366708.15741
      3943.978        3073.313
  22867342.716    22867342.0894   22867343.7094  120168743.100 6  93637976.79042
     -1213.617        -945.678
  22709796.756    22709796.1884   22709797.6484  119340821.075 6  92992858.22843
      3021.018        2354.066
  23986183.025    23986184.0324   23986186.4994  126048201.946 5  98219422.82041
      4265.168        3323.500
  22927468.973    22927468.8524   22927470.9074  120484691.493 7  93884185.58444
      1284.896        1001.232
  23081299.888    23081299.9514   23081302.3064  121293040.350 6  94514089.82342
      3452.035        2689.853
 06  5  8 15 53 30.0000000  0 11G 6G 7G 8G10G13G15G16G21G26G27G29
  22588582.905    22588582.7524   22588584.7454  118703810.252 6  92496477.79842
     -2497.588       -1946.192
  22394540.075    22394539.3074   22394541.6844  117684110.758 7  91701928.53243
      1320.339        1028.805
  23814091.446    23814090.1114   23814092.9614  125143928.306 6  97514745.88943
      3331.501        2595.924
  20681061.354    20681060.7894   20681062.5854  108679721.593 8  84685514.53746
      -921.126        -717.764
  24391925.273    24391925.7594   24391925.2204  128180408.564 6  99880848.06342
     -3717.435       -2896.674
  24488066.032    24488063.9634   24488070.0894  128685658.512 5 100274548.97341
      3939.765        3069.845
  22874323.647    22874323.8374   22874324.2364  120205427.863 6  93666562.49342
     -1233.113        -960.864
  22692579.316    22692579.5694   22692580.2564  119250347.309 6  92922359.34743
      3009.566        2345.118
  23961849.676    23961850.9614   23961852.8734  125920328.530 5  98119781.27741
      4258.892        3318.663
  22920178.562    22920178.3434   22920180.3734  120446378.468 7  93854331.12044
      1268.475         988.460
  23061617.526    23061618.0694   23061620.2464  121189610.162 6  94433494.82542
      3442.444        2682.393
